[[{"header":{"parameterUnit":"m.s-1","parameterCategory":1,"la1":30.6,"la2":29.2853,"lo1":-89.7004,"lo2":-87.6739,"dy":0.0162,"dx":0.0183,"nx":112,"ny":82,"refTime":"2026-05-13T12:00:00:Z","depth":0,"parameterNumber":2,"parameterNumberName":"U-component_of_WINDS"},"data":[0.0,0.0,0.0,0.0,0.0,0.0,0.0,0.0,0.0,0.0,0.0,0.0,0.0,0.0,0.0,0.0,0.0,0.0,0.0,0.0,0.0,0.0,0.0,0.0,0.0,0.0,0.0,0.0,0.0,0.0,0.0,0.0,0.0,0.0,0.0,0.0,0.0,0.0,0.0,0.0,0.0,0.0,0.0,0.0,0.0,0.0,0.0,0.0,0.0,0.0,0.0,0.0,0.0,0.0,0.0,0.0,0.0,0.0,0.0,0.0,0.0,0.0,0.0,0.0,0.0,0.0,0.0,0.0,0.0,0.0,0.0,0.0,0.0,0.0,0.0,0.0,0.0,0.0,0.0,0.0,0.0,0.0,0.0,0.0,0.0,0.0,0.0,0.0,0.0,0.0,-0.6812,-0.6643,-0.6906,-0.7112,-0.7112,-0.6843,-0.6521,-0.6082,0.0,0.0,0.0,0.0,0.0,0.0,0.0,0.0,0.0,0.0,0.0,0.0,0.0,0.0,0.0,0.0,0.0,0.0,0.0,0.0,0.0,0.0,0.0,0.0,0.0,0.0,0.0,0.0,0.0,0.0,0.0,0.0,0.0,0.0,0.0,0.0,0.0,0.0,0.0,0.0,0.0,0.0,0.0,0.0,0.0,0.0,0.0,0.0,0.0,0.0,0.0,0.0,0.0,0.0,0.0,0.0,0.0,0.0,0.0,0.0,0.0,0.0,0.0,0.0,0.0,0.0,0.0,0.0,0.0,0.0,0.0,0.0,0.0,0.0,0.0,0.0,0.0,0.0,0.0,0.0,0.0,0.0,0.0,0.0,0.0,0.0,0.0,0.0,0.0,0.0,0.0,0.0,0.0,0.0,0.0,0.0,0.0,0.0,0.0,0.0,0.0,0.0,0.0,0.0,-0.6044,-0.6616,-0.6928,-0.7112,-0.7112,-0.6843,-0.6597,-0.6353,0.0,0.0,0.0,0.0,0.0,0.0,0.0,0.0,0.0,0.0,0.0,0.0,0.0,0.0,0.0,0.0,0.0,0.0,0.0,0.0,0.0,0.0,0.0,0.0,0.0,0.0,0.0,0.0,0.0,0.0,0.0,0.0,0.0,0.0,0.0,0.0,0.0,0.0,0.0,0.0,0.0,0.0,0.0,0.0,0.0,0.0,0.0,0.0,0.0,0.0,0.0,0.0,0.0,0.0,0.0,0.0,0.0,0.0,0.0,0.0,0.0,0.0,0.0,0.0,0.0,0.0,0.0,0.0,0.0,0.0,0.0,0.0,0.0,0.0,0.0,0.0,0.0,0.0,0.0,0.0,0.0,0.0,0.0,0.0,0.0,0.0,0.0,0.0,0.0,0.0,0.0,0.0,0.0,0.0,0.0,0.0,0.0,0.0,0.0,0.0,0.0,0.0,0.0,-0.6069,-0.6156,-0.6498,-0.6645,-0.6734,-0.6734,-0.6498,-0.6273,-0.603,-0.5571,0.0,0.0,0.0,0.0,0.0,0.0,0.0,0.0,0.0,0.0,0.0,0.0,0.0,0.0,0.0,0.0,0.0,0.0,0.0,0.0,0.0,0.0,0.0,0.0,0.0,0.0,0.0,0.0,0.0,0.0,0.0,0.0,0.0,0.0,0.0,0.0,0.0,0.0,0.0,0.0,0.0,0.0,0.0,0.0,0.0,0.0,0.0,0.0,0.0,0.0,0.0,0.0,0.0,0.0,0.0,0.0,0.0,0.0,0.0,0.0,0.0,0.0,0.0,0.0,0.0,0.0,0.0,0.0,0.0,0.0,0.0,0.0,0.0,0.0,0.0,0.0,0.0,0.0,0.0,0.0,0.0,0.0,0.0,0.0,0.0,0.0,0.0,0.0,0.0,0.0,0.0,0.0,0.0,0.0,0.0,0.0,0.0,0.0,0.0,0.0,0.0,0.0,-0.6251,-0.6447,-0.6404,-0.6408,-0.6354,-0.6273,-0.6103,-0.5888,-0.5702,-0.5375,0.0,0.0,0.0,0.0,0.0,0.0,0.0,0.0,0.0,0.0,0.0,0.0,0.0,0.0,0.0,0.0,0.0,0.0,0.0,0.0,0.0,0.0,0.0,0.0,0.0,0.0,0.0,0.0,0.0,0.0,0.0,0.0,0.0,0.0,0.0,0.0,0.0,0.0,0.0,0.0,0.0,0.0,0.0,0.0,0.0,0.0,0.0,0.0,0.0,0.0,0.0,0.0,0.0,0.0,0.0,0.0,0.0,0.0,0.0,0.0,0.0,0.0,0.0,0.0,0.0,0.0,0.0,0.0,0.0,0.0,0.0,0.0,0.0,0.0,0.0,0.0,0.0,0.0,0.0,0.0,0.0,0.0,0.0,0.0,0.0,0.0,0.0,0.0,0.0,0.0,0.0,0.0,0.0,0.0,0.0,0.0,0.0,0.0,0.0,0.0,0.0,0.0,-0.6277,-0.6608,-0.6411,-0.6408,-0.6245,-0.5882,-0.5712,-0.5643,-0.5702,-0.5162,0.0,0.0,0.0,0.0,0.0,0.0,0.0,0.0,0.0,0.0,0.0,0.0,0.0,0.0,0.0,0.0,0.0,0.0,0.0,0.0,0.0,0.0,0.0,0.0,0.0,0.0,0.0,0.0,0.0,0.0,0.0,0.0,0.0,0.0,0.0,0.0,0.0,0.0,0.0,0.0,0.0,0.0,0.0,0.0,0.0,0.0,0.0,0.0,0.0,0.0,0.0,0.0,0.0,0.0,0.0,0.0,0.0,0.0,0.0,0.0,0.0,0.0,0.0,0.0,0.0,0.0,0.0,0.0,0.0,0.0,0.0,0.0,0.0,0.0,0.0,0.0,0.0,0.0,0.0,0.0,0.0,0.0,0.0,0.0,0.0,0.0,0.0,0.0,0.0,0.0,0.0,0.0,0.0,0.0,0.0,0.0,0.0,0.0,0.0,0.0,0.0,0.0,-0.607,-0.6487,-0.6401,-0.6408,-0.6245,-0.5828,-0.5981,-0.588,-0.5352,0.0,0.0,0.0,0.0,0.0,0.0,0.0,0.0,0.0,0.0,0.0,0.0,0.0,0.0,0.0,0.0,0.0,0.0,0.0,0.0,0.0,0.0,0.0,0.0,0.0,0.0,0.0,0.0,0.0,0.0,0.0,0.0,0.0,0.0,0.0,0.0,0.0,0.0,0.0,0.0,0.0,0.0,0.0,0.0,0.0,0.0,0.0,0.0,0.0,0.0,0.0,0.0,0.0,0.0,0.0,0.0,0.0,0.0,0.0,0.0,0.0,0.0,0.0,0.0,0.0,0.0,0.0,0.0,0.0,0.0,0.0,0.0,0.0,0.0,0.0,0.0,0.0,0.0,0.0,0.0,0.0,0.0,0.0,0.0,0.0,0.0,0.0,0.0,0.0,0.0,0.0,0.0,0.0,0.0,0.0,0.0,0.0,0.0,0.0,0.0,0.0,0.0,-0.5203,-0.5786,-0.6139,-0.5995,-0.5973,-0.5832,-0.5418,-0.5534,-0.5461,-0.5015,0.0,0.0,0.0,0.0,0.0,0.0,0.0,0.0,0.0,0.0,0.0,0.0,0.0,0.0,0.0,0.0,0.0,0.0,0.0,0.0,0.0,0.0,0.0,0.0,0.0,0.0,0.0,0.0,0.0,0.0,0.0,0.0,0.0,0.0,0.0,0.0,0.0,0.0,0.0,0.0,0.0,0.0,0.0,0.0,0.0,0.0,0.0,0.0,0.0,0.0,0.0,0.0,0.0,0.0,0.0,0.0,0.0,0.0,0.0,0.0,0.0,0.0,0.0,0.0,0.0,0.0,0.0,0.0,0.0,0.0,0.0,0.0,0.0,0.0,0.0,0.0,0.0,0.0,0.0,0.0,0.0,0.0,0.0,0.0,0.0,0.0,0.0,0.0,0.0,0.0,0.0,0.0,0.0,0.0,0.0,0.0,0.0,0.0,0.0,0.0,0.0,0.0,-0.5009,-0.5469,-0.5609,-0.5152,-0.5097,-0.4932,-0.4546,-0.4218,-0.4223,0.0,0.0,0.0,0.0,0.0,0.0,0.0,0.0,0.0,0.0,0.0,0.0,0.0,0.0,0.0,0.0,0.0,0.0,0.0,0.0,0.0,0.0,0.0,0.0,0.0,0.0,0.0,0.0,0.0,0.0,0.0,0.0,0.0,0.0,0.0,0.0,0.0,0.0,0.0,0.0,0.0,0.0,0.0,0.0,0.0,0.0,0.0,0.0,0.0,0.0,0.0,0.0,0.0,0.0,0.0,0.0,0.0,0.0,0.0,0.0,0.0,0.0,0.0,0.0,0.0,0.0,0.0,0.0,0.0,0.0,0.0,0.0,0.0,0.0,0.0,0.0,0.0,0.0,0.0,0.0,0.0,0.0,0.0,0.0,0.0,0.0,0.0,0.0,0.0,0.0,0.0,0.0,0.0,0.0,0.0,0.0,0.0,0.0,0.0,0.0,0.0,0.0,0.0,-0.5264,-0.5585,-0.5746,-0.5609,-0.5586,-0.5422,-0.4959,-0.5054,-0.4919,-0.4439,0.0,0.0,0.0,0.0,0.0,0.0,0.0,0.0,0.0,0.0,0.0,0.0,0.0,0.0,0.0,0.0,0.0,0.0,0.0,0.0,0.0,0.0,0.0,0.0,0.0,0.0,0.0,0.0,0.0,0.0,0.0,0.0,0.0,0.0,0.0,0.0,0.0,0.0,0.0,0.0,0.0,0.0,0.0,0.0,0.0,0.0,0.0,0.0,0.0,0.0,0.0,0.0,0.0,0.0,0.0,0.0,0.0,0.0,0.0,0.0,0.0,0.0,0.0,0.0,0.0,0.0,0.0,0.0,0.0,0.0,0.0,0.0,0.0,0.0,0.0,0.0,0.0,0.0,0.0,0.0,0.0,0.0,0.0,0.0,0.0,0.0,0.0,0.0,0.0,0.0,0.0,0.0,0.0,0.0,0.0,0.0,0.0,0.0,0.0,0.0,0.0,0.0,-0.5098,-0.5212,-0.5281,-0.5281,-0.5281,-0.5175,-0.4877,-0.4969,-0.4825,-0.4302,0.0,0.0,0.0,0.0,0.0,0.0,0.0,0.0,0.0,0.0,0.0,0.0,0.0,0.0,0.0,0.0,0.0,0.0,0.0,0.0,0.0,0.0,0.0,0.0,0.0,0.0,0.0,0.0,0.0,0.0,0.0,0.0,0.0,0.0,0.0,0.0,0.0,0.0,0.0,0.0,0.0,0.0,0.0,0.0,0.0,0.0,0.0,0.0,0.0,0.0,0.0,0.0,0.0,0.0,0.0,0.0,0.0,0.0,0.0,0.0,0.0,0.0,0.0,0.0,0.0,0.0,0.0,0.0,0.0,0.0,0.0,0.0,0.0,0.0,0.0,0.0,0.0,0.0,0.0,0.0,0.0,0.0,0.0,0.0,0.0,0.0,0.0,0.0,0.0,0.0,0.0,0.0,0.0,0.0,0.0,0.0,0.0,0.0,0.0,0.0,0.0,0.0,-0.4699,-0.4606,-0.4491,-0.4491,-0.4491,-0.4491,-0.4491,-0.4304,-0.4194,-0.4158,0.0,0.0,0.0,0.0,0.0,0.0,0.0,0.0,0.0,0.0,0.0,0.0,0.0,0.0,0.0,0.0,0.0,0.0,0.0,0.0,0.0,0.0,0.0,0.0,0.0,0.0,0.0,0.0,0.0,0.0,0.0,0.0,0.0,0.0,0.0,0.0,0.0,0.0,0.0,0.0,0.0,0.0,0.0,0.0,0.0,0.0,0.0,0.0,0.0,0.0,0.0,0.0,0.0,0.0,0.0,0.0,0.0,0.0,0.0,0.0,-1.2787,-1.2292,0.0,0.0,0.0,0.0,0.0,0.0,0.0,0.0,0.0,0.0,0.0,0.0,0.0,0.0,0.0,0.0,0.0,0.0,0.0,0.0,0.0,0.0,0.0,0.0,0.0,0.0,0.0,0.0,0.0,0.0,0.0,0.0,0.0,0.0,0.0,0.0,0.0,0.0,0.0,0.0,-0.4956,-0.4707,-0.4491,-0.4491,-0.4491,-0.4491,-0.4491,-0.4304,-0.4117,-0.3903,-0.3976,0.0,0.0,0.0,0.0,0.0,0.0,0.0,0.0,0.0,0.0,0.0,0.0,0.0,0.0,0.0,0.0,0.0,0.0,0.0,0.0,0.0,0.0,0.0,0.0,0.0,0.0,0.0,0.0,0.0,0.0,0.0,0.0,0.0,0.0,0.0,0.0,0.0,0.0,0.0,0.0,0.0,0.0,0.0,0.0,0.0,0.0,0.0,0.0,0.0,0.0,0.0,0.0,0.0,0.0,0.0,0.0,0.0,0.0,0.0,-1.4307,-1.3818,0.0,0.0,0.0,0.0,0.0,0.0,0.0,0.0,0.0,0.0,0.0,0.0,0.0,0.0,0.0,0.0,0.0,0.0,0.0,0.0,0.0,0.0,0.0,0.0,0.0,0.0,0.0,0.0,0.0,0.0,0.0,0.0,0.0,0.0,0.0,0.0,0.0,0.0,0.0,0.0,-0.5049,-0.4756,-0.4491,-0.4491,-0.4491,-0.4491,-0.4491,-0.4395,-0.4253,-0.4001,-0.3963,0.0,0.0,0.0,0.0,0.0,0.0,0.0,0.0,0.0,0.0,0.0,0.0,0.0,0.0,0.0,0.0,0.0,0.0,0.0,0.0,0.0,0.0,0.0,0.0,0.0,0.0,0.0,0.0,0.0,0.0,0.0,0.0,0.0,0.0,0.0,0.0,0.0,0.0,0.0,0.0,0.0,0.0,0.0,0.0,0.0,0.0,0.0,0.0,0.0,0.0,0.0,0.0,0.0,-1.6386,-1.6708,-1.7079,-1.714,-1.7334,-1.7519,-1.6084,-1.5801,-1.6261,-1.5449,0.0,0.0,0.0,0.0,0.0,0.0,0.0,0.0,0.0,0.0,0.0,0.0,0.0,0.0,0.0,0.0,0.0,0.0,0.0,0.0,0.0,0.0,-0.8714,-0.8406,-0.8217,-0.7897,-0.7193,0.0,0.0,0.0,0.0,0.0,0.0,0.0,0.0,0.0,0.0,0.0,-0.5056,-0.4789,-0.4569,-0.4569,-0.4545,-0.4532,-0.4532,-0.4505,-0.4402,-0.4204,-0.396,-0.371,0.0,0.0,0.0,0.0,0.0,0.0,0.0,0.0,0.0,0.0,0.0,0.0,0.0,0.0,0.0,0.0,0.0,0.0,0.0,0.0,0.0,0.0,0.0,0.0,0.0,0.0,0.0,0.0,0.0,0.0,0.0,0.0,-1.3128,-1.2994,0.0,0.0,0.0,0.0,0.0,0.0,0.0,0.0,0.0,0.0,0.0,0.0,0.0,-1.767,-1.7494,-1.8237,-1.8302,-1.773,-1.8503,-1.888,-1.8938,-1.8961,-1.8769,-1.8422,-1.8198,0.0,-1.72,-1.6648,0.0,0.0,0.0,0.0,0.0,0.0,0.0,0.0,0.0,0.0,0.0,0.0,0.0,0.0,0.0,0.0,0.0,0.0,0.0,0.0,0.0,0.0,-0.8741,-0.8457,-0.764,-0.69,-0.6789,-0.657,-0.6312,-0.6087,-0.5862,-0.5411,0.0,0.0,0.0,0.0,0.0,0.0,-0.4962,-0.493,-0.486,-0.486,-0.4741,-0.466,-0.466,-0.4566,-0.4402,-0.4204,-0.4058,-0.3914,-0.3741,-0.3428,0.0,0.0,0.0,0.0,0.0,0.0,0.0,0.0,0.0,0.0,0.0,0.0,0.0,0.0,0.0,0.0,0.0,0.0,0.0,0.0,0.0,0.0,0.0,0.0,0.0,0.0,0.0,0.0,0.0,-1.3311,-1.4402,-1.4433,-1.4972,-1.5031,0.0,0.0,0.0,0.0,0.0,0.0,0.0,0.0,0.0,-1.8354,-1.8867,-1.9145,-1.9137,-1.9523,-1.9383,-1.874,-1.9346,-1.9639,-1.9648,-1.9893,-1.9789,-1.9343,-1.9343,-1.8764,-1.775,-1.7278,-1.6617,-1.5798,0.0,0.0,0.0,0.0,-1.2857,-1.1805,-1.1768,-1.1384,-1.0855,-1.0373,0.0,0.0,0.0,0.0,0.0,0.0,0.0,-0.9606,-1.007,-1.0126,-0.9861,-0.9144,-0.8527,-0.7893,-0.7159,-0.6743,-0.6403,-0.6055,-0.6166,-0.5918,-0.4655,-0.4731,0.0,0.0,0.0,-0.4828,-0.5069,-0.4989,-0.4887,-0.4887,-0.486,-0.4782,-0.4697,-0.4658,-0.4556,-0.4379,-0.4203,-0.4092,-0.4028,-0.3735,-0.35,0.0,0.0,0.0,0.0,0.0,0.0,0.0,0.0,0.0,0.0,0.0,0.0,0.0,0.0,0.0,0.0,0.0,0.0,0.0,0.0,0.0,0.0,0.0,0.0,0.0,0.0,0.0,0.0,-1.4597,-1.5437,-1.5581,-1.617,-1.6255,0.0,0.0,0.0,0.0,0.0,0.0,-1.7497,-1.8499,-1.9284,-1.9709,-2.0354,-2.0729,-2.081,-2.0801,-2.0468,-1.9878,-2.0266,-2.0338,-2.0098,-2.0459,-2.0303,-1.9751,-1.9625,-1.8999,-1.808,-1.7821,-1.7153,-1.6209,-1.5942,-1.4912,-1.3661,-1.4114,-1.3298,-1.2009,-1.245,-1.2137,-1.147,-1.1069,-1.0695,-1.0336,-0.9903,0.0,0.0,0.0,0.0,-1.0028,-1.0751,-1.0696,-1.0276,-0.947,-0.8917,-0.8264,-0.7232,-0.6767,-0.6426,-0.5986,-0.6319,-0.622,-0.4935,-0.4951,0.0,-0.4758,-0.4847,-0.5034,-0.5166,-0.5091,-0.5033,-0.5033,-0.4996,-0.4925,-0.4813,-0.4735,-0.4672,-0.4556,-0.4382,-0.4277,-0.4277,-0.405,-0.3822,-0.3662,0.0,0.0,0.0,0.0,0.0,0.0,0.0,0.0,0.0,0.0,0.0,0.0,0.0,0.0,0.0,0.0,0.0,0.0,0.0,0.0,0.0,0.0,0.0,0.0,0.0,0.0,0.0,0.0,0.0,-1.6191,-1.6871,0.0,0.0,0.0,0.0,-1.7542,-1.7629,-1.8088,-1.9128,-2.0141,-2.0799,-2.1095,-2.2063,-2.2525,-2.2386,-2.2372,-2.2054,-2.1403,-2.1802,-2.1479,-2.0586,-2.0589,-2.0152,-1.9326,-1.8943,-1.8475,-1.8035,-1.8479,-1.7715,-1.6315,-1.662,-1.6028,-1.4991,-1.4807,-1.4,-1.2923,-1.2738,-1.2318,-1.1879,-1.1852,-1.1603,-1.1322,-1.1289,-1.0922,0.0,0.0,-1.0881,-1.0433,-1.0738,-0.9916,-0.898,-0.8925,-0.7854,-0.6777,-0.6583,-0.6462,-0.6311,-0.5954,-0.6069,-0.5892,-0.4876,0.0,-0.5159,-0.4758,-0.4819,-0.4948,-0.5091,-0.5276,-0.5371,-0.5371,-0.5206,-0.5083,-0.5076,-0.4853,-0.4687,-0.468,-0.4563,-0.4481,-0.4481,-0.4277,-0.4058,-0.3785,-0.3665,0.0,0.0,0.0,0.0,0.0,0.0,0.0,0.0,0.0,0.0,0.0,0.0,0.0,0.0,0.0,0.0,0.0,0.0,0.0,0.0,0.0,0.0,0.0,0.0,0.0,0.0,0.0,0.0,-1.864,-1.9074,0.0,-1.868,-1.8436,-1.8573,-1.9258,-1.9424,-1.9885,-2.074,-2.1448,-2.208,-2.2604,-2.2949,-2.3115,-2.3021,-2.3021,-2.2857,-2.2531,-2.2688,-2.2757,-2.2725,-2.2261,-2.1597,-2.0692,-2.0105,-1.9317,-1.8389,-1.8551,-1.7877,-1.6692,-1.6823,-1.6108,-1.5013,-1.5368,-1.4491,-1.3141,-1.3251,-1.279,-1.2118,-1.1966,-1.167,-1.1389,-1.1389,-1.108,-1.0826,-1.1213,-1.0965,-1.0637,-1.0906,-1.0646,-1.0135,-0.9506,-0.8588,-0.7639,-0.6929,-0.6365,-0.5972,-0.5855,-0.5933,-0.5743,-0.495,-0.4956,-0.4982,-0.4836,-0.4931,-0.5079,-0.526,-0.5361,-0.5395,-0.5395,-0.5344,-0.524,-0.5106,-0.4921,-0.4796,-0.4697,-0.4576,-0.4491,-0.4491,-0.444,-0.4243,-0.3944,-0.3792,-0.3566,0.0,0.0,0.0,0.0,0.0,0.0,0.0,0.0,0.0,0.0,0.0,0.0,0.0,0.0,0.0,0.0,0.0,0.0,0.0,0.0,0.0,0.0,0.0,0.0,0.0,-1.7912,-1.9027,-2.0203,-2.044,-2.0411,-2.0191,-1.9986,-2.0007,-2.0399,-2.0698,-2.1108,-2.1664,-2.235,-2.2947,-2.3384,-2.3579,-2.364,-2.3593,-2.375,-2.3685,-2.342,-2.3705,-2.3784,-2.3535,-2.2961,-2.2119,-2.1093,-2.0231,-1.9364,-1.8562,-1.8314,-1.7775,-1.7107,-1.7107,-1.6488,-1.5625,-1.6075,-1.5271,-1.3933,-1.3699,-1.3323,-1.2845,-1.2368,-1.2067,-1.1815,-1.1574,-1.133,-1.112,-1.1202,-1.0925,-1.0674,-1.0846,-1.0812,-1.0513,-0.9868,-0.919,-0.8472,-0.7705,-0.7009,-0.644,-0.6169,-0.5927,-0.5672,-0.5226,-0.5104,-0.5067,-0.5067,-0.5148,-0.5247,-0.5382,-0.5395,-0.5395,-0.5395,-0.5395,-0.5354,-0.5216,-0.503,-0.4874,-0.4775,-0.4604,-0.4491,-0.4491,-0.4443,-0.4273,-0.4001,-0.3822,-0.3668,-0.3543,0.0,0.0,0.0,0.0,0.0,0.0,0.0,0.0,0.0,0.0,0.0,0.0,0.0,0.0,0.0,0.0,0.0,0.0,0.0,0.0,0.0,0.0,0.0,-1.7576,-1.8018,-1.8959,-2.0681,-2.0833,-2.0822,-2.0969,-2.1023,-2.0996,-2.0869,-2.1311,-2.1699,-2.1939,-2.288,-2.3419,-2.343,-2.3936,-2.42,-2.4212,-2.4682,-2.4623,-2.4088,-2.4973,-2.4578,-2.3002,-2.2495,-2.1646,-2.0512,-1.9237,-1.8655,-1.8587,-1.7849,-1.754,-1.754,-1.7514,-1.7244,-1.688,-1.6898,-1.6313,-1.5322,-1.405,-1.3865,-1.4066,-1.3122,-1.2797,-1.2667,-1.1958,-1.1719,-1.1608,-1.1192,-1.0775,-1.0481,-1.0481,-1.018,-0.9884,-0.9884,-0.942,-0.8949,-0.8822,-0.8332,-0.7686,-0.6885,-0.6155,-0.5672,-0.5596,-0.5508,-0.5409,-0.5409,-0.5405,0.0,-0.5402,-0.5399,-0.5395,-0.5395,-0.5395,-0.5395,-0.5395,-0.5087,-0.4887,-0.4887,-0.4658,-0.4491,-0.4498,-0.4304,-0.4156,-0.4004,-0.3737,-0.3679,-0.3799,0.0,0.0,0.0,0.0,0.0,0.0,0.0,0.0,0.0,0.0,0.0,0.0,0.0,0.0,0.0,0.0,0.0,0.0,0.0,0.0,0.0,-1.7211,-1.8217,-1.8821,-1.9924,-2.1172,-2.2522,-2.2497,-2.2547,-2.2948,-2.232,-2.1988,-2.2285,-2.2016,-2.2166,-2.2949,-2.3258,-2.3579,-2.3982,-2.412,-2.4361,-2.4717,-2.4855,-2.5215,-2.5802,-2.5545,-2.5373,-2.5263,-2.4155,-2.3123,-2.2107,-2.0952,-2.0121,-1.9396,-1.86,-1.828,-1.8228,-1.772,-1.7244,-1.6953,-1.7218,-1.672,-1.5705,-1.4451,-1.4122,-1.407,-1.3335,-1.308,-1.2948,-1.2254,-1.1859,-1.1473,-1.0865,-1.0368,-1.0067,-1.0067,-0.9992,-0.9884,-0.9884,-0.942,-0.8983,-0.8967,-0.8463,-0.7992,-0.7747,-0.7482,-0.6957,-0.5905,-0.5708,-0.5681,-0.5681,-0.5593,-0.5562,-0.5562,-0.5463,-0.5395,-0.5395,-0.5395,-0.5395,-0.5395,-0.5087,-0.4887,-0.4887,-0.4658,-0.4539,-0.4651,-0.4511,-0.4334,-0.4137,-0.3887,-0.3805,0.0,0.0,0.0,0.0,0.0,0.0,0.0,0.0,0.0,0.0,0.0,0.0,0.0,0.0,0.0,0.0,0.0,0.0,0.0,0.0,0.0,0.0,-1.8245,-1.9186,-2.0077,-2.078,-2.1756,-2.3221,-2.3124,-2.3074,-2.3533,-2.301,-2.2677,-2.2682,-2.254,-2.2717,-2.3361,-2.3614,-2.389,-2.4189,-2.42,-2.4326,-2.4613,-2.5038,-2.5555,-2.6152,-2.5871,-2.5755,-2.5737,-2.4498,-2.3269,-2.2078,-2.1062,-2.013,-1.9234,-1.8594,-1.8357,-1.8314,0.0,0.0,0.0,0.0,-1.7228,-1.6637,-1.523,-1.484,-1.4816,-1.3701,-1.3353,-1.3227,-1.2447,-1.1934,-1.1455,-1.07,-1.0218,-0.9884,-0.9884,-0.9884,-0.9884,-0.9884,-0.9614,-0.9382,-0.9382,-0.9117,-0.877,-0.8542,-0.8411,0.0,-0.6958,-0.6426,-0.6265,-0.6512,-0.5993,-0.5693,-0.5931,-0.5622,-0.5395,-0.5395,-0.5395,-0.5395,-0.5395,-0.5145,0.0,0.0,0.0,-0.4665,-0.4624,-0.46,0.0,0.0,0.0,0.0,0.0,0.0,0.0,0.0,-0.3676,-0.3626,0.0,0.0,0.0,0.0,0.0,0.0,0.0,0.0,0.0,0.0,0.0,0.0,0.0,0.0,0.0,0.0,-1.9214,-2.0028,-2.1223,-2.1052,-2.1465,-2.3257,-2.3084,-2.2996,-2.339,-2.3314,-2.304,-2.2553,-2.2975,-2.3302,-2.3443,-2.3961,0.0,0.0,0.0,-2.4223,-2.4281,-2.5233,-2.57,-2.5691,-2.5969,-2.5737,-2.5062,-2.3932,-2.2597,-2.1164,-2.0283,-1.9426,-1.8585,-1.8168,-1.8,-1.8,-1.8,-1.8,-1.7957,-1.7655,-1.7749,-1.7787,-1.6204,0.0,0.0,-1.422,-1.3605,-1.3336,-1.2426,-1.1872,-1.1462,-1.0676,-1.0224,-0.9954,-0.9889,-0.9884,-0.9884,-0.9884,-0.9884,-0.9884,-0.9884,-0.9884,-0.9728,-0.9193,-0.9117,-0.8922,-0.8385,-0.7504,-0.7037,-0.7575,-0.6643,-0.6047,-0.6544,-0.6019,-0.5612,-0.5561,-0.5524,0.0,-0.5495,-0.5252,-0.51,-0.51,-0.4982,-0.4813,-0.4552,-0.4689,-0.467,-0.4545,-0.4618,-0.4578,-0.4412,-0.4381,-0.4181,-0.3859,-0.3602,-0.356,0.0,0.0,0.0,0.0,0.0,0.0,0.0,0.0,0.0,0.0,0.0,0.0,0.0,0.0,0.0,-1.9796,-2.0548,-2.1195,-2.1926,-2.1675,-2.2052,-2.3772,-2.3366,-2.3315,-2.4171,-2.3395,-2.2905,-2.3194,-2.3469,-2.3663,-2.3793,-2.4354,-2.4538,-2.42,-2.42,-2.4384,-2.4774,-2.5406,-2.5626,-2.5465,-2.5424,0.0,-2.436,-2.3202,-2.2129,-2.1151,-2.0324,-1.948,-1.8637,-1.8187,-1.8,-1.8,-1.8,-1.8,-1.7991,-1.7914,-1.7931,-1.7861,-1.7058,-1.625,-1.5379,-1.4539,-1.3597,-1.2741,-1.2005,-1.1752,0.0,-1.0572,-1.0301,-1.0175,-0.997,-0.9884,-0.9884,-0.9884,-0.9884,-0.9884,-0.9884,-0.9884,-0.9884,-0.9765,-0.9728,-0.969,-0.9576,-0.859,-0.7857,-0.797,-0.7705,-0.7419,-0.7332,-0.7082,-0.684,-0.6651,-0.6207,-0.598,-0.598,-0.5442,-0.51,-0.51,-0.5073,-0.4982,-0.484,-0.4938,-0.4948,-0.4833,-0.458,-0.4479,-0.4488,-0.4204,-0.4113,-0.4186,-0.3668,-0.3467,0.0,0.0,0.0,0.0,0.0,0.0,0.0,0.0,0.0,0.0,0.0,-1.6441,-1.742,0.0,-1.9368,-2.0646,-2.1097,-2.1504,-2.2123,-2.1841,-2.2068,-2.3246,-2.3098,-2.3147,-2.3748,-2.3471,-2.329,-2.3371,-2.3729,-2.3932,-2.3886,-2.4472,-2.461,-2.42,-2.42,-2.4315,-2.4556,-2.5325,-2.5636,-2.5571,-2.5317,-2.5031,-2.4669,-2.3385,-2.2215,-2.1172,-2.0541,-1.9707,-1.866,-1.8201,-1.8,-1.8,-1.8,-1.8,-1.8,-1.8,-1.8,-1.7919,-1.7302,-1.6509,-1.5602,-1.4685,-1.3808,-1.2911,-1.2224,-1.1775,-1.1392,-1.0785,-1.0357,-1.0078,-0.9954,-0.9884,-0.9884,-0.9884,-0.9884,-0.9884,-0.9884,-0.9884,-0.9884,-0.9884,-0.9884,-0.9884,-0.9884,-0.9382,-0.8998,-0.8998,-0.8375,-0.7956,-0.8142,-0.7739,-0.7398,-0.7262,-0.7014,-0.681,-0.6718,-0.6129,-0.5785,-0.5899,-0.5633,-0.5403,-0.526,-0.5389,-0.5399,-0.5257,-0.4956,-0.4721,-0.4586,-0.418,-0.3963,-0.3885,-0.3598,-0.3558,0.0,0.0,0.0,0.0,0.0,0.0,0.0,-1.5121,-1.5601,-1.5773,-1.6704,-1.7827,-1.8903,-1.9506,-2.0189,-2.1316,-2.1462,-2.1631,-2.2137,-2.1793,-2.1729,-2.2445,-2.2605,-2.2781,-2.3052,-2.3437,-2.356,-2.3349,-2.386,-2.4119,-2.3974,-2.4448,-2.4612,-2.4345,-2.4236,-2.42,-2.42,-2.5096,-2.5535,-2.5522,-2.5183,-2.502,-2.4978,-2.3611,-2.2331,-2.1172,-2.0504,-1.9588,-1.8531,-1.8161,-1.8,-1.8,-1.8,-1.8,-1.8,-1.8,-1.8,-1.791,-1.7424,-1.6722,-1.5801,-1.4894,-1.3928,-1.3002,-1.2397,-1.1758,-1.1174,-1.088,-1.0379,-0.9981,-0.9933,-0.9884,-0.9884,-0.9884,-0.9884,-0.9884,-0.9884,-0.9884,-0.9884,-0.9884,-0.9884,-0.9884,-0.9884,-0.9884,-0.9884,-0.9884,-0.8973,-0.8444,-0.8888,-0.8389,-0.798,-0.7903,-0.7828,-0.7658,-0.7367,-0.6802,-0.6514,-0.6683,-0.6051,-0.5642,-0.5532,-0.5564,-0.5532,-0.5424,-0.5101,-0.4843,-0.4616,-0.4142,-0.3788,-0.3552,-0.3552,-0.3687,-1.4713,-1.4778,-1.4863,-1.4679,-1.5082,-1.5685,0.0,-1.6518,-1.6933,-1.8357,-1.8778,-1.9358,-2.0962,-2.1305,-2.1524,-2.2006,-2.2109,-2.2123,-2.2194,-2.1565,-2.1282,-2.1834,-2.2061,-2.2402,-2.2951,-2.3103,-2.3163,-2.3135,-2.3704,-2.4052,-2.416,-2.4394,-2.4599,-2.4742,-2.4381,-2.42,-2.42,-2.474,-2.4918,-2.4814,-2.4581,-2.443,-2.4274,-2.3087,-2.2061,-2.1093,-1.9566,-1.861,-1.808,-1.804,-1.8,-1.8,-1.8,-1.8,-1.8,-1.8,-1.8,-1.7991,-1.791,-1.6837,-1.5477,-1.5311,-1.3873,-1.2097,-1.1855,-1.1424,-1.0936,-1.0496,-1.0311,-1.0202,-0.9976,-0.9884,-0.9884,-0.9884,-0.9884,-0.9884,-0.9884,-0.9884,-0.9884,-0.9884,-0.9884,-0.9884,-0.9884,-0.9884,-0.9884,-0.9884,-0.9782,-0.9622,-0.9531,-0.9441,-0.9268,-0.9052,-0.8604,-0.8101,-0.7619,-0.7018,-0.6671,-0.669,-0.5796,-0.5254,-0.5242,-0.4931,-0.4718,-0.4704,-0.4321,-0.4159,-0.4255,-0.3839,-0.3692,-0.3773,-0.3773,-0.3727,-1.5549,-1.523,-1.5142,-1.6158,-1.6602,-1.6913,-1.7303,-1.7723,-1.8137,-1.8501,-1.953,-2.0551,-2.113,-2.1859,-2.2384,-2.242,-2.2417,-2.237,-2.2231,-2.1722,-2.1345,-2.1326,-2.1799,-2.2238,-2.2547,-2.29,-2.3108,-2.3108,-2.3665,-2.4072,-2.4194,-2.4612,-2.4829,-2.4814,-2.4646,-2.4454,-2.42,-2.4671,-2.5025,-2.5266,-2.4689,-2.4545,-2.4754,-2.3424,-2.2244,-2.1135,-1.9659,-1.8803,-1.8411,-1.8121,-1.8,-1.8,-1.8,-1.8,-1.8,-1.8,-1.8,-1.8,-1.8,-1.7294,-1.6263,-1.5602,-1.4294,-1.2808,-1.1974,-1.1263,-1.0713,-1.0385,-1.0186,-1.0051,-0.9943,-0.9884,-0.9884,-0.9884,-0.9884,-0.9884,-0.9884,-0.9884,-0.9884,-0.9884,-0.9884,-0.9884,-0.9884,-0.9884,-0.9884,-0.9884,-0.9884,-0.9884,-0.9787,-0.9776,-0.9739,-0.9631,-0.9321,-0.9037,-0.8945,-0.8294,-0.7765,-0.7537,-0.6537,-0.5795,-0.5466,-0.5046,-0.4817,-0.4817,-0.4442,-0.4277,-0.4323,-0.3898,-0.3765,-0.3802,-0.3802,-0.3781,-1.5813,-1.5644,-1.5874,-1.7282,-1.7893,-1.8125,-1.7996,-1.8562,-1.9051,-1.8851,-1.9996,-2.1057,-2.1076,-2.1988,-2.2665,-2.2456,-2.2554,-2.2601,-2.2347,-2.1864,-2.1396,-2.1042,-2.1433,-2.1814,-2.2062,-2.2694,-2.3108,-2.3108,-2.3496,-2.3929,-2.4324,-2.4677,-2.4879,-2.4933,-2.4708,-2.4458,-2.42,-2.4545,-2.505,-2.5677,-2.481,-2.468,-2.5147,-2.3493,-2.2196,-2.1135,-1.9972,-1.9152,-1.866,-1.8331,-1.8121,-1.8,-1.8,-1.8,-1.8,-1.8,-1.8,-1.8,-1.8,-1.7587,-1.6927,-1.5933,-1.4803,-1.3659,-1.2308,-1.1396,-1.0705,-1.0397,-1.0116,-0.9884,-0.9884,-0.9884,-0.9884,-0.9884,-0.9884,-0.9884,-0.9884,-0.9884,-0.9884,-0.9884,-0.9884,-0.9884,-0.9884,-0.9884,-0.9884,-0.9884,-0.9884,-0.9884,-0.9884,-0.9884,-0.9884,-0.9884,-0.9771,-0.9739,-0.9906,-0.9048,-0.8351,-0.7957,-0.6773,-0.5854,-0.5285,-0.489,-0.4654,-0.4654,-0.4384,-0.4229,-0.4229,-0.3958,-0.3802,-0.3802,-0.3802,-0.3802,-1.5337,-1.61,-1.7176,-1.735,-1.8391,-1.918,-1.8525,-1.8897,-1.956,-2.0194,-2.0391,-2.0607,-2.1186,-2.1848,-2.2225,-2.1975,-2.2461,-2.2814,-2.2623,-2.1921,-2.131,-2.1042,-2.0836,-2.0957,-2.1455,-2.2498,-2.3108,-2.3108,-2.312,-2.3609,-2.4725,-2.4418,-2.4566,-2.5276,-2.4471,-2.4073,-2.4189,-2.4212,-2.4728,-2.5677,-2.481,-2.468,-2.5126,-2.2914,-2.1687,-2.1135,-2.0261,-1.9439,-1.87,-1.87,-1.8411,-1.8,-1.8,-1.8,-1.8,-1.8,-1.8,-1.8,-1.8,-1.7587,-1.6976,-1.6304,-1.5311,-1.4127,-1.2771,-1.1852,-1.1152,-1.0476,-1.0116,-0.9884,-0.9884,-0.9884,-0.9884,-0.9884,-0.9884,-0.9884,-0.9884,-0.9884,-0.9884,-0.9884,-0.9884,-0.9884,-0.9884,-0.9884,-0.9884,-0.9884,-0.9884,-0.9884,-0.9884,-0.9884,-0.9884,-0.9884,-0.9879,-0.9911,-0.9884,-0.8803,-0.7961,-0.754,-0.5967,-0.4849,-0.446,-0.4036,-0.3841,-0.3841,-0.3841,-0.3802,-0.3802,-0.3802,-0.3802,-0.3802,-0.3802,-0.3802,-1.6045,-1.7014,-1.8264,-1.88,-1.9264,-1.9543,-1.9311,-1.9435,-1.9659,-1.9882,-2.0299,-2.0652,-2.0856,-2.1456,-2.196,-2.2144,-2.2351,-2.2513,-2.2589,-2.2474,-2.2051,-2.1106,-2.142,-2.1637,-2.1496,-2.2159,-2.2706,-2.3083,-2.3108,-2.3597,-2.4725,-2.4678,-2.48,-2.5276,-2.5038,-2.4649,-2.4189,-2.42,-2.4705,-2.5677,-2.5199,-2.4777,-2.4478,-2.2727,-2.1802,-2.162,-2.0431,-1.9587,-1.9073,-1.8812,-1.8411,-1.8,-1.8,-1.8,-1.8,-1.8,-1.8,-1.8,-1.8,-1.7878,-1.7505,-1.6468,-1.5643,-1.4712,-1.2937,-1.1893,-1.1152,-1.0476,-1.0234,-1.0169,-1.0169,-1.0169,-1.0169,-1.0169,-1.004,-0.9884,-0.9884,-0.9884,-0.9884,-0.9884,-0.9884,-0.9884,-0.9884,-0.9884,-0.9884,-0.9884,-0.9884,-0.9884,-0.9884,-0.9884,-0.9884,-0.9884,-0.9884,-0.9884,-0.9884,-0.915,-0.8347,-0.754,-0.6307,-0.5231,-0.4421,-0.3995,-0.3802,-0.3802,-0.3802,-0.3802,-0.3802,-0.3802,-0.3802,-0.3804,-0.3866,-0.3852,-1.7419,-1.8306,-1.9211,-2.0029,-2.0242,-2.0177,-1.9889,-1.9836,-1.9815,-1.9726,-1.9854,-2.0004,-2.0004,-2.0528,-2.1147,-2.1643,-2.2126,-2.2495,-2.2696,-2.2564,-2.2097,-2.1106,-2.1381,-2.1548,-2.1247,-2.187,-2.2506,-2.3058,-2.3108,-2.3597,-2.4725,-2.4788,-2.4946,-2.5276,-2.4939,-2.4495,-2.3925,-2.3925,-2.4465,-2.5588,-2.5326,-2.485,-2.4135,-2.2601,-2.1885,-2.1836,-2.067,-1.9824,-1.9262,-1.9002,-1.8563,-1.8,-1.8,-1.8,-1.8,-1.8,-1.8,-1.8,-1.8,-1.8,-1.7789,-1.6509,-1.5891,-1.5274,-1.3342,-1.2276,-1.1589,-1.0986,-1.0601,-1.0417,-1.0417,-1.0417,-1.0396,-1.0315,-1.0169,-1.003,-0.9938,-0.9884,-0.9884,-0.9884,-0.9884,-0.9884,-0.9884,-0.9884,-0.9884,-0.9884,-0.9884,-0.9884,-0.9884,-0.9884,-0.9884,-0.9884,-0.9884,-0.9884,-0.9884,-0.9155,-0.8271,-0.7306,-0.6195,-0.5154,-0.4229,-0.3951,-0.3851,-0.3851,-0.3851,-0.3851,-0.3851,-0.3818,-0.3818,-0.3853,-0.3873,-0.3918,-1.9249,-1.9846,-2.0143,-2.0999,-2.1214,-2.1007,-2.0244,-2.0054,-1.9969,-1.9689,-1.9109,-1.8657,-1.8657,-1.9196,-1.9869,-2.0539,-2.1769,-2.27,-2.2848,-2.2253,-2.1599,-2.1131,-2.0862,-2.0743,-2.0767,-2.1669,-2.2481,-2.3058,-2.3108,-2.3584,-2.4687,-2.4775,-2.4934,-2.524,-2.4348,-2.3746,-2.3442,-2.3476,-2.4118,-2.5393,-2.5227,-2.4829,-2.4221,-2.2621,-2.1904,-2.1836,-2.1016,-2.0108,-1.9301,-1.9301,-1.8794,-1.8,-1.8,-1.8,-1.8,-1.8,-1.8,-1.8,-1.8,-1.8,-1.7789,-1.6509,-1.6098,-1.576,-1.3935,-1.295,-1.2283,-1.1821,-1.1196,-1.0613,-1.0613,-1.0613,-1.056,-1.0379,-1.032,-1.0245,-0.9992,-0.99,-0.9933,-0.9884,-0.9884,-0.9884,-0.9884,-0.9884,-0.9884,-0.9884,-0.9884,-0.9884,-0.9884,-0.9884,-0.9884,-0.9884,-0.9884,-0.9884,-0.9884,-0.8808,-0.7732,-0.6842,-0.5654,-0.4654,-0.3841,-0.3846,-0.3891,-0.3891,-0.3891,-0.3891,-0.3891,-0.3849,-0.3853,-0.3899,-0.391,-0.3961,-1.9301,-2.0368,-2.1636,-2.1531,-2.1416,-2.1069,-2.0035,-1.9567,-1.9195,-1.8641,-1.8219,-1.7953,-1.7953,-1.8508,-1.9166,-1.9839,-2.1066,-2.2057,-2.2422,-2.2709,-2.2637,-2.1984,-2.1497,-2.1397,-2.1835,-2.1782,-2.2096,-2.3032,-2.3108,-2.3421,-2.4167,-2.4562,-2.476,-2.4699,-2.4843,-2.4625,-2.4005,-2.4324,-2.488,-2.5626,-2.4925,-2.4713,-2.4882,-2.314,-2.2178,-2.1855,-2.1299,-2.0394,-1.9301,-1.9301,-1.8794,-1.8,-1.8,-1.8,-1.8,-1.8,-1.8,-1.8,-1.8,-1.8,-1.7789,-1.6509,-1.6098,-1.576,-1.3935,-1.295,-1.2283,-1.1821,-1.1313,-1.0896,-1.0896,-1.0896,-1.088,-1.0821,-1.0676,-1.0442,-1.025,-1.0202,-1.0143,-0.996,-0.9884,-0.9884,-0.9884,-0.9884,-0.9884,-0.9884,-0.9884,-0.9884,-0.9884,-0.9884,-0.9884,-0.9884,-0.9884,-0.9884,-0.9884,-0.8808,-0.7732,-0.6842,-0.5654,-0.4654,-0.3841,-0.3824,-0.3837,-0.3837,-0.3837,-0.3837,-0.3837,-0.3842,-0.3877,-0.3903,-0.404,-0.4116,-2.0365,-2.1329,-2.2223,-2.1868,-2.1718,-2.126,-1.9743,-1.9216,-1.8703,-1.7441,-1.7061,-1.6849,-1.6488,-1.7429,-1.8371,-1.8762,-2.0438,-2.1798,-2.2087,-2.2554,-2.2566,-2.1772,-2.1681,-2.1568,-2.1232,-2.182,-2.2272,-2.2397,-2.2832,-2.3459,-2.4318,-2.4625,-2.4909,-2.5097,-2.5055,-2.4518,-2.3534,-2.4016,-2.4496,-2.5061,-2.4904,-2.4863,-2.4829,-2.352,-2.2668,-2.2139,-2.1709,-2.0897,-1.9857,-1.9688,-1.9066,-1.829,-1.808,-1.8,-1.8,-1.8,-1.8,-1.8,-1.8,-1.8,-1.7789,-1.6509,-1.6098,-1.5809,-1.4195,-1.329,-1.2787,-1.2529,-1.1983,-1.1429,-1.1429,-1.1308,-1.1117,-1.1009,-1.0885,-1.0697,-1.0369,-1.0293,-1.0218,-0.997,-0.9884,-0.9884,-0.9884,-0.9884,-0.9884,-0.9884,-0.9884,-0.9884,-0.9884,-0.9884,-0.9884,-0.9884,-0.9884,-0.9884,-0.9884,-0.8808,-0.7808,-0.7153,-0.5931,-0.489,-0.4112,-0.4075,-0.402,-0.3864,-0.3864,-0.3842,-0.3883,-0.3893,-0.394,-0.4022,-0.4167,-0.4237,-2.1637,-2.2243,-2.2251,-2.2073,-2.196,-2.1349,-1.9388,-1.8828,-1.8167,-1.622,-1.5779,-1.5544,-1.494,-1.6248,-1.7504,-1.7667,-1.9809,-2.1505,-2.1778,-2.202,-2.1932,-2.1233,-2.1655,-2.149,-2.0138,-2.1816,-2.2606,-2.1669,-2.2518,-2.3534,-2.4512,-2.4713,-2.5124,-2.5804,-2.4935,-2.3916,-2.2788,-2.3121,-2.3591,-2.4212,-2.4815,-2.4832,-2.4288,-2.3681,-2.3034,-2.2412,-2.2041,-2.1414,-2.057,-2.0179,-1.9471,-1.8642,-1.8178,-1.8,-1.8,-1.8,-1.8,-1.7991,-1.794,-1.7957,-1.7789,-1.6509,-1.6098,-1.585,-1.4503,-1.3779,-1.3398,-1.3398,-1.279,-1.21,-1.2015,-1.1682,-1.1338,-1.1085,-1.1031,-1.0907,-1.0439,-1.0288,-1.018,-0.9965,-0.9884,-0.9884,-0.9884,-0.9884,-0.9884,-0.9884,-0.9884,-0.9884,-0.9884,-0.9884,-0.9884,-0.9884,-0.9884,-0.9884,-0.9884,-0.8808,-0.7927,-0.754,-0.6325,-0.5246,-0.4423,-0.4472,-0.4281,-0.3881,-0.3893,-0.3938,-0.3976,-0.3963,-0.4018,-0.4216,-0.4229,-0.4228,-2.1461,-2.1837,-2.2296,-2.2251,-2.1664,-2.0671,-1.9035,-1.7941,-1.6805,-1.5173,-1.4591,-1.4478,-1.4892,-1.5599,-1.6473,-1.7534,-1.9031,-2.0359,-2.1283,-2.1442,-2.1611,-2.1955,-2.1667,-2.1374,-2.1222,-2.1958,-2.2343,-2.2184,-2.2744,-2.3195,-2.3384,-2.4286,-2.4979,-2.5381,-2.4225,-2.3502,-2.3281,-2.2972,-2.3282,-2.42,-2.3787,-2.3672,-2.3902,-2.3226,-2.2592,-2.1992,-2.1924,-2.1371,-2.0467,-2.0136,-1.9461,-1.8592,-1.8151,-1.8,-1.8,-1.8,-1.8,-1.7948,-1.768,-1.7775,-1.7789,-1.6509,-1.6098,-1.585,-1.4503,-1.3779,-1.3398,-1.3398,-1.3003,-1.2491,-1.21,-1.1929,-1.1752,-1.1338,-1.1241,-1.1112,-1.064,-1.0222,-0.997,-0.9889,-0.9884,-0.9884,-0.9884,-0.9884,-0.9884,-0.9884,-0.9884,-0.9884,-0.9884,-0.9884,-0.9884,-0.9884,-0.9884,-0.9884,-0.9884,-0.8808,-0.7927,-0.754,-0.6325,-0.5246,-0.4423,-0.4401,-0.4217,-0.3826,-0.3861,-0.3908,-0.3924,-0.4059,-0.4185,-0.4218,-0.4244,-0.4285,-2.1752,-2.1752,-2.182,-2.2195,-2.1363,-2.0038,-1.8475,0.0,0.0,-1.4026,-1.3615,-1.3625,-1.3594,-1.4531,-1.5498,-1.6186,-1.7628,-1.9167,-2.0568,-2.0998,-2.1385,-2.2021,-2.2055,-2.1863,-2.1447,-2.2198,-2.2594,-2.2305,-2.2794,-2.3233,-2.3534,-2.4197,-2.4632,-2.4867,-2.3849,-2.3213,-2.3052,-2.28,-2.2788,-2.2983,-2.293,-2.2933,-2.3032,-2.2452,-2.1987,-2.16,-2.1354,-2.0952,-2.049,-2.0094,-1.9561,-1.8861,-1.8473,-1.8162,-1.8,-1.8,-1.8,-1.794,-1.7603,-1.7625,-1.7542,-1.6202,-1.5919,-1.5902,-1.4669,-1.4038,-1.3743,-1.3743,-1.344,-1.2966,-1.2491,-1.2186,-1.1892,-1.1392,-1.1118,-1.0876,-1.0646,-1.0217,-0.9884,-0.9884,-0.9884,-0.9884,-0.9884,-0.9884,-0.9884,-0.9884,-0.9884,-0.9884,-0.9884,-0.9884,-0.9884,-0.9884,-0.9884,-0.9884,-0.9884,-0.8808,-0.8003,-0.7812,-0.6633,-0.5595,-0.4732,-0.4693,-0.4423,-0.3802,-0.3852,-0.3922,-0.3971,-0.4106,-0.4239,-0.4238,-0.4279,-0.43,-2.1904,-2.1752,-2.1546,-2.1955,-2.1028,-1.9601,-1.8062,-1.6892,-1.5509,-1.3229,-1.2955,-1.303,-1.2624,-1.3612,-1.4643,-1.5131,-1.6532,-1.8127,-1.9847,-2.0619,-2.1198,-2.1709,-2.2214,-2.2207,-2.138,-2.2287,-2.2744,-2.2347,-2.2794,-2.3328,-2.3873,-2.3954,-2.411,-2.4391,-2.3541,-2.2979,-2.2719,-2.257,-2.2317,-2.1906,-2.2274,-2.2373,-2.2259,-2.1739,-2.1398,-2.1207,-2.0624,-2.0356,-2.0333,-1.9864,-1.9412,-1.9035,-1.8618,-1.8288,-1.7991,-1.7906,-1.7871,-1.7812,-1.7428,-1.7317,-1.7174,-1.5882,-1.5702,-1.5789,-1.4712,-1.4269,-1.4088,-1.4088,-1.3828,-1.3434,-1.2833,-1.2448,-1.202,-1.1435,-1.0941,-1.0597,-1.0597,-1.0217,-0.9884,-0.9884,-0.9884,-0.9884,-0.9884,-0.9884,-0.9884,-0.9884,-0.9884,-0.9884,-0.9884,-0.9884,-0.9884,-0.9884,-0.9884,-0.9841,-0.9728,-0.8732,-0.8046,-0.7931,-0.6821,-0.5817,-0.5043,-0.4975,-0.4599,-0.3833,-0.3901,-0.3993,-0.4023,-0.4157,-0.4234,-0.43,-0.43,-0.43,-2.1275,-2.1735,-2.2057,-2.1461,-2.0653,-1.9601,-1.8062,0.0,-1.4913,-1.3219,-1.2771,-1.2813,-1.3305,-1.3421,-1.398,-1.5643,-1.6559,-1.7617,-1.9177,-2.0327,-2.1019,-2.1077,-2.1567,-2.1732,-2.1341,-2.196,-2.2343,-2.2309,-2.2794,-2.3237,-2.3515,-2.3227,-2.3353,-2.4013,-2.3212,-2.2719,-2.2719,-2.2226,-2.194,-2.1894,-2.1953,-2.1925,-2.1834,-2.1306,-2.0953,-2.072,-1.9868,-1.967,-1.9897,-1.9205,-1.8804,-1.8637,-1.822,-1.8025,-1.7957,-1.7646,-1.7557,-1.7462,-1.6733,-1.6716,-1.6796,-1.576,-1.5466,-1.5378,-1.4427,-1.4104,-1.4088,-1.4088,-1.4088,-1.3828,-1.2918,-1.2662,-1.2406,-1.1516,-1.0941,-1.0597,-1.0597,-1.0217,-0.9884,-0.9884,-0.9884,-0.9884,-0.9884,-0.9884,-0.9884,-0.9884,-0.9884,-0.9884,-0.9884,-0.9884,-0.9884,-0.9884,-0.9884,-0.969,-0.9117,-0.8466,-0.7859,-0.7334,-0.6376,-0.5598,-0.5007,-0.4814,-0.4463,-0.3887,-0.4059,-0.4196,-0.4204,-0.4244,-0.4291,-0.43,-0.43,-0.43,-2.1217,-2.141,-2.158,-2.1275,-1.9925,-1.8397,-1.7338,-1.5821,-1.4321,-1.3246,-1.2799,-1.2693,-1.3011,-1.2868,-1.3237,-1.4887,-1.518,-1.5985,-1.8261,-1.9066,-1.9807,-2.0877,-2.1476,-2.1897,-2.2102,-2.245,-2.2696,-2.2786,-2.2982,-2.3087,-2.3028,-2.2686,-2.2663,-2.3026,-2.2819,-2.2719,-2.2719,-2.2754,-2.2502,-2.1894,-2.1574,-2.1429,-2.1394,-2.0215,-1.9809,-1.9962,-1.8771,-1.8452,-1.8718,-1.8214,-1.7982,-1.7943,-1.7749,-1.7697,-1.7655,-1.7278,-1.7278,-1.7402,-1.6647,-1.6263,-1.591,-1.5122,-1.4623,-1.4365,-1.4354,-1.4104,-1.378,-1.378,-1.378,-1.3568,-1.2482,-1.1933,-1.1548,-1.0992,-1.0737,-1.056,-1.046,-1.0159,-0.9884,-0.9884,-0.9884,-0.9884,-0.9884,-0.9884,-0.9884,-0.9884,-0.9884,-0.9884,-0.9884,-0.9884,-0.9884,-0.9884,-0.9884,-0.9652,-0.9041,-0.8461,-0.7859,-0.7219,-0.6307,-0.5562,-0.5073,-0.4828,-0.4476,-0.3983,-0.4108,-0.4216,-0.4216,-0.4259,-0.43,-0.43,-0.43,-0.43,-2.0577,-2.0721,-2.0866,-2.0594,-1.9299,-1.7879,-1.6908,-1.5597,-1.4295,-1.3309,-1.2846,-1.2665,-1.2782,-1.2581,-1.2806,-1.4069,-1.4338,-1.518,-1.7441,-1.8293,-1.92,-2.0628,-2.1248,-2.1821,-2.2457,-2.2799,-2.2992,-2.31,-2.3108,-2.2927,-2.2555,-2.2321,-2.2269,-2.2394,-2.2611,-2.2719,-2.2719,-2.3155,-2.2972,-2.2112,-2.1587,-2.136,-2.1355,-1.9911,-1.9396,-1.9527,-1.8266,-1.7756,-1.7834,-1.7476,-1.7316,-1.7304,-1.7304,-1.7304,-1.7261,-1.6884,-1.691,-1.7085,-1.645,-1.5928,-1.5471,-1.4746,-1.4156,-1.3787,-1.4036,-1.383,-1.3473,-1.3473,-1.3311,-1.2894,-1.2095,-1.1409,-1.0837,-1.063,-1.0544,-1.0453,-1.0331,-1.01,-0.9884,-0.9884,-0.9884,-0.9884,-0.9884,-0.9884,-0.9884,-0.9884,-0.9884,-0.9884,-0.9884,-0.9884,-0.9884,-0.9884,-0.9884,-0.9652,-0.9041,-0.8618,-0.805,-0.7257,-0.6386,-0.5666,-0.5103,-0.4758,-0.4413,-0.4075,-0.4165,-0.421,-0.421,-0.4269,-0.43,-0.43,-0.43,-0.4314,-1.9005,-1.9602,-2.0096,-1.9161,-1.8922,-1.8488,-1.7027,-1.6069,-1.5027,-1.3427,-1.2894,-1.2728,-1.2785,-1.2684,-1.2796,-1.341,-1.4506,-1.5697,-1.6847,-1.8333,-1.953,-2.0235,-2.0727,-2.1285,-2.202,-2.2716,-2.3095,-2.3108,-2.3108,-2.2836,-2.2259,-2.2197,-2.2269,-2.2394,-2.2611,-2.2719,-2.2719,-2.3155,-2.3155,-2.2696,-2.2168,-2.1894,-2.1871,-2.0848,-2.0118,-1.9539,-1.8586,-1.7912,-1.7468,-1.7072,-1.6909,-1.6927,-1.6927,-1.6927,-1.6876,-1.6445,-1.6353,-1.6347,-1.5934,-1.5805,-1.5644,-1.478,-1.4332,-1.3975,-1.3377,-1.3213,-1.3213,-1.3213,-1.2571,-1.1926,-1.188,-1.1243,-1.0597,-1.0597,-1.046,-1.0299,-1.0293,-1.01,-0.9884,-0.9884,-0.9884,-0.9884,-0.9884,-0.9884,-0.9884,-0.9884,-0.9884,-0.9884,-0.9884,-0.9884,-0.9884,-0.9884,-0.9884,-0.9652,-0.9041,-0.8998,-0.847,-0.7257,-0.6501,-0.578,-0.5143,-0.4535,-0.4214,-0.4214,-0.4255,-0.4297,-0.4297,-0.43,-0.43,-0.43,-0.43,-0.4346,-1.7605,-1.8347,-1.9032,-1.7715,-1.7027,-1.639,-1.5426,-1.4532,-1.3725,-1.3043,-1.2862,-1.2804,-1.2684,-1.2703,-1.3289,-1.4942,-1.5266,-1.5933,-1.7773,-1.8755,-1.9507,-2.0021,-2.0959,-2.1809,-2.2444,-2.2544,-2.2706,-2.3083,-2.3108,-2.3017,-2.2836,-2.2432,-2.2008,-2.158,-2.1958,-2.2329,-2.2719,-2.3155,-2.3327,-2.3167,-2.3006,-2.2742,-2.2387,-2.0985,-2.0253,-1.9974,-1.8422,-1.7492,-1.7057,-1.6669,-1.6358,-1.6156,-1.6156,-1.6302,-1.6436,-1.6105,-1.6131,-1.6285,-1.5925,-1.5541,-1.515,-1.486,-1.417,-1.3448,-1.325,-1.3082,-1.2931,-1.2931,-1.2165,-1.1365,-1.1365,-1.089,-1.0358,-1.0186,-1.0223,-1.025,-1.0078,-0.9976,-0.9884,-0.9884,-0.9884,-0.9884,-0.9884,-0.9884,-0.9884,-0.9884,-0.9884,-0.9884,-0.9884,-0.9884,-0.9884,-0.9884,-0.9884,-0.9652,-0.9041,-0.871,-0.8169,-0.7387,-0.6309,-0.56,-0.5392,-0.4674,-0.4259,-0.4259,-0.4285,-0.43,-0.43,-0.43,-0.43,-0.43,-0.43,-0.4381,-1.6397,-1.6984,-1.7492,-1.654,-1.5944,-1.5409,-1.4673,-1.4079,-1.3544,-1.3019,-1.2889,-1.2815,-1.2703,-1.2639,-1.3085,-1.4551,-1.4798,-1.5437,-1.7265,-1.8348,-1.9378,-2.0477,-2.1189,-2.1859,-2.2618,-2.2452,-2.2506,-2.3058,-2.3108,-2.3047,-2.2939,-2.2463,-2.1968,-2.1411,-2.1717,-2.2043,-2.2386,-2.2903,-2.3212,-2.3407,-2.2991,-2.2843,-2.2914,-2.1285,-2.0541,-2.0485,-1.8889,-1.7785,0.0,-1.6696,-1.6236,-1.5805,-1.5805,-1.5934,-1.6105,-1.5882,-1.5942,-1.606,-1.5882,-1.5541,-1.5204,-1.4974,-1.4122,-1.3156,-1.2936,-1.2729,-1.2616,-1.2616,-1.1877,-1.1111,-1.1111,-1.0638,-1.0116,-0.996,-1.004,-1.011,-0.9954,-0.9884,-0.9884,-0.9884,-0.9884,-0.9884,-0.9884,-0.9884,-0.9884,-0.9884,-0.9884,-0.9884,-0.9884,-0.9884,-0.9884,-0.9884,-1.0003,-0.9903,-0.952,-0.9213,-0.8727,-0.7958,-0.6971,-0.6178,-0.5505,-0.4879,-0.4442,-0.4297,-0.43,-0.43,-0.43,-0.43,-0.43,-0.43,-0.43,-0.4398,0.0,-1.5568,-1.567,-1.5491,-1.5443,-1.5257,-1.4571,-1.4419,0.0,-1.3252,-1.2942,-1.2832,-1.2915,-1.2615,-1.2522,-1.3057,-1.3718,-1.4612,-1.5938,-1.7541,-1.9347,-2.1412,-2.1364,-2.1584,-2.2605,-2.2413,-2.2468,-2.3058,-2.3108,-2.2987,-2.2739,-2.2402,-2.2061,-2.1757,-2.1811,-2.186,-2.1894,-2.2386,-2.288,-2.335,-2.2303,-2.2337,-2.3279,-2.1601,-2.0903,-2.0914,-1.9827,-1.8653,-1.7496,-1.7099,-1.6498,-1.5882,-1.5882,-1.5882,-1.5882,-1.5848,-1.584,-1.584,-1.5814,-1.5805,-1.5691,-1.5054,-1.4122,-1.3156,-1.2489,-1.2305,-1.2305,-1.2305,-1.1706,-1.1111,-1.1111,-1.0513,-0.9884,-0.9884,-0.9884,-0.9884,-0.9884,-0.9884,-0.9884,-0.9884,-0.9884,-0.9884,-0.9884,-0.9884,-0.9884,-0.9884,-0.9884,-0.9884,-0.9884,-0.9884,-0.9927,-0.9906,-1.0153,-1.0309,-1.0342,-1.0302,-0.9831,-0.8837,-0.8234,-0.7233,-0.5642,-0.5132,-0.4699,-0.4297,-0.43,-0.43,-0.43,-0.43,-0.43,-0.43,-0.43,-0.4398,-1.3998,0.0,-1.466,-1.4074,-1.3921,-1.3862,0.0,-1.3659,-1.3505,-1.2977,-1.2961,-1.3284,-1.4101,-1.339,-1.355,-1.6202,-1.609,-1.6304,-1.8113,-1.9538,-2.08,-2.1928,-2.1445,-2.1484,-2.2578,-2.2095,-2.2083,-2.3032,-2.3108,-2.3078,-2.3017,-2.2482,-2.2154,-2.2092,-2.1634,-2.1537,-2.1894,-2.202,-2.2363,-2.2857,-2.2205,-2.2186,-2.2666,-2.1083,-2.0535,-2.075,-1.9451,-1.8525,-1.7944,-1.7519,-1.7066,-1.6653,-1.6653,-1.6653,-1.6619,-1.6364,-1.6216,-1.6129,-1.5899,-1.5805,-1.562,-1.4633,-1.4129,-1.3695,-1.2629,-1.2305,-1.2305,-1.2305,-1.1706,-1.1111,-1.1111,-1.0513,-0.9884,-0.9884,-0.9884,-0.9884,-0.9884,-0.9884,-0.9884,-0.9884,-0.9884,-0.9884,-0.9884,-0.9884,-0.9884,-0.9884,-0.9884,-0.9884,-0.9884,-0.9884,-0.9997,-1.0186,-1.0261,-1.0439,-1.0789,-1.0326,-0.989,-0.9647,-0.8033,-0.691,-0.6511,-0.5149,-0.441,-0.43,-0.43,-0.43,-0.43,-0.43,-0.43,-0.43,-0.43,-0.4398,-1.3613,-1.4033,-1.4402,-1.4005,-1.3904,-1.3904,-1.3904,-1.3642,-1.332,-1.3006,0.0,-1.324,-1.3663,-1.3595,-1.4076,-1.5905,-1.6325,-1.7182,-1.9356,-2.0601,-2.1556,-2.2303,-2.1551,-2.1327,-2.2193,-2.1812,-2.1845,-2.2656,-2.2957,-2.3108,-2.3108,-2.2665,-2.234,-2.2197,-2.1706,-2.1487,-2.1571,-2.1342,-2.1479,-2.2017,-2.1174,-2.1085,-2.1539,-2.0135,-1.9869,-2.0435,-1.9008,-1.8369,-1.8338,-1.774,-1.7263,-1.688,-1.688,-1.688,-1.6876,-1.6527,-1.6345,-1.624,-1.5925,-1.5611,-1.5248,-1.4382,-1.3912,-1.3513,-1.2592,-1.2305,-1.2305,-1.2305,-1.1706,-1.1111,-1.1111,-1.0513,-0.9884,-0.9884,-0.9884,-0.9884,-0.9884,-0.9884,-0.9884,-0.9884,-0.9884,-0.9884,-0.9884,-0.9884,-0.9884,-0.9884,-0.9884,-0.9884,-0.9884,-1.0019,-1.0143,-1.0277,-1.0482,-1.0713,-1.0966,-1.071,-1.0426,-1.008,-0.87,-0.7566,-0.682,-0.5586,-0.4743,-0.43,-0.43,-0.43,-0.43,-0.43,-0.43,-0.43,-0.43,-0.4375,-1.3821,-1.4247,-1.4605,-1.4385,-1.4494,-1.4611,-1.451,0.0,0.0,0.0,0.0,-1.3233,-1.3319,-1.3861,-1.4497,-1.5092,-1.6379,-1.806,-2.023,-2.118,-2.1871,-2.246,-2.1684,-2.1269,-2.1754,-2.1596,-2.1678,-2.2146,-2.2594,-2.2857,-2.2857,-2.254,-2.225,-2.1976,-2.1583,-2.1276,-2.1075,-2.0699,-2.0745,-2.119,-2.0048,-1.9818,-2.0324,-1.9147,-1.9063,-1.9818,-1.8544,-1.8226,-1.8561,-1.7839,-1.7372,-1.7051,-1.7051,-1.7051,-1.7038,-1.6639,-1.643,-1.6325,-1.5951,-1.539,-1.4796,-1.4266,-1.3695,-1.3083,-1.2489,-1.2305,-1.2298,-1.2224,-1.1669,-1.1074,-1.1037,-1.0475,-0.9884,-0.9884,-0.9884,-0.9884,-0.9884,-0.9884,-0.9884,-0.9884,-0.9884,-0.9884,-0.9884,-0.9884,-0.9884,-0.9884,-0.9884,-0.9895,-0.997,-1.0164,-1.032,-1.039,-1.0751,-1.0999,-1.1036,-1.1187,-1.1046,-1.0467,-0.9584,-0.8309,-0.6599,-0.5938,-0.5186,-0.43,-0.43,-0.43,-0.43,-0.43,-0.43,-0.43,-0.43,-0.4355,-1.4383,-1.4971,-1.5122,-1.3879,-1.4422,-1.5101,-1.4462,-1.4645,0.0,0.0,0.0,0.0,0.0,-1.5357,-1.5376,-1.8666,-1.9703,-2.0446,-2.1516,-2.1772,-2.1959,-2.2216,-2.1817,-2.1578,-2.178,-2.1511,-2.1409,-2.1597,-2.1694,-2.1744,-2.1744,-2.1219,-2.0902,-2.0844,-2.0311,-2.0174,-2.0527,-2.0902,-2.1121,-2.119,-2.01,-1.9648,-1.9693,-1.8618,-1.8204,-1.8404,-1.8137,-1.8066,-1.8193,-1.8016,-1.788,-1.7829,-1.7829,-1.7829,-1.7743,-1.709,-1.6833,-1.6693,-1.6036,-1.539,-1.4796,-1.4266,-1.3695,-1.3083,-1.2489,-1.2305,-1.2224,-1.1892,-1.1446,-1.1037,-1.0663,-1.0255,-0.9884,-0.9884,-0.9884,-0.9884,-0.9884,-0.9884,-0.9884,-0.9884,-0.9884,-0.9884,-0.9884,-0.9884,-0.9884,-0.9884,-0.9884,-0.9997,-1.0213,-1.0272,-1.0444,-1.0837,-1.0939,-1.1069,-1.1236,-1.1284,-1.1262,-1.1132,-0.954,-0.7603,-0.5364,-0.5186,-0.4832,-0.43,-0.43,-0.43,-0.43,-0.43,-0.43,-0.43,-0.43,-0.4389,-1.3988,-1.4771,-1.5227,-1.4159,-1.496,-1.5796,-1.5011,-1.5033,0.0,0.0,0.0,0.0,0.0,-1.5918,-1.6739,-1.9726,-2.0965,-2.1645,-2.1859,-2.1928,-2.2076,-2.2388,-2.1732,-2.1296,-2.1366,-2.1341,-2.1233,-2.1083,-2.1358,-2.1437,-2.1285,-2.1031,-2.0717,-2.0384,-2.0117,-2.0097,-2.04,-2.0641,-2.0756,-2.0745,-2.0007,-1.9516,-1.9248,-1.848,-1.8106,-1.8118,-1.7571,-1.7631,-1.8068,-1.7812,-1.7852,-1.8,-1.8,-1.8,-1.7906,-1.7154,-1.6744,-1.6513,-1.6208,-1.5369,-1.4441,-1.4381,-1.3623,-1.2673,-1.2378,-1.2305,-1.215,-1.1558,-1.1223,-1.0999,-1.0594,-1.0218,-0.9884,-0.9884,-0.9884,-0.9884,-0.9884,-0.9884,-0.9884,-0.9884,-0.9884,-0.9884,-0.9884,-0.9884,-0.9965,-1.01,-1.0121,-1.0207,-1.0449,-1.0589,-1.0746,-1.0961,-1.1101,-1.1182,-1.13,-1.1305,-1.1132,-1.0776,-0.9096,-0.7471,-0.6027,-0.5097,-0.452,-0.43,-0.43,-0.43,-0.43,-0.43,-0.43,-0.43,-0.43,-0.4371,-1.3724,-1.4563,-1.5295,-1.4701,0.0,-1.6525,-1.5896,-1.5769,-1.5699,0.0,0.0,0.0,-1.5569,-1.6864,-1.8457,-2.0253,-2.1448,-2.2112,-2.1952,-2.1884,-2.1959,-2.2194,-2.1503,-2.0968,-2.087,-2.1002,-2.0912,-2.0517,-2.088,-2.1009,-2.0804,-2.0677,-2.0398,-1.9942,-1.9771,-1.9814,-2.0056,-2.0182,-2.0354,-2.0584,-2.009,-1.9539,-1.8962,-1.8446,-1.807,-1.7832,-1.712,-1.718,-1.7784,-1.7497,-1.7518,-1.7735,-1.7735,-1.7735,-1.7675,-1.7227,-1.6747,-1.6308,-1.6402,-1.545,-1.4254,-1.4514,-1.3656,-1.2505,-1.2425,-1.2368,-1.2144,-1.1427,-1.1085,-1.085,-1.0475,-1.0143,-0.9884,-0.9884,-0.9884,-0.9884,-0.9884,-0.9884,-0.9884,-0.9884,-0.9884,-0.9884,-0.9884,-0.9884,-1.0008,-1.0256,-1.0293,-1.0396,-1.0681,-1.0875,-1.1004,-1.1063,-1.1193,-1.1305,-1.1305,-1.1305,-1.1084,-1.0559,-0.8917,-0.7599,-0.682,-0.5317,-0.4431,-0.43,-0.43,-0.43,-0.43,-0.43,-0.431,-0.433,-0.433,-0.4391,-1.4296,-1.4994,-1.5529,-1.5288,-1.6243,-1.7207,-1.7093,-1.7303,0.0,-1.7335,0.0,0.0,-1.7328,-1.9106,-2.0601,-2.1152,-2.1517,-2.1783,-2.1983,-2.168,-2.1345,-2.114,-2.1042,-2.0845,-2.0498,-2.0461,-2.0309,-1.9899,-1.9899,-1.9924,-1.9885,-1.9413,-1.9134,-1.908,-1.8542,-1.8495,-1.9,-1.9493,-2.0205,-2.1132,-2.0595,-1.984,-1.888,-1.8412,-1.7706,-1.6902,-1.6837,-1.6865,-1.6988,-1.6957,-1.6978,-1.6966,-1.6966,-1.6966,-1.7038,-1.7321,-1.6961,-1.6351,-1.671,-1.5826,-1.4485,-1.4553,-1.3928,-1.3093,-1.2837,-1.2483,-1.2139,-1.1672,-1.1076,-1.0443,-1.0067,-0.9916,-0.9884,-0.9884,-0.9884,-0.9884,-0.9884,-0.9884,-0.9884,-0.9884,-0.9884,-0.9884,-0.9884,-0.9884,-1.0008,-1.0256,-1.0293,-1.0455,-1.0902,-1.0972,-1.1069,-1.1257,-1.1295,-1.1305,-1.1305,-1.1305,-1.1262,-1.1219,-0.9492,-0.7958,-0.6868,-0.563,-0.4743,-0.43,-0.43,-0.43,-0.43,-0.43,-0.4342,-0.438,-0.438,-0.4473,-1.3795,-1.4635,-1.5339,-1.4712,-1.5918,0.0,0.0,-1.6783,-1.6649,-1.7354,-1.7095,-1.706,-1.8122,-1.9612,-2.0797,-2.1073,-2.1291,-2.153,-2.171,-2.1202,-2.082,-2.0993,-2.0771,-2.056,-2.0422,-2.0397,-2.0245,-1.9824,-1.9798,-1.9734,-1.9565,-1.9198,-1.8907,-1.8747,-1.8329,-1.8352,-1.8885,-1.9091,-1.97,-2.0699,-2.0845,-2.0714,-2.0301,-1.9468,-1.864,-1.7811,-1.717,-1.6776,-1.6572,-1.6536,-1.6513,-1.6513,-1.6559,-1.6888,-1.7252,-1.7158,-1.709,-1.7055,-1.7209,-1.6201,-1.4904,-1.5149,-1.4313,-1.3186,-1.3073,-1.2752,-1.2283,-1.1752,-1.1174,-1.0609,-1.0035,-0.9884,-0.9884,-0.9884,-0.9884,-0.9884,-0.9884,-0.9884,-0.9884,-0.9884,-0.9884,-0.9884,-0.9884,-0.9884,-1.0008,-1.0256,-1.0417,-1.0622,-1.0945,-1.1117,-1.1203,-1.1295,-1.1305,-1.1305,-1.1305,-1.1305,-1.1305,-1.1305,-0.998,-0.8655,-0.7471,-0.6287,-0.523,-0.43,-0.43,-0.43,-0.43,-0.43,-0.4316,-0.4351,-0.4364,-0.4502,-1.3795,-1.4761,-1.5647,-1.4957,0.0,0.0,-1.7291,-1.6763,-1.6509,-1.7488,-1.7485,-1.7575,-1.8542,-1.9447,-2.0272,-2.0892,-2.0898,-2.0968,-2.1359,-2.0709,-2.0308,-2.0597,-2.0384,-2.022,-2.022,-2.022,-2.0105,-1.9824,-1.9798,-1.9734,-1.9539,-1.9277,-1.8987,-1.8721,-1.8425,-1.8382,-1.8655,-1.8816,-1.9241,-1.9941,-2.0607,-2.0946,-2.0924,-2.0183,-1.932,-1.8375,-1.751,-1.6845,-1.6354,-1.6201,-1.6052,-1.5958,-1.6122,-1.6527,-1.6973,-1.6927,-1.7081,-1.7329,-1.7569,-1.6576,-1.5263,-1.5516,-1.4637,-1.3467,-1.338,-1.2939,-1.2373,-1.1976,-1.1302,-1.0601,-1.016,-0.9981,-0.9884,-0.9884,-0.9884,-0.9884,-0.9884,-0.9884,-0.9884,-0.9884,-0.9884,-0.9884,-0.9884,-0.9884,-1.003,-1.0353,-1.0495,-1.0705,-1.1058,-1.1203,-1.1305,-1.1305,-1.1305,-1.1305,-1.1305,-1.1305,-1.1305,-1.1305,-1.0376,-0.9226,-0.7859,-0.6725,-0.5536,-0.4344,-0.43,-0.43,-0.43,-0.43,-0.4328,-0.4387,-0.4449,-0.4542,-1.4542,-1.5561,-1.6619,-1.6354,0.0,0.0,-1.7657,-1.7581,-1.7524,-1.7992,-1.7893,-1.7908,-1.8583,-1.8685,-1.92,-2.0747,-2.0302,-2.008,-2.0868,-2.0295,-1.9798,-1.9798,-1.9798,-1.9798,-1.9798,-1.9798,-1.9798,-1.9798,-1.9798,-1.9798,-1.9798,-1.9539,-1.9289,-1.9013,-1.8747,-1.8425,-1.8084,-1.8644,-1.8885,-1.8908,-1.9918,-2.0361,-2.0387,-2.0399,-1.9595,-1.8172,-1.7842,-1.7166,-1.6272,-1.5929,-1.5566,-1.5223,-1.5643,-1.5797,-1.5891,-1.6636,-1.6872,-1.6983,-1.7726,-1.6895,-1.5521,-1.5593,-1.4933,-1.4035,-1.3693,-1.3026,-1.2407,-1.2407,-1.1387,-1.0299,-1.0299,-1.011,-0.9884,-0.9922,-0.9884,-0.9922,-0.9922,-0.9922,-0.9922,-0.9889,-0.9927,-0.9889,-0.9922,-0.9922,-1.0045,-1.0522,-1.0597,-1.0769,-1.1246,-1.1305,-1.1305,-1.1305,-1.1305,-1.1305,-1.1305,-1.1305,-1.1305,-1.1305,-1.0689,-0.954,-0.7859,-0.6725,-0.5539,-0.4344,-0.43,-0.43,-0.43,-0.43,-0.4391,-0.4619,-0.4619,-0.4665,-1.427,-1.4445,-1.4577,-1.539,0.0,0.0,0.0,-1.6241,0.0,0.0,-1.7417,-1.7908,-1.8583,-1.8968,-1.9365,-1.9861,-1.9391,-1.9199,-1.9911,-1.9569,-1.9397,-1.9761,-1.9798,-1.9798,-1.9798,-1.9798,-1.9798,-1.9798,-1.9798,-1.9798,-1.9798,-1.9539,-1.9289,-1.9013,-1.8747,-1.8425,-1.8084,-1.826,-1.8373,-1.8411,-1.8713,-1.9193,-1.9868,-2.0232,-1.9464,-1.7842,-1.774,-1.7028,-1.5912,-1.5532,-1.548,-1.5583,-1.5172,-1.5334,-1.5797,-1.5745,-1.6054,-1.6622,-1.7081,-1.648,-1.5566,-1.5868,-1.5114,-1.4075,-1.3981,-1.3313,-1.2596,-1.2456,-1.1629,-1.074,-1.0579,-1.0358,-1.0137,-0.9965,-1.0056,-1.018,-1.018,-1.018,-1.0229,-1.0351,-1.0383,-1.0335,-1.0213,-1.018,-1.0229,-1.0374,-1.0495,-1.0769,-1.1246,-1.1305,-1.1305,-1.1305,-1.1305,-1.1305,-1.1305,-1.1305,-1.1305,-1.1305,-1.1132,-1.0197,-0.8388,-0.7214,-0.6024,-0.4832,-0.4478,-0.43,-0.43,-0.43,-0.4328,-0.4383,-0.4512,-0.46,-1.4642,-1.4787,-1.4841,-1.5487,-1.6138,-1.6527,-1.6313,-1.6271,-1.6352,-1.6637,-1.7025,-1.7503,-1.8177,-1.8352,-1.8567,-1.9061,-1.8755,-1.8702,-1.9495,-1.9253,-1.9196,-1.9748,-1.9798,-1.9798,-1.9798,-1.9798,-1.9798,-1.9798,-1.9798,-1.9798,-1.9798,-1.9539,-1.9289,-1.9013,-1.8747,-1.8425,-1.8084,-1.8084,-1.8123,-1.8148,-1.8207,-1.839,-1.8748,-1.931,-1.8721,-1.7206,-1.6874,-1.6275,-1.5566,-1.548,-1.5497,-1.5506,-1.4915,-1.4958,-1.5326,-1.5086,-1.5386,-1.5987,-1.6345,-1.5937,-1.5313,-1.5543,-1.495,-1.4088,-1.4088,-1.344,-1.2674,-1.256,-1.1771,-1.095,-1.081,-1.067,-1.0509,-1.0222,-1.025,-1.032,-1.0412,-1.0433,-1.0471,-1.0571,-1.0522,-1.0455,-1.0315,-1.0213,-1.018,-1.0277,-1.0487,-1.0731,-1.1112,-1.116,-1.1198,-1.1295,-1.1305,-1.1305,-1.1305,-1.1305,-1.1305,-1.1305,-1.1041,-1.0381,-0.9274,-0.7914,-0.6508,-0.5008,-0.452,-0.43,-0.43,-0.43,-0.4318,-0.4357,-0.4504,-0.4591,-1.5245,-1.5885,-1.6336,-1.6208,-1.6818,-1.7477,-1.7527,-1.71,-1.6681,-1.6637,-1.6651,-1.6891,-1.7488,-1.7271,-1.7323,-1.8309,-1.8269,-1.8438,-1.927,-1.9127,-1.9121,-1.9673,-1.9773,-1.9798,-1.9798,-1.9798,-1.9798,-1.9798,-1.9798,-1.9798,-1.9798,-1.9539,-1.9289,-1.9013,-1.8747,-1.8425,-1.8084,-1.8057,-1.803,-1.7975,-1.8007,-1.7727,-1.721,-1.7945,-1.7616,-1.6414,-1.5535,-1.5163,-1.5197,-1.5583,-1.554,-1.518,-1.4855,-1.4718,-1.4717,-1.4649,-1.4829,-1.5138,-1.5487,-1.5267,-1.4758,-1.478,-1.4448,-1.4015,-1.4041,-1.3464,-1.2747,-1.2705,-1.1939,-1.1098,-1.1057,-1.0999,-1.0939,-1.0705,-1.0525,-1.0412,-1.0581,-1.063,-1.063,-1.063,-1.0498,-1.0342,-1.0304,-1.0105,-1.003,-1.0261,-1.0487,-1.0672,-1.0923,-1.0966,-1.1069,-1.1252,-1.1295,-1.1305,-1.1305,-1.1305,-1.1305,-1.1305,-1.0733,-1.0381,-1.0294,-0.8655,-0.6939,-0.5186,-0.4654,-0.4342,-0.43,-0.43,-0.4342,-0.4378,-0.4526,-0.4616,-1.4368,-1.467,-1.4862,-1.5805,-1.6623,-1.7012,-1.6367,-1.6458,-1.6577,-1.6084,-1.6368,-1.6741,-1.6891,-1.7426,-1.7745,-1.7473,-1.7564,-1.7702,-1.7854,-1.815,-1.8556,-1.9108,-1.9547,-1.9798,-1.9798,-1.9798,-1.9798,-1.9798,-1.9798,-1.9798,-1.9798,-1.9539,-1.9289,-1.9013,-1.8747,-1.8425,-1.8084,-1.7783,-1.7451,-1.7088,-1.6732,-1.6199,-1.5566,-1.7194,-1.7255,-1.6059,-1.5195,-1.4804,-1.4821,-1.5189,-1.5292,-1.5206,-1.5129,-1.4932,-1.4649,-1.4341,-1.4273,-1.4328,-1.4305,-1.4085,-1.3807,-1.3917,-1.3705,-1.344,-1.3626,-1.3477,-1.3179,-1.279,-1.2279,-1.1685,-1.1311,-1.1128,-1.102,-1.1123,-1.1015,-1.0848,-1.0896,-1.0907,-1.0907,-1.0907,-1.0869,-1.0719,-1.0358,-1.025,-1.0229,-1.0288,-1.0487,-1.0613,-1.0662,-1.0869,-1.1004,-1.1058,-1.1193,-1.1305,-1.1305,-1.1305,-1.1305,-1.1305,-1.1176,-1.0868,-1.0337,-0.8536,-0.7217,-0.6425,-0.5364,-0.4654,-0.43,-0.43,-0.431,-0.4332,-0.4496,-0.4631,-1.4467,-1.4548,-1.4345,-1.5404,-1.6149,-1.6649,-1.6698,-1.6488,-1.6249,-1.6248,-1.6263,-1.6263,-1.6263,-1.6642,-1.6888,-1.6652,-1.6743,-1.697,-1.7352,-1.7626,-1.8016,-1.8544,-1.9083,-1.9409,-1.9409,-1.9409,-1.9409,-1.9409,-1.9183,-1.9032,-1.9032,-1.8771,-1.8642,-1.8628,-1.8327,-1.8165,-1.8111,-1.7893,-1.7562,-1.7145,-1.6666,-1.5855,-1.4793,-1.5598,-1.5638,-1.5031,-1.4594,-1.4401,-1.4444,-1.4992,-1.5215,-1.5215,-1.5215,-1.5103,-1.4889,-1.4512,-1.4256,-1.4087,-1.4027,-1.366,-1.3218,-1.3282,-1.317,-1.3046,-1.3347,-1.3307,-1.3136,-1.2796,-1.2357,-1.1892,-1.1435,-1.1214,-1.115,-1.1278,-1.116,-1.1015,-1.1133,-1.116,-1.116,-1.116,-1.0972,-1.074,-1.0498,-1.0266,-1.0116,-1.0116,-1.0218,-1.0297,-1.0455,-1.0676,-1.0859,-1.0972,-1.116,-1.1305,-1.1305,-1.1305,-1.1305,-1.1305,-1.1305,-1.0997,-1.0337,-0.9371,-0.8185,-0.682,-0.563,-0.4788,-0.43,-0.43,-0.432,-0.4367,-0.4508,-0.4596,-1.426,-1.4271,-1.4061,-1.5168,-1.5752,-1.6271,-1.7163,-1.6637,-1.6099,-1.6607,-1.6219,-1.5784,-1.5755,-1.5776,-1.5831,-1.5903,-1.607,-1.6404,-1.7027,-1.7285,-1.7551,-1.8003,-1.8531,-1.8857,-1.8857,-1.8857,-1.8857,-1.8857,-1.8419,-1.8133,-1.8133,-1.7834,-1.7763,-1.801,-1.7692,-1.7653,-1.7974,-1.7904,-1.7747,-1.7496,-1.6881,-1.5874,-1.4499,-1.4151,-1.398,-1.3907,-1.3986,-1.399,-1.405,-1.4735,-1.506,-1.5129,-1.5189,-1.5215,-1.518,-1.4881,-1.453,-1.4187,-1.4024,-1.3478,-1.284,-1.2792,-1.2735,-1.271,-1.3086,-1.3172,-1.3042,-1.2759,-1.24,-1.1977,-1.1429,-1.1305,-1.1305,-1.1305,-1.1155,-1.1101,-1.1262,-1.1305,-1.1295,-1.1252,-1.0892,-1.0581,-1.0544,-1.0245,-0.997,-0.9927,-0.9884,-0.9997,-1.0202,-1.0466,-1.0672,-1.0902,-1.1139,-1.1305,-1.1305,-1.1305,-1.1305,-1.1305,-1.1305,-1.1041,-1.0516,-1.025,-0.9148,-0.7126,-0.5938,-0.5008,-0.4431,-0.4342,-0.4346,-0.439,-0.4528,-0.4622,-1.1686,0.0,-1.3173,-1.5424,-1.5908,-1.5872,-1.6023,-1.6338,-1.6607,-1.6681,-1.6219,-1.5755,-1.558,-1.5868,-1.5933,-1.5322,-1.5973,-1.6388,-1.5976,-1.6782,-1.7436,-1.7511,-1.7978,-1.8317,-1.8317,-1.8317,-1.8317,-1.8317,-1.8027,-1.7858,-1.7858,-1.7436,-1.7202,-1.7248,-1.6913,-1.6993,-1.7499,-1.7077,-1.7086,-1.7496,-1.6312,-1.5332,-1.4499,-1.4151,-1.3851,-1.3571,-1.3571,-1.3588,-1.3622,-1.4059,-1.4444,-1.4786,-1.5095,-1.5215,-1.5172,-1.5163,-1.4915,-1.4523,-1.3758,-1.3124,-1.2588,-1.2383,-1.2165,-1.2174,-1.2959,-1.3333,-1.3413,-1.2844,-1.2662,-1.2406,-1.1521,-1.1305,-1.1305,-1.1305,-1.1284,-1.1268,-1.13,-1.1305,-1.1246,-1.1074,-1.0816,-1.0533,-1.0374,-1.0288,-1.0169,-0.9954,-0.9884,-0.9933,-0.9965,-1.0319,-1.0608,-1.064,-1.1043,-1.1305,-1.1305,-1.1305,-1.1305,-1.1305,-1.1305,-1.1262,-1.1176,-0.9985,-0.9013,-0.8305,-0.7126,-0.6027,-0.4921,-0.4476,-0.4346,-0.439,-0.4528,-0.4622,-1.1932,-1.3277,-1.4642,-1.5543,-1.5858,-1.6032,-1.6263,-1.6263,-1.6278,-1.6637,-1.6397,-1.6113,-1.6067,-1.5779,-1.5528,-1.5539,-1.5867,-1.6114,-1.6153,-1.6584,-1.6898,-1.6898,-1.74,-1.7739,-1.7739,-1.7739,-1.7693,-1.7554,-1.7142,-1.6832,-1.6695,-1.6476,-1.6444,-1.6597,-1.626,-1.628,-1.6686,-1.6251,-1.6008,-1.5982,-1.5241,-1.4592,-1.411,-1.4022,-1.3821,-1.3511,-1.3511,-1.3511,-1.3536,-1.393,-1.4196,-1.4393,-1.4769,-1.5043,-1.5215,-1.5215,-1.5112,-1.4924,-1.4546,-1.3615,-1.2624,-1.2628,-1.219,-1.1784,-1.2717,-1.2995,-1.296,-1.2759,-1.2528,-1.2149,-1.1478,-1.1305,-1.1305,-1.1305,-1.1203,-1.1144,-1.1144,-1.1214,-1.1198,-1.0859,-1.081,-1.0713,-1.0358,-1.0293,-1.0256,-1.0148,-1.0008,-0.9884,-0.9884,-1.0297,-1.0597,-1.0597,-1.1021,-1.1305,-1.1305,-1.1305,-1.1305,-1.1305,-1.1305,-1.1132,-1.0776,-1.0159,-0.9371,-0.8364,-0.6912,-0.5805,-0.501,-0.4576,-0.4422,-0.4514,-0.4606,-0.4696,-1.2422,-1.3772,-1.4684,-1.5275,-1.5459,-1.5667,-1.6323,-1.6114,-1.5964,-1.6577,-1.6511,-1.6428,-1.6637,-1.589,-1.5292,-1.5401,-1.559,-1.5793,-1.6065,-1.6325,-1.65,-1.65,-1.6898,-1.714,-1.7107,-1.714,-1.705,-1.6722,-1.631,-1.5991,-1.5748,-1.5659,-1.5724,-1.5893,-1.5682,-1.5672,-1.5892,-1.5636,-1.5252,-1.4803,-1.4463,-1.4091,-1.367,-1.379,-1.3672,-1.3382,-1.3468,-1.3511,-1.3528,-1.3827,-1.4007,-1.4127,-1.4418,-1.4761,-1.5086,-1.518,-1.5215,-1.518,-1.5044,-1.4005,-1.2772,-1.2784,-1.2109,-1.147,-1.2315,-1.2479,-1.2399,-1.2456,-1.2257,-1.1892,-1.1435,-1.1305,-1.1305,-1.1305,-1.116,-1.0982,-1.0982,-1.1128,-1.1107,-1.0753,-1.0864,-1.0837,-1.0374,-1.0293,-1.0272,-1.0207,-1.004,-0.9884,-0.9884,-1.0288,-1.0528,-1.0587,-1.0967,-1.1241,-1.13,-1.1305,-1.1305,-1.1305,-1.1305,-1.0997,-1.0337,-1.0115,-0.9462,-0.8241,-0.665,-0.563,-0.5188,-0.4772,-0.4539,-0.454,-0.463,-0.472,-1.2171,-1.1779,-1.1337,-1.4433,-1.4564,-1.4257,-1.5559,-1.5829,-1.5964,-1.6577,-1.6432,-1.6413,-1.704,-1.6502,-1.5531,-1.4291,-1.5003,-1.5537,-1.5049,-1.5856,-1.65,-1.65,-1.6525,-1.6464,-1.6281,-1.6442,-1.6365,-1.5907,-1.5826,-1.5714,-1.5536,-1.5266,-1.5142,-1.5165,-1.5142,-1.5198,-1.5335,-1.5437,-1.5252,-1.4803,-1.4523,-1.4036,-1.3341,-1.3407,-1.3269,-1.3023,-1.3365,-1.3511,-1.3511,-1.3528,-1.3759,-1.4093,-1.4119,-1.4367,-1.4752,-1.5086,-1.5215,-1.5112,-1.4607,-1.3878,-1.3068,-1.2436,-1.1672,-1.1129,-1.1765,-1.2029,-1.2073,-1.1918,-1.194,-1.1892,-1.1435,-1.1305,-1.1305,-1.1305,-1.116,-1.0982,-1.0982,-1.0993,-1.0993,-1.0966,-1.0977,-1.0837,-1.0374,-1.0293,-1.0213,-0.9976,-0.9889,-0.9884,-0.9884,-1.0148,-1.0396,-1.0571,-1.0853,-1.1095,-1.1289,-1.1305,-1.1305,-1.1305,-1.1305,-1.0997,-1.0337,-0.9632,-0.8934,-0.8201,-0.7003,-0.6118,-0.5675,-0.5193,-0.4757,-0.4398,-0.4536,-0.4628,-1.1479,-1.2281,-1.3069,-1.3949,-1.4534,-1.4944,-1.5117,-1.5499,-1.5815,-1.5906,-1.6061,-1.6118,-1.5853,-1.6149,-1.6278,-1.5738,-1.5726,-1.568,-1.5454,-1.5743,-1.5994,-1.5994,-1.6287,-1.6414,-1.6222,-1.602,-1.5722,-1.5255,-1.4971,-1.4743,-1.4559,-1.4444,-1.4398,-1.4398,-1.4142,-1.3921,-1.3772,-1.3813,-1.3756,-1.3581,-1.3533,-1.3278,-1.2857,-1.2949,-1.3016,-1.3017,-1.3146,-1.3297,-1.3511,-1.3511,-1.3588,-1.3716,-1.3716,-1.3956,-1.435,-1.4735,-1.4782,-1.4701,-1.4714,-1.3793,-1.2589,-1.2297,-1.1512,-1.0742,-1.1134,-1.1292,-1.1349,-1.1449,-1.1513,-1.1516,-1.1348,-1.1305,-1.1268,-1.1155,-1.0934,-1.0799,-1.095,-1.0864,-1.0719,-1.0568,-1.0659,-1.0659,-1.0347,-1.0293,-1.0261,-1.0175,-1.0024,-0.9976,-1.0137,-1.0369,-1.06,-1.0832,-1.1074,-1.1214,-1.13,-1.1305,-1.1305,-1.1305,-1.1305,-1.0997,-1.0337,-0.9318,-0.8444,-0.7753,-0.6561,-0.5852,-0.5719,-0.5257,-0.4813,-0.4392,-0.4589,-0.4677,-1.0703,-1.1863,-1.3169,-1.3481,-1.3944,-1.4464,-1.5012,-1.5319,-1.5472,-1.5507,-1.5869,-1.6016,-1.5444,-1.6078,-1.6538,-1.6062,-1.6045,-1.5969,-1.5744,-1.5856,-1.5906,-1.5718,-1.6183,-1.6296,-1.5834,-1.5692,-1.5377,-1.4846,-1.449,-1.4212,-1.4014,-1.4001,-1.4001,-1.4001,-1.36,-1.3286,-1.3079,-1.2954,-1.2905,-1.2905,-1.2845,-1.2691,-1.2447,-1.2547,-1.2603,-1.2612,-1.2869,-1.3177,-1.3511,-1.3511,-1.3511,-1.3511,-1.3511,-1.3665,-1.3947,-1.4341,-1.4487,-1.4476,-1.4463,-1.3689,-1.2626,-1.1991,-1.1178,-1.049,-1.0454,-1.0514,-1.0669,-1.0913,-1.1081,-1.1203,-1.1284,-1.1305,-1.1246,-1.1042,-1.0864,-1.0772,-1.0848,-1.0746,-1.0571,-1.0541,-1.0649,-1.0681,-1.0449,-1.0347,-1.0293,-1.0293,-1.0083,-1.0008,-1.0261,-1.0428,-1.0638,-1.095,-1.1063,-1.1134,-1.1295,-1.123,-1.1134,-1.0949,-1.0954,-1.0472,-0.9414,-0.8575,-0.7742,-0.6915,-0.6118,-0.563,-0.5453,-0.5215,-0.4842,-0.4348,-0.4577,-0.4696,0.0,0.0,0.0,-1.2986,-1.2743,-1.2693,-1.5152,-1.5215,-1.4906,-1.5359,-1.5825,-1.6074,-1.5959,-1.6321,-1.6208,-1.494,-1.5782,-1.6369,-1.577,-1.6145,-1.6274,-1.5756,-1.6162,-1.6095,-1.5103,-1.5336,-1.5287,-1.4593,-1.4374,-1.4167,-1.3978,-1.3978,-1.3978,-1.3978,-1.3576,-1.3396,-1.3396,-1.3055,-1.2905,-1.2905,-1.2627,-1.2357,-1.2085,-1.2154,-1.2044,-1.1831,-1.262,-1.3151,-1.3494,-1.3502,-1.3511,-1.3511,-1.3511,-1.3511,-1.3554,-1.3947,-1.4341,-1.4545,-1.376,-1.3531,-1.3269,-1.1482,-1.0695,-1.035,-0.9679,-0.9746,-1.0115,-1.0315,-1.0689,-1.102,-1.123,-1.13,-1.1246,-1.1052,-1.0988,-1.0923,-1.0662,-1.0608,-1.0672,-1.0934,-1.0972,-1.0902,-1.063,-1.0444,-1.0293,-1.0293,-1.0083,-1.0008,-1.0261,-1.0293,-1.0471,-1.0934,-1.0772,-1.079,-1.1268,-1.1085,-1.0789,-1.0323,-1.025,-0.9419,-0.7577,-0.7489,-0.6912,-0.5719,-0.5675,-0.5453,-0.4964,-0.501,-0.4743,-0.4304,-0.4487,-0.4665,-1.0909,0.0,0.0,0.0,0.0,0.0,-1.3558,-1.3867,-1.4206,-1.4681,-1.4468,-1.4269,-1.4571,-1.4649,-1.4429,-1.3688,-1.4941,-1.5893,-1.5466,-1.5701,-1.5869,-1.5718,-1.6047,-1.588,-1.4813,-1.4686,-1.429,-1.3361,-1.2973,-1.2906,-1.319,-1.32,-1.32,-1.32,-1.3113,-1.3041,-1.3041,-1.2954,-1.2905,-1.2905,-1.2627,-1.2357,-1.2076,-1.1919,-1.1808,-1.1797,-1.2037,-1.2526,-1.3151,-1.3399,-1.3511,-1.3511,-1.3511,-1.3511,-1.3554,-1.3947,-1.3907,-1.3558,-1.3258,-1.2908,-1.2355,-1.0933,-1.0316,-1.001,-0.9275,-0.9252,-0.9499,-0.9745,-1.0138,-1.0579,-1.0977,-1.1177,-1.1289,-1.1225,-1.1112,-1.1015,-1.1085,-1.0973,-1.0853,-1.071,-1.0689,-1.0672,-1.0608,-1.0444,-1.0293,-1.0293,-1.0083,-1.0008,-1.0261,-1.0293,-1.0471,-1.0934,-1.0772,-1.079,-1.1268,-1.0614,-1.0234,-1.0279,-0.9497,-0.8532,-0.7533,-0.6868,-0.6071,-0.523,-0.4877,-0.461,-0.4476,-0.4832,-0.4743,-0.4304,-0.4487,-0.4634,-1.1266,-1.1907,-1.2631,-1.2059,0.0,0.0,-1.3147,-1.3301,-1.3518,-1.4031,-1.3942,-1.3849,-1.4056,-1.4092,-1.4003,-1.3695,-1.4521,-1.5199,-1.5139,-1.5473,-1.5673,-1.5583,-1.5941,-1.5729,-1.4502,-1.4339,-1.3879,-1.2888,-1.2434,-1.232,-1.2598,-1.2783,-1.2905,-1.2905,-1.2905,-1.2905,-1.2905,-1.2783,-1.2725,-1.2735,-1.2455,-1.22,-1.1927,-1.1769,-1.165,-1.1593,-1.1746,-1.2148,-1.2794,-1.3134,-1.3374,-1.3511,-1.3511,-1.3511,-1.3536,-1.3768,-1.3603,-1.3228,-1.2899,-1.2561,-1.2044,-1.0914,-1.0355,-1.0024,-0.9445,-0.9308,-0.941,-0.9653,-1.0067,-1.0498,-1.0767,-1.102,-1.1155,-1.1155,-1.1165,-1.1176,-1.1278,-1.1193,-1.1095,-1.0919,-1.0892,-1.0892,-1.0892,-1.074,-1.0552,-1.0449,-1.0229,-1.0132,-1.0277,-1.0293,-1.0433,-1.0799,-1.0632,-1.0524,-1.0692,-1.0134,-0.9672,-0.9449,-0.858,-0.7702,-0.6782,-0.6027,-0.5361,-0.4699,-0.4431,-0.43,-0.43,-0.4565,-0.4587,-0.4359,-0.4506,-0.4622,-1.1474,-1.1834,-1.244,-1.2489,-1.2069,0.0,-1.328,-1.3121,-1.2855,-1.3403,-1.3778,-1.3993,-1.3941,-1.406,-1.4116,-1.4016,-1.4143,-1.4387,-1.4784,-1.5293,-1.5569,-1.5439,-1.5819,-1.556,-1.4233,-1.4203,-1.3832,-1.282,-1.2451,-1.2262,-1.2203,-1.2646,-1.2905,-1.2905,-1.2905,-1.2905,-1.2905,-1.2627,-1.2505,-1.2505,-1.22,-1.1927,-1.1703,-1.1678,-1.1528,-1.1318,-1.161,-1.1985,-1.2423,-1.2794,-1.3151,-1.3511,-1.3511,-1.3511,-1.3472,-1.345,-1.3355,-1.3195,-1.2525,-1.223,-1.1961,-1.1041,-1.0491,-1.0152,-0.9823,-0.9624,-0.955,-0.9809,-1.019,-1.056,-1.056,-1.0767,-1.0945,-1.0945,-1.1069,-1.1236,-1.1262,-1.1268,-1.1273,-1.13,-1.1305,-1.1305,-1.1305,-1.1149,-1.0907,-1.063,-1.0444,-1.0288,-1.0256,-1.0256,-1.0342,-1.0533,-1.039,-1.016,-0.9903,-0.9637,-0.9114,-0.8237,-0.7654,-0.6871,-0.5764,-0.523,-0.4788,-0.43,-0.43,-0.43,-0.43,-0.43,-0.434,-0.4376,-0.4514,-0.46,-1.2975,-1.3318,-1.3661,-1.2729,-1.2878,0.0,-1.2342,-1.2089,-1.2179,-1.2814,-1.2503,-1.2279,-1.2807,-1.2747,-1.2366,-1.1556,-1.251,-1.3628,-1.4392,-1.4828,-1.5203,-1.5582,-1.5412,-1.4939,-1.4177,-1.4067,-1.3577,-1.2395,-1.2596,-1.2607,-1.2223,-1.2646,-1.2905,-1.2905,-1.2905,-1.2905,-1.2905,-1.2627,-1.2505,-1.2505,-1.2002,-1.1744,-1.1694,-1.1477,-1.1352,-1.1301,-1.1378,-1.1764,-1.2398,-1.2475,-1.2903,-1.3511,-1.3511,-1.3511,-1.345,-1.3072,-1.2768,-1.2375,-1.1452,-1.1074,-1.0883,-0.9995,-0.9664,-0.9609,-0.939,-0.9178,-0.9127,-0.9523,-0.9992,-1.0358,-1.0358,-1.053,-1.0662,-1.0662,-1.0699,-1.0785,-1.1015,-1.1052,-1.1112,-1.1268,-1.1305,-1.1305,-1.1305,-1.1149,-1.0907,-1.063,-1.0444,-1.0223,-1.0019,-0.9992,-1.0089,-1.0336,-1.0143,-0.9914,-0.9759,-0.9101,-0.8516,-0.806,-0.7155,-0.634,-0.5719,-0.523,-0.4788,-0.43,-0.43,-0.43,-0.43,-0.43,-0.4308,-0.4326,-0.442,-0.4425,-1.3419,-1.3469,-1.3571,-1.2783,-1.3075,0.0,0.0,-1.2377,-1.24,-1.2726,-1.2431,-1.2193,-1.2544,-1.2842,-1.2868,-1.2292,-1.2935,-1.3522,-1.3593,-1.4134,-1.4644,-1.5057,-1.4695,-1.4169,-1.3559,-1.3236,-1.2722,-1.1959,-1.2305,-1.2461,-1.2213,-1.2646,-1.2905,-1.2905,-1.2905,-1.2832,-1.27,-1.2421,-1.2224,-1.2101,-1.1694,-1.1502,-1.1502,-1.1352,-1.1301,-1.1301,-1.1301,-1.1593,-1.2132,-1.2312,-1.2732,-1.3262,-1.3442,-1.3359,-1.3125,-1.2897,-1.2266,-1.1476,-1.0958,-1.0475,-1.0055,-0.9775,-0.9589,-0.9473,-0.9477,-0.9386,-0.9306,-0.9549,-0.9836,-1.0105,-1.0105,-1.0283,-1.0466,-1.0466,-1.0512,-1.063,-1.0783,-1.081,-1.088,-1.1122,-1.1165,-1.1166,-1.1289,-1.1209,-1.1005,-1.0651,-1.0501,-1.0331,-0.9965,-1.003,-1.0153,-1.0283,-1.018,-0.9972,-0.966,-0.8864,-0.8156,-0.7584,-0.677,-0.6013,-0.5361,-0.5142,-0.4788,-0.43,-0.43,-0.43,-0.43,-0.43,-0.43,-0.4302,-0.4346,-0.4388,-1.3847,-1.3611,-1.3548,-1.318,-1.3357,-1.3563,0.0,0.0,0.0,-1.2984,-1.2903,-1.2822,-1.2822,-1.3388,-1.3757,-1.3458,-1.362,-1.3475,-1.2589,-1.3204,-1.3899,-1.421,-1.3938,-1.3515,-1.3014,-1.2299,-1.1788,-1.1618,-1.1816,-1.2028,-1.2194,-1.2559,-1.2817,-1.2905,-1.2856,-1.2725,-1.2505,-1.2175,-1.1902,-1.1703,-1.1427,-1.1301,-1.1301,-1.1301,-1.1301,-1.1301,-1.1301,-1.149,-1.184,-1.2158,-1.256,-1.3043,-1.3365,-1.3277,-1.292,-1.2705,-1.1895,-1.0793,-1.0611,-1.0002,-0.9367,-0.9607,-0.9515,-0.9361,-0.9559,-0.9591,-0.9554,-0.9603,-0.9712,-0.9863,-0.9906,-1.0067,-1.0223,-1.0223,-1.0363,-1.0469,-1.0517,-1.0528,-1.0608,-1.0929,-1.0982,-1.1063,-1.1268,-1.1305,-1.116,-1.0726,-1.0662,-1.0506,-1.0077,-1.0234,-1.0358,-1.0358,-1.0358,-1.0134,-0.9615,-0.8738,-0.7902,-0.7112,-0.6436,-0.574,-0.5021,-0.491,-0.4699,-0.43,-0.43,-0.43,-0.43,-0.43,-0.43,-0.4302,-0.4375,-0.4364,-1.5308,-1.5145,-1.5114,-1.4594,-1.447,-1.4381,-1.406,0.0,-1.369,-1.369,0.0,-1.3652,-1.3652,0.0,0.0,-1.25,-1.2926,-1.2857,-1.1404,-1.2015,-1.2789,-1.3288,-1.3405,-1.3369,-1.3186,-1.1882,-1.1185,-1.1577,-1.125,-1.1375,-1.2164,-1.2252,-1.248,-1.2895,-1.2686,-1.2529,-1.2505,-1.2002,-1.1719,-1.1703,-1.1427,-1.1301,-1.1301,-1.1301,-1.1301,-1.1301,-1.1301,-1.149,-1.1797,-1.1857,-1.2329,-1.3043,-1.3365,-1.348,-1.3299,-1.2413,-1.1632,-1.086,-0.9958,-0.921,-0.8614,-0.8674,-0.8788,-0.8968,-0.8995,-0.9129,-0.9292,-0.9518,-0.9599,-0.9663,-0.9868,-0.9938,-0.9965,-0.9965,-0.9943,-1.0024,-1.0283,-1.0336,-1.0466,-1.0902,-1.0982,-1.1063,-1.1268,-1.1305,-1.1214,-1.0988,-1.0945,-1.0848,-1.0549,-1.0538,-1.0554,-1.0554,-1.0554,-1.0244,-0.9468,-0.8581,-0.7671,-0.6885,-0.603,-0.5363,-0.4918,-0.4568,-0.4342,-0.43,-0.43,-0.43,-0.43,-0.43,-0.43,-0.43,-0.431,-0.4314,-1.5533,-1.5576,-1.5704,-1.5081,-1.5378,-1.564,-1.4956,-1.4669,-1.4522,-1.4405,0.0,0.0,0.0,0.0,0.0,0.0,-1.3091,-1.2705,-1.1509,-1.1793,-1.2142,-1.2269,-1.2061,-1.1792,-1.1486,-1.0902,-1.0723,-1.1152,-1.1006,-1.1118,-1.166,-1.1666,-1.1891,-1.2305,-1.2054,-1.2022,-1.2274,-1.1902,-1.1628,-1.1477,-1.1343,-1.1301,-1.1301,-1.1301,-1.1301,-1.1301,-1.1301,-1.1387,-1.1524,-1.1729,-1.2003,-1.2325,-1.2635,-1.2904,-1.3003,-1.2259,-1.1406,-1.049,-0.9767,-0.9049,-0.8517,-0.8517,-0.8581,-0.8662,-0.8662,-0.8915,-0.9227,-0.933,-0.9561,-0.9798,-0.9895,-0.9884,-0.9884,-0.9884,-0.9884,-0.9949,-1.0056,-1.0078,-1.0175,-1.0519,-1.0692,-1.0859,-1.1095,-1.1214,-1.1225,-1.102,-1.0982,-1.0902,-1.0624,-1.0756,-1.0672,-1.0259,-1.0141,-0.9776,-0.9039,-0.7844,-0.6907,-0.6421,-0.5366,-0.4775,-0.4904,-0.4517,-0.43,-0.43,-0.43,-0.43,-0.43,-0.43,-0.43,-0.43,-0.43,-0.43,-1.642,-1.6296,-1.6285,-1.5778,-1.598,-1.6186,-1.572,-1.5564,-1.5455,-1.5138,-1.4827,0.0,0.0,0.0,-1.3968,0.0,0.0,-1.2605,-1.1503,-1.1519,-1.1585,-1.1379,-1.0982,-1.0612,-1.0261,-1.0008,-1.0075,-1.0617,-1.0469,-1.0603,-1.1077,-1.1115,-1.1284,-1.1601,-1.1468,-1.1528,-1.1813,-1.1674,-1.1494,-1.1301,-1.1301,-1.1301,-1.1301,-1.1301,-1.1301,-1.1301,-1.1301,-1.1301,-1.1318,-1.1567,-1.1607,-1.1546,-1.1724,-1.194,-1.2063,-1.1789,-1.1101,-1.0212,-0.9582,-0.8985,-0.8517,-0.8517,-0.8517,-0.8517,-0.8517,-0.8797,-0.9125,-0.919,-0.9507,-0.9841,-0.99,-0.9884,-0.9884,-0.9884,-0.9884,-0.9884,-0.9884,-0.9884,-0.9997,-1.0245,-1.0428,-1.0638,-1.0934,-1.1187,-1.1246,-1.1112,-1.1085,-1.0936,-1.0559,-1.0668,-1.0475,-0.9723,-0.9528,-0.9213,-0.8671,-0.7296,-0.6169,-0.5524,-0.4629,-0.4278,-0.4646,-0.4393,-0.4275,-0.43,-0.43,-0.43,-0.43,-0.43,-0.43,-0.43,-0.43,-0.43,-1.871,-1.7831,-1.7146,-1.7068,-1.6171,-1.551,-1.6211,-1.6511,-1.6488,-1.5889,-1.6219,-1.6428,-1.5844,-1.5214,0.0,0.0,0.0,0.0,0.0,-1.0899,-1.0956,-1.0747,-1.066,-1.053,-1.0318,-0.9361,-0.9109,-0.9972,-0.9429,-0.9528,-1.0569,-1.0615,-1.0719,-1.0932,-1.1061,-1.111,-1.1128,-1.1245,-1.1301,-1.1301,-1.1301,-1.1301,-1.1301,-1.1301,-1.1301,-1.1301,-1.1301,-1.1301,-1.1301,-1.131,-1.1111,-1.0828,-1.0825,-1.0642,-1.0422,-1.0736,-1.0604,-1.018,-0.93,-0.8797,-0.8517,-0.8517,-0.8517,-0.8517,-0.8517,-0.8684,-0.8954,-0.9141,-0.9389,-0.9642,-0.9863,-0.9884,-0.9884,-0.9884,-0.9884,-0.9884,-0.9884,-0.9884,-0.9997,-1.0245,-1.0299,-1.0449,-1.0907,-1.1187,-1.1305,-1.1295,-1.1295,-1.103,-1.0404,-1.0221,-0.984,-0.9128,-0.8907,-0.8711,-0.8445,-0.7103,-0.5607,-0.3966,-0.3897,-0.3948,-0.4036,-0.4128,-0.4216,-0.4297,-0.43,-0.43,-0.43,-0.43,-0.43,-0.43,-0.43,-0.43,-1.9194,-1.9187,-1.893,-1.7579,-1.7559,-1.7538,-1.6238,-1.6475,-1.6742,-1.5961,-1.6174,-1.6319,-1.5713,-1.5048,0.0,0.0,0.0,0.0,0.0,-1.0703,-1.0248,-1.0182,-1.0195,-1.0135,-0.9981,-0.9288,-0.9151,-0.994,-0.9387,-0.9282,-0.9961,-0.9997,-1.0091,-1.0294,-1.0171,-1.0428,-1.1101,-1.0969,-1.1036,-1.1301,-1.1301,-1.1301,-1.1293,-1.1019,-1.0908,-1.0908,-1.0908,-1.0908,-1.0901,-1.0672,-1.0639,-1.0653,-0.9901,-0.966,-0.9749,-1.0094,-1.0001,-0.9594,-0.8896,-0.8608,-0.8517,-0.8517,-0.8517,-0.8517,-0.8517,-0.8781,-0.9104,-0.9179,-0.9491,-0.9825,-0.99,-0.9884,-0.9884,-0.9884,-0.9884,-0.9884,-0.9884,-0.9884,-0.9943,-1.003,-1.018,-1.0342,-1.0503,-1.0848,-1.1165,-1.1284,-1.1305,-1.1031,-1.0269,-1.0137,-0.9578,-0.8284,-0.8024,-0.7608,-0.6831,-0.5705,-0.4695,-0.3843,-0.3848,-0.3914,-0.3944,-0.4091,-0.4231,-0.4216,-0.4271,-0.43,-0.43,-0.43,-0.43,-0.43,-0.43,-0.43,-1.9754,-1.9885,-1.9751,-1.8111,-1.8243,-1.8341,-1.6512,-1.6688,-1.6985,-1.6129,-1.617,-1.6296,-1.6105,-1.5374,0.0,0.0,0.0,0.0,0.0,-1.0508,-0.9983,-0.9918,-0.9898,-0.9812,-0.9597,-0.897,-0.8905,-0.9686,-0.9055,-0.8956,-0.9667,-0.9614,-0.9582,-0.9638,-0.9606,-0.9964,-1.074,-1.0699,-1.0908,-1.1301,-1.1301,-1.1233,-1.1071,-1.0685,-1.0499,-1.0499,-1.0516,-1.0599,-1.0706,-1.0622,-1.049,-1.0239,-0.938,-0.8988,-0.8907,-0.9321,-0.9309,-0.9019,-0.8618,-0.8517,-0.8517,-0.8517,-0.8517,-0.8517,-0.8517,-0.8834,-0.9206,-0.9206,-0.955,-0.9884,-0.9884,-0.9884,-0.9884,-0.9884,-0.9884,-0.9884,-0.9884,-0.9857,-0.9825,-0.99,-0.9986,-1.0094,-1.0266,-1.0404,-1.0648,-1.1139,-1.1031,-1.0682,-0.988,-0.9545,-0.8837,-0.7499,-0.7211,-0.6726,-0.568,-0.4972,-0.4384,-0.3841,-0.3857,-0.3867,-0.3897,-0.4044,-0.4138,-0.4214,-0.4257,-0.43,-0.43,-0.43,-0.43,-0.43,-0.43,-0.43]},{"header":{"parameterUnit":"m.s-1","parameterCategory":1,"la1":30.6,"la2":29.2853,"lo1":-89.7004,"lo2":-87.6739,"dy":0.0162,"dx":0.0183,"nx":112,"ny":82,"refTime":"2026-05-13T12:00:00:Z","depth":0,"parameterNumber":3,"parameterNumberName":"V-component_of_WINDS"},"data":[0.0,0.0,0.0,0.0,0.0,0.0,0.0,0.0,0.0,0.0,0.0,0.0,0.0,0.0,0.0,0.0,0.0,0.0,0.0,0.0,0.0,0.0,0.0,0.0,0.0,0.0,0.0,0.0,0.0,0.0,0.0,0.0,0.0,0.0,0.0,0.0,0.0,0.0,0.0,0.0,0.0,0.0,0.0,0.0,0.0,0.0,0.0,0.0,0.0,0.0,0.0,0.0,0.0,0.0,0.0,0.0,0.0,0.0,0.0,0.0,0.0,0.0,0.0,0.0,0.0,0.0,0.0,0.0,0.0,0.0,0.0,0.0,0.0,0.0,0.0,0.0,0.0,0.0,0.0,0.0,0.0,0.0,0.0,0.0,0.0,0.0,0.0,0.0,0.0,0.0,2.0582,2.1149,2.3315,2.47,2.47,2.3964,2.2837,2.1297,0.0,0.0,0.0,0.0,0.0,0.0,0.0,0.0,0.0,0.0,0.0,0.0,0.0,0.0,0.0,0.0,0.0,0.0,0.0,0.0,0.0,0.0,0.0,0.0,0.0,0.0,0.0,0.0,0.0,0.0,0.0,0.0,0.0,0.0,0.0,0.0,0.0,0.0,0.0,0.0,0.0,0.0,0.0,0.0,0.0,0.0,0.0,0.0,0.0,0.0,0.0,0.0,0.0,0.0,0.0,0.0,0.0,0.0,0.0,0.0,0.0,0.0,0.0,0.0,0.0,0.0,0.0,0.0,0.0,0.0,0.0,0.0,0.0,0.0,0.0,0.0,0.0,0.0,0.0,0.0,0.0,0.0,0.0,0.0,0.0,0.0,0.0,0.0,0.0,0.0,0.0,0.0,0.0,0.0,0.0,0.0,0.0,0.0,0.0,0.0,0.0,0.0,0.0,0.0,1.9924,2.279,2.4061,2.47,2.47,2.3964,2.31,2.2154,0.0,0.0,0.0,0.0,0.0,0.0,0.0,0.0,0.0,0.0,0.0,0.0,0.0,0.0,0.0,0.0,0.0,0.0,0.0,0.0,0.0,0.0,0.0,0.0,0.0,0.0,0.0,0.0,0.0,0.0,0.0,0.0,0.0,0.0,0.0,0.0,0.0,0.0,0.0,0.0,0.0,0.0,0.0,0.0,0.0,0.0,0.0,0.0,0.0,0.0,0.0,0.0,0.0,0.0,0.0,0.0,0.0,0.0,0.0,0.0,0.0,0.0,0.0,0.0,0.0,0.0,0.0,0.0,0.0,0.0,0.0,0.0,0.0,0.0,0.0,0.0,0.0,0.0,0.0,0.0,0.0,0.0,0.0,0.0,0.0,0.0,0.0,0.0,0.0,0.0,0.0,0.0,0.0,0.0,0.0,0.0,0.0,0.0,0.0,0.0,0.0,0.0,0.0,1.9773,2.095,2.3938,2.4586,2.4805,2.4805,2.404,2.321,2.2406,1.9919,0.0,0.0,0.0,0.0,0.0,0.0,0.0,0.0,0.0,0.0,0.0,0.0,0.0,0.0,0.0,0.0,0.0,0.0,0.0,0.0,0.0,0.0,0.0,0.0,0.0,0.0,0.0,0.0,0.0,0.0,0.0,0.0,0.0,0.0,0.0,0.0,0.0,0.0,0.0,0.0,0.0,0.0,0.0,0.0,0.0,0.0,0.0,0.0,0.0,0.0,0.0,0.0,0.0,0.0,0.0,0.0,0.0,0.0,0.0,0.0,0.0,0.0,0.0,0.0,0.0,0.0,0.0,0.0,0.0,0.0,0.0,0.0,0.0,0.0,0.0,0.0,0.0,0.0,0.0,0.0,0.0,0.0,0.0,0.0,0.0,0.0,0.0,0.0,0.0,0.0,0.0,0.0,0.0,0.0,0.0,0.0,0.0,0.0,0.0,0.0,0.0,0.0,2.1187,2.2391,2.465,2.4891,2.4905,2.4926,2.4143,2.3291,2.2451,1.9973,0.0,0.0,0.0,0.0,0.0,0.0,0.0,0.0,0.0,0.0,0.0,0.0,0.0,0.0,0.0,0.0,0.0,0.0,0.0,0.0,0.0,0.0,0.0,0.0,0.0,0.0,0.0,0.0,0.0,0.0,0.0,0.0,0.0,0.0,0.0,0.0,0.0,0.0,0.0,0.0,0.0,0.0,0.0,0.0,0.0,0.0,0.0,0.0,0.0,0.0,0.0,0.0,0.0,0.0,0.0,0.0,0.0,0.0,0.0,0.0,0.0,0.0,0.0,0.0,0.0,0.0,0.0,0.0,0.0,0.0,0.0,0.0,0.0,0.0,0.0,0.0,0.0,0.0,0.0,0.0,0.0,0.0,0.0,0.0,0.0,0.0,0.0,0.0,0.0,0.0,0.0,0.0,0.0,0.0,0.0,0.0,0.0,0.0,0.0,0.0,0.0,0.0,2.1891,2.3726,2.479,2.4891,2.4933,2.4981,2.4258,2.3391,2.2451,2.0049,0.0,0.0,0.0,0.0,0.0,0.0,0.0,0.0,0.0,0.0,0.0,0.0,0.0,0.0,0.0,0.0,0.0,0.0,0.0,0.0,0.0,0.0,0.0,0.0,0.0,0.0,0.0,0.0,0.0,0.0,0.0,0.0,0.0,0.0,0.0,0.0,0.0,0.0,0.0,0.0,0.0,0.0,0.0,0.0,0.0,0.0,0.0,0.0,0.0,0.0,0.0,0.0,0.0,0.0,0.0,0.0,0.0,0.0,0.0,0.0,0.0,0.0,0.0,0.0,0.0,0.0,0.0,0.0,0.0,0.0,0.0,0.0,0.0,0.0,0.0,0.0,0.0,0.0,0.0,0.0,0.0,0.0,0.0,0.0,0.0,0.0,0.0,0.0,0.0,0.0,0.0,0.0,0.0,0.0,0.0,0.0,0.0,0.0,0.0,0.0,0.0,0.0,2.1524,2.3293,2.4752,2.4891,2.4933,2.4994,2.4676,2.3917,2.2618,0.0,0.0,0.0,0.0,0.0,0.0,0.0,0.0,0.0,0.0,0.0,0.0,0.0,0.0,0.0,0.0,0.0,0.0,0.0,0.0,0.0,0.0,0.0,0.0,0.0,0.0,0.0,0.0,0.0,0.0,0.0,0.0,0.0,0.0,0.0,0.0,0.0,0.0,0.0,0.0,0.0,0.0,0.0,0.0,0.0,0.0,0.0,0.0,0.0,0.0,0.0,0.0,0.0,0.0,0.0,0.0,0.0,0.0,0.0,0.0,0.0,0.0,0.0,0.0,0.0,0.0,0.0,0.0,0.0,0.0,0.0,0.0,0.0,0.0,0.0,0.0,0.0,0.0,0.0,0.0,0.0,0.0,0.0,0.0,0.0,0.0,0.0,0.0,0.0,0.0,0.0,0.0,0.0,0.0,0.0,0.0,0.0,0.0,0.0,0.0,0.0,0.0,1.9675,2.1784,2.363,2.4853,2.4999,2.5013,2.5086,2.458,2.3655,2.2274,0.0,0.0,0.0,0.0,0.0,0.0,0.0,0.0,0.0,0.0,0.0,0.0,0.0,0.0,0.0,0.0,0.0,0.0,0.0,0.0,0.0,0.0,0.0,0.0,0.0,0.0,0.0,0.0,0.0,0.0,0.0,0.0,0.0,0.0,0.0,0.0,0.0,0.0,0.0,0.0,0.0,0.0,0.0,0.0,0.0,0.0,0.0,0.0,0.0,0.0,0.0,0.0,0.0,0.0,0.0,0.0,0.0,0.0,0.0,0.0,0.0,0.0,0.0,0.0,0.0,0.0,0.0,0.0,0.0,0.0,0.0,0.0,0.0,0.0,0.0,0.0,0.0,0.0,0.0,0.0,0.0,0.0,0.0,0.0,0.0,0.0,0.0,0.0,0.0,0.0,0.0,0.0,0.0,0.0,0.0,0.0,0.0,0.0,0.0,0.0,0.0,0.0,1.9907,2.2891,2.5043,2.5181,2.5193,2.5225,2.5298,2.3769,2.2378,0.0,0.0,0.0,0.0,0.0,0.0,0.0,0.0,0.0,0.0,0.0,0.0,0.0,0.0,0.0,0.0,0.0,0.0,0.0,0.0,0.0,0.0,0.0,0.0,0.0,0.0,0.0,0.0,0.0,0.0,0.0,0.0,0.0,0.0,0.0,0.0,0.0,0.0,0.0,0.0,0.0,0.0,0.0,0.0,0.0,0.0,0.0,0.0,0.0,0.0,0.0,0.0,0.0,0.0,0.0,0.0,0.0,0.0,0.0,0.0,0.0,0.0,0.0,0.0,0.0,0.0,0.0,0.0,0.0,0.0,0.0,0.0,0.0,0.0,0.0,0.0,0.0,0.0,0.0,0.0,0.0,0.0,0.0,0.0,0.0,0.0,0.0,0.0,0.0,0.0,0.0,0.0,0.0,0.0,0.0,0.0,0.0,0.0,0.0,0.0,0.0,0.0,0.0,2.0729,2.3265,2.5013,2.5043,2.5069,2.5105,2.522,2.4165,2.2895,2.146,0.0,0.0,0.0,0.0,0.0,0.0,0.0,0.0,0.0,0.0,0.0,0.0,0.0,0.0,0.0,0.0,0.0,0.0,0.0,0.0,0.0,0.0,0.0,0.0,0.0,0.0,0.0,0.0,0.0,0.0,0.0,0.0,0.0,0.0,0.0,0.0,0.0,0.0,0.0,0.0,0.0,0.0,0.0,0.0,0.0,0.0,0.0,0.0,0.0,0.0,0.0,0.0,0.0,0.0,0.0,0.0,0.0,0.0,0.0,0.0,0.0,0.0,0.0,0.0,0.0,0.0,0.0,0.0,0.0,0.0,0.0,0.0,0.0,0.0,0.0,0.0,0.0,0.0,0.0,0.0,0.0,0.0,0.0,0.0,0.0,0.0,0.0,0.0,0.0,0.0,0.0,0.0,0.0,0.0,0.0,0.0,0.0,0.0,0.0,0.0,0.0,0.0,2.1132,2.3511,2.5115,2.5115,2.5115,2.5157,2.5236,2.4422,2.3195,2.1507,0.0,0.0,0.0,0.0,0.0,0.0,0.0,0.0,0.0,0.0,0.0,0.0,0.0,0.0,0.0,0.0,0.0,0.0,0.0,0.0,0.0,0.0,0.0,0.0,0.0,0.0,0.0,0.0,0.0,0.0,0.0,0.0,0.0,0.0,0.0,0.0,0.0,0.0,0.0,0.0,0.0,0.0,0.0,0.0,0.0,0.0,0.0,0.0,0.0,0.0,0.0,0.0,0.0,0.0,0.0,0.0,0.0,0.0,0.0,0.0,0.0,0.0,0.0,0.0,0.0,0.0,0.0,0.0,0.0,0.0,0.0,0.0,0.0,0.0,0.0,0.0,0.0,0.0,0.0,0.0,0.0,0.0,0.0,0.0,0.0,0.0,0.0,0.0,0.0,0.0,0.0,0.0,0.0,0.0,0.0,0.0,0.0,0.0,0.0,0.0,0.0,0.0,2.1304,2.3697,2.5308,2.5308,2.5308,2.5308,2.5308,2.4567,2.3337,2.1516,0.0,0.0,0.0,0.0,0.0,0.0,0.0,0.0,0.0,0.0,0.0,0.0,0.0,0.0,0.0,0.0,0.0,0.0,0.0,0.0,0.0,0.0,0.0,0.0,0.0,0.0,0.0,0.0,0.0,0.0,0.0,0.0,0.0,0.0,0.0,0.0,0.0,0.0,0.0,0.0,0.0,0.0,0.0,0.0,0.0,0.0,0.0,0.0,0.0,0.0,0.0,0.0,0.0,0.0,0.0,0.0,0.0,0.0,0.0,0.0,2.1981,2.1184,0.0,0.0,0.0,0.0,0.0,0.0,0.0,0.0,0.0,0.0,0.0,0.0,0.0,0.0,0.0,0.0,0.0,0.0,0.0,0.0,0.0,0.0,0.0,0.0,0.0,0.0,0.0,0.0,0.0,0.0,0.0,0.0,0.0,0.0,0.0,0.0,0.0,0.0,0.0,0.0,2.2127,2.4075,2.5308,2.5308,2.5308,2.5308,2.5308,2.4567,2.3351,2.1583,2.0457,0.0,0.0,0.0,0.0,0.0,0.0,0.0,0.0,0.0,0.0,0.0,0.0,0.0,0.0,0.0,0.0,0.0,0.0,0.0,0.0,0.0,0.0,0.0,0.0,0.0,0.0,0.0,0.0,0.0,0.0,0.0,0.0,0.0,0.0,0.0,0.0,0.0,0.0,0.0,0.0,0.0,0.0,0.0,0.0,0.0,0.0,0.0,0.0,0.0,0.0,0.0,0.0,0.0,0.0,0.0,0.0,0.0,0.0,0.0,2.478,2.3934,0.0,0.0,0.0,0.0,0.0,0.0,0.0,0.0,0.0,0.0,0.0,0.0,0.0,0.0,0.0,0.0,0.0,0.0,0.0,0.0,0.0,0.0,0.0,0.0,0.0,0.0,0.0,0.0,0.0,0.0,0.0,0.0,0.0,0.0,0.0,0.0,0.0,0.0,0.0,0.0,2.2427,2.4185,2.5308,2.5308,2.5308,2.5308,2.5308,2.4928,2.412,2.2836,2.1513,0.0,0.0,0.0,0.0,0.0,0.0,0.0,0.0,0.0,0.0,0.0,0.0,0.0,0.0,0.0,0.0,0.0,0.0,0.0,0.0,0.0,0.0,0.0,0.0,0.0,0.0,0.0,0.0,0.0,0.0,0.0,0.0,0.0,0.0,0.0,0.0,0.0,0.0,0.0,0.0,0.0,0.0,0.0,0.0,0.0,0.0,0.0,0.0,0.0,0.0,0.0,0.0,0.0,2.7136,2.7945,2.8565,2.9391,3.0023,3.0345,2.7858,2.73,2.8094,2.6759,0.0,0.0,0.0,0.0,0.0,0.0,0.0,0.0,0.0,0.0,0.0,0.0,0.0,0.0,0.0,0.0,0.0,0.0,0.0,0.0,0.0,0.0,2.4865,2.4764,2.5383,2.5239,2.2471,0.0,0.0,0.0,0.0,0.0,0.0,0.0,0.0,0.0,0.0,0.0,2.2926,2.4636,2.575,2.575,2.5615,2.5538,2.5538,2.5385,2.4966,2.4149,2.2605,2.1043,0.0,0.0,0.0,0.0,0.0,0.0,0.0,0.0,0.0,0.0,0.0,0.0,0.0,0.0,0.0,0.0,0.0,0.0,0.0,0.0,0.0,0.0,0.0,0.0,0.0,0.0,0.0,0.0,0.0,0.0,0.0,0.0,1.5036,1.5485,0.0,0.0,0.0,0.0,0.0,0.0,0.0,0.0,0.0,0.0,0.0,0.0,0.0,2.4099,2.6059,2.7489,2.8936,3.0403,3.1807,3.2536,3.2638,3.276,3.251,3.1989,3.1599,0.0,2.9717,2.8908,0.0,0.0,0.0,0.0,0.0,0.0,0.0,0.0,0.0,0.0,0.0,0.0,0.0,0.0,0.0,0.0,0.0,0.0,0.0,0.0,0.0,0.0,2.7409,2.6721,2.6864,2.7044,2.6609,2.4202,2.2287,2.2815,2.1318,1.968,0.0,0.0,0.0,0.0,0.0,0.0,2.4662,2.6439,2.7563,2.7563,2.689,2.6428,2.6428,2.5731,2.4966,2.4149,2.3163,2.2197,2.1216,1.9565,0.0,0.0,0.0,0.0,0.0,0.0,0.0,0.0,0.0,0.0,0.0,0.0,0.0,0.0,0.0,0.0,0.0,0.0,0.0,0.0,0.0,0.0,0.0,0.0,0.0,0.0,0.0,0.0,0.0,1.4212,1.589,1.6567,1.7186,1.7368,0.0,0.0,0.0,0.0,0.0,0.0,0.0,0.0,0.0,2.4247,2.5497,2.7152,2.9258,3.0497,3.1553,3.2459,3.3508,3.4015,3.4032,3.4455,3.4537,3.4363,3.4363,3.3591,3.2188,3.0931,2.9824,2.887,0.0,0.0,0.0,0.0,2.8375,2.8237,2.9686,2.9752,2.9033,2.8212,0.0,0.0,0.0,0.0,0.0,0.0,0.0,2.6392,2.7761,2.8695,2.9365,2.9678,2.9495,2.9328,2.9535,2.7687,2.5799,2.5221,2.4167,2.2678,2.0574,2.0596,0.0,0.0,0.0,2.4549,2.5776,2.7083,2.7895,2.7895,2.7563,2.7121,2.664,2.625,2.5673,2.4832,2.399,2.3355,2.299,2.1316,1.985,0.0,0.0,0.0,0.0,0.0,0.0,0.0,0.0,0.0,0.0,0.0,0.0,0.0,0.0,0.0,0.0,0.0,0.0,0.0,0.0,0.0,0.0,0.0,0.0,0.0,0.0,0.0,0.0,1.5281,1.6663,1.7457,1.8317,1.8658,0.0,0.0,0.0,0.0,0.0,0.0,2.2194,2.3518,2.4962,2.6575,2.8208,2.9881,3.1665,3.2416,3.3156,3.383,3.4577,3.4874,3.481,3.5616,3.5885,3.5724,3.5771,3.5266,3.4273,3.2995,3.1757,3.0645,3.03,2.9425,2.8561,3.0011,3.0402,3.0389,3.181,3.2036,3.1513,3.0308,2.9384,2.8496,2.7302,0.0,0.0,0.0,0.0,2.8026,3.0048,3.0628,3.0936,3.1844,3.1618,3.125,3.1324,3.0368,2.8984,2.7281,2.6704,2.5663,2.3092,2.3168,0.0,2.275,2.4506,2.62,2.705,2.7978,2.8544,2.8544,2.8332,2.7928,2.7294,2.6851,2.6327,2.5673,2.4851,2.4413,2.4413,2.2966,2.1677,2.0635,0.0,0.0,0.0,0.0,0.0,0.0,0.0,0.0,0.0,0.0,0.0,0.0,0.0,0.0,0.0,0.0,0.0,0.0,0.0,0.0,0.0,0.0,0.0,0.0,0.0,0.0,0.0,0.0,0.0,1.822,1.9623,0.0,0.0,0.0,0.0,2.1808,2.1965,2.2996,2.5326,2.6789,2.798,2.8902,3.0298,3.1579,3.2724,3.2781,3.3558,3.5012,3.5752,3.5924,3.5566,3.6576,3.6261,3.4955,3.5163,3.5302,3.5397,3.5123,3.3317,3.0766,3.1422,3.0872,2.9823,3.0871,3.0988,3.0818,3.1928,3.2406,3.2528,3.2454,3.188,3.1213,3.1121,3.0008,0.0,0.0,3.0728,3.0408,3.1295,3.1811,3.2108,3.2184,3.2402,3.2404,3.1647,3.1412,3.0845,2.9104,2.8102,2.7281,2.6469,0.0,2.6236,2.6311,2.7154,2.8063,2.8871,2.9731,3.0269,3.0269,2.9525,2.9011,2.8973,2.7525,2.6582,2.6544,2.5712,2.525,2.525,2.4413,2.3163,2.1466,2.0654,0.0,0.0,0.0,0.0,0.0,0.0,0.0,0.0,0.0,0.0,0.0,0.0,0.0,0.0,0.0,0.0,0.0,0.0,0.0,0.0,0.0,0.0,0.0,0.0,0.0,0.0,0.0,0.0,2.0298,2.1512,0.0,2.2213,2.2365,2.2884,2.3888,2.4529,2.5682,2.7585,2.8592,2.9704,3.1112,3.1659,3.2406,3.3496,3.3496,3.4127,3.5366,3.5613,3.5894,3.6191,3.6867,3.7033,3.6854,3.7222,3.7307,3.7186,3.7105,3.5564,3.3296,3.3558,3.2845,3.1833,3.324,3.3228,3.2629,3.3531,3.3647,3.3293,3.2766,3.2063,3.1397,3.1397,3.1072,3.0892,3.1998,3.2187,3.2256,3.3072,3.3383,3.3541,3.3705,3.3507,3.3255,3.3131,3.2746,3.2225,3.1591,2.9826,2.823,2.7547,2.7407,2.7382,2.7428,2.8145,2.8992,2.9833,3.0212,3.0404,3.0404,3.0115,2.9717,2.9146,2.8088,2.7198,2.664,2.5788,2.5308,2.5308,2.5019,2.4062,2.237,2.1504,2.0096,0.0,0.0,0.0,0.0,0.0,0.0,0.0,0.0,0.0,0.0,0.0,0.0,0.0,0.0,0.0,0.0,0.0,0.0,0.0,0.0,0.0,0.0,0.0,0.0,0.0,1.8188,1.9963,2.1243,2.2701,2.3689,2.3851,2.4353,2.504,2.5876,2.6732,2.7821,2.921,3.0136,3.1152,3.226,3.2529,3.299,3.3694,3.3918,3.4462,3.5301,3.5815,3.6277,3.6765,3.7469,3.7928,3.8151,3.835,3.8314,3.8058,3.7549,3.6443,3.5074,3.5074,3.4375,3.3509,3.457,3.4399,3.374,3.4446,3.4594,3.4357,3.3638,3.3041,3.2572,3.2347,3.233,3.2526,3.3118,3.3375,3.3599,3.4139,3.4293,3.4386,3.4556,3.4298,3.3979,3.3881,3.3513,3.313,3.2883,3.122,2.9698,2.9264,2.8948,2.8736,2.8736,2.9198,2.9756,3.0327,3.0404,3.0404,3.0404,3.0404,3.0173,2.9583,2.8525,2.764,2.7082,2.5942,2.5308,2.5308,2.5038,2.4235,2.2836,2.1677,2.0673,1.9842,0.0,0.0,0.0,0.0,0.0,0.0,0.0,0.0,0.0,0.0,0.0,0.0,0.0,0.0,0.0,0.0,0.0,0.0,0.0,0.0,0.0,0.0,0.0,1.6973,1.8739,2.0242,2.0999,2.3188,2.4596,2.4497,2.5447,2.6574,2.7757,2.8474,2.9257,3.0196,3.1564,3.2307,3.2323,3.2945,3.3309,3.3324,3.3972,3.452,3.4967,3.6421,3.7134,3.7261,3.8477,3.8849,3.8577,3.8269,3.8143,3.8003,3.6494,3.5862,3.5862,3.581,3.5355,3.4706,3.4741,3.4394,3.4013,3.4558,3.52,3.5708,3.5213,3.5041,3.4922,3.4242,3.4035,3.4073,3.4191,3.4305,3.4416,3.4416,3.4506,3.4612,3.4612,3.4701,3.4604,3.3809,3.3732,3.3625,3.292,3.223,3.1763,3.1737,3.1038,3.0481,3.0481,3.0462,0.0,3.0442,3.0423,3.0404,3.0404,3.0404,3.0404,3.0404,2.8852,2.7895,2.7895,2.625,2.5308,2.5346,2.4567,2.3721,2.2855,2.1196,2.0731,2.1543,0.0,0.0,0.0,0.0,0.0,0.0,0.0,0.0,0.0,0.0,0.0,0.0,0.0,0.0,0.0,0.0,0.0,0.0,0.0,0.0,0.0,1.662,1.7631,1.8215,2.0099,2.1829,2.2968,2.4605,2.5766,2.6167,2.7137,2.808,2.8912,2.9484,3.0369,3.1659,3.2086,3.2529,3.3008,3.3198,3.353,3.402,3.4209,3.4865,3.6006,3.6738,3.7353,3.7898,3.8844,3.9059,3.8679,3.9095,3.9068,3.8692,3.7822,3.7479,3.7374,3.6231,3.5355,3.4758,3.5302,3.5152,3.4762,3.5322,3.5623,3.5833,3.5904,3.5936,3.5817,3.509,3.4936,3.4921,3.446,3.445,3.4539,3.4539,3.4561,3.4612,3.4612,3.4701,3.4736,3.4518,3.4585,3.4617,3.4412,3.3751,3.3085,3.2654,3.2372,3.2218,3.2218,3.1718,3.1346,3.1346,3.0788,3.0404,3.0404,3.0404,3.0404,3.0404,2.8852,2.7895,2.7895,2.625,2.5577,2.6212,2.5423,2.4582,2.3764,2.2043,2.1581,0.0,0.0,0.0,0.0,0.0,0.0,0.0,0.0,0.0,0.0,0.0,0.0,0.0,0.0,0.0,0.0,0.0,0.0,0.0,0.0,0.0,0.0,1.7658,1.8568,1.9388,2.0735,2.2187,2.3733,2.4744,2.5795,2.6953,2.7605,2.8381,2.9494,3.0116,3.0982,3.2228,3.2576,3.2882,3.3293,3.3309,3.3482,3.3878,3.4462,3.5173,3.5995,3.7034,3.7826,3.8427,3.9206,3.9404,3.9122,3.9302,3.9085,3.8576,3.7912,3.7637,3.7549,0.0,0.0,0.0,0.0,3.5818,3.5881,3.6098,3.6387,3.6671,3.6768,3.6813,3.6589,3.5519,3.5282,3.5256,3.4594,3.4495,3.4612,3.4612,3.4612,3.4612,3.4612,3.4668,3.4711,3.4711,3.4782,3.4851,3.4908,3.4537,0.0,3.3823,3.3252,3.2805,3.2737,3.2141,3.168,3.1616,3.0899,3.0404,3.0404,3.0404,3.0404,3.0404,2.9179,0.0,0.0,0.0,2.6288,2.6058,2.5923,0.0,0.0,0.0,0.0,0.0,0.0,0.0,0.0,2.3543,2.3728,0.0,0.0,0.0,0.0,0.0,0.0,0.0,0.0,0.0,0.0,0.0,0.0,0.0,0.0,0.0,0.0,1.8595,1.9383,2.045,2.096,2.1843,2.3615,2.4272,2.5261,2.7026,2.7297,2.8012,2.9592,3.0351,3.1205,3.2193,3.2903,0.0,0.0,0.0,3.334,3.3419,3.4731,3.5454,3.5605,3.7347,3.8427,3.8871,3.9439,3.9636,3.9491,3.8963,3.8436,3.7895,3.7251,3.7007,3.7007,3.7007,3.7007,3.6919,3.6197,3.6391,3.698,3.6827,0.0,0.0,3.7658,3.7636,3.74,3.596,3.5612,3.5541,3.4785,3.4656,3.4714,3.4631,3.4612,3.4612,3.4612,3.4612,3.4612,3.4612,3.4612,3.4636,3.4762,3.4782,3.4812,3.4925,3.3846,3.2928,3.2809,3.2292,3.1853,3.1635,3.0963,3.0464,3.0374,3.0361,0.0,3.0386,2.9596,2.9107,2.9107,2.8434,2.7294,2.5654,2.6423,2.6486,2.5615,2.6356,2.7176,2.8054,2.8058,2.8188,2.8352,2.5035,2.4745,0.0,0.0,0.0,0.0,0.0,0.0,0.0,0.0,0.0,0.0,0.0,0.0,0.0,0.0,0.0,1.9117,1.98,2.0423,2.1128,2.158,2.2197,2.3208,2.4731,2.5894,2.6436,2.7331,2.8222,2.9093,2.9971,3.0908,3.1935,3.2613,3.3085,3.3309,3.3309,3.3561,3.4099,3.4968,3.5844,3.6793,3.8049,0.0,3.9269,3.9194,3.8914,3.8454,3.7924,3.7421,3.6975,3.6981,3.7007,3.7007,3.7007,3.7007,3.6989,3.6831,3.6867,3.7031,3.7214,3.7596,3.8065,3.8248,3.8531,3.8637,3.7787,3.756,0.0,3.5979,3.5631,3.5484,3.4771,3.4612,3.4612,3.4612,3.4612,3.4612,3.4612,3.4612,3.4612,3.4626,3.4636,3.4647,3.4678,3.4614,3.4547,3.4522,3.3881,3.3124,3.2403,3.1619,3.0852,3.0154,3.0169,3.0235,3.0235,2.9542,2.9107,2.9107,2.8953,2.8434,2.7448,2.8184,2.8242,2.7409,2.7552,2.8082,2.8951,2.8994,2.9736,3.1008,2.8338,2.7733,0.0,0.0,0.0,0.0,0.0,0.0,0.0,0.0,0.0,0.0,0.0,1.5131,1.6713,0.0,1.8744,1.9895,2.0328,2.0721,2.1318,2.1746,2.2456,2.3707,2.4661,2.5651,2.6842,2.724,2.788,2.8926,2.9765,3.07,3.1842,3.2549,3.3032,3.3309,3.3309,3.3467,3.3799,3.4857,3.5693,3.6266,3.798,3.8914,3.9098,3.9404,3.9067,3.8196,3.803,3.7456,3.6722,3.6908,3.7007,3.7007,3.7007,3.7007,3.7007,3.7007,3.7007,3.7046,3.7317,3.7632,3.8017,3.838,3.8725,3.8869,3.8189,3.7778,3.7262,3.6119,3.5533,3.5146,3.4714,3.4612,3.4612,3.4612,3.4612,3.4612,3.4612,3.4612,3.4612,3.4612,3.4612,3.4612,3.4612,3.4711,3.4793,3.4793,3.4225,3.3622,3.3115,3.2389,3.1727,3.1297,3.1314,3.1199,3.0779,3.0464,3.0471,3.0887,3.0956,3.0641,2.9833,3.0564,3.0621,2.9813,3.0221,3.0674,3.1149,3.1225,3.1706,3.2523,3.1278,3.0929,0.0,0.0,0.0,0.0,0.0,0.0,0.0,1.1894,1.2577,1.4327,1.5306,1.6336,1.8016,1.8714,1.9412,2.0495,2.0681,2.0843,2.1331,2.1793,2.2649,2.4122,2.4453,2.5245,2.711,2.714,2.7524,2.8642,2.9334,3.0254,3.1456,3.2224,3.281,3.3203,3.3282,3.3309,3.3309,3.4541,3.5308,3.5534,3.76,3.8712,3.8925,3.9587,3.927,3.8196,3.816,3.7629,3.6766,3.6928,3.7007,3.7007,3.7007,3.7007,3.7007,3.7007,3.7007,3.7029,3.726,3.7559,3.7913,3.83,3.8661,3.8859,3.8154,3.7578,3.6981,3.6009,3.5323,3.4808,3.4639,3.4612,3.4612,3.4612,3.4612,3.4612,3.4612,3.4612,3.4612,3.4612,3.4612,3.4612,3.4612,3.4612,3.4612,3.4612,3.4234,3.3866,3.361,3.3033,3.2612,3.245,3.2448,3.2207,3.1594,3.166,3.202,3.2663,3.2846,3.2621,3.1986,3.2595,3.262,3.1985,3.267,3.3144,3.3374,3.3436,3.3576,3.3798,3.3798,3.3666,0.9971,1.0015,1.0167,1.0398,1.0808,1.1606,0.0,1.3738,1.4398,1.642,1.6945,1.7584,1.9505,1.991,2.0248,2.1158,2.1304,2.1318,2.1385,2.1992,2.2723,2.3517,2.4447,2.5321,2.6113,2.699,2.7604,2.7755,2.8374,2.9177,3.0171,3.1082,3.1986,3.2908,3.3176,3.3309,3.3309,3.4051,3.4934,3.5937,3.7226,3.8348,3.9322,3.9194,3.8795,3.8151,3.7288,3.6923,3.6968,3.6987,3.7007,3.7007,3.7007,3.7007,3.7007,3.7007,3.7007,3.6989,3.7029,3.7486,3.8068,3.8135,3.864,3.9109,3.8326,3.811,3.7826,3.6306,3.5811,3.5578,3.4789,3.4612,3.4612,3.4612,3.4612,3.4612,3.4612,3.4612,3.4612,3.4612,3.4612,3.4612,3.4612,3.4612,3.4612,3.4612,3.454,3.426,3.3515,3.3337,3.3,3.223,3.2251,3.2341,3.2357,3.2493,3.2606,3.2701,3.2872,3.2943,3.2866,3.2993,3.3044,3.2947,3.3098,3.3571,3.4347,3.4356,3.4765,3.5523,3.5523,3.5096,1.0513,1.0322,1.0382,1.1552,1.2006,1.2572,1.4075,1.461,1.5151,1.6404,1.7393,1.8302,1.9235,1.9943,2.0556,2.1091,2.118,2.1229,2.1375,2.1864,2.2395,2.2869,2.421,2.5413,2.6283,2.7111,2.76,2.76,2.8203,2.9008,2.9943,3.0735,3.1709,3.2854,3.3005,3.3123,3.3309,3.3957,3.4761,3.5669,3.7037,3.8159,3.9044,3.9471,3.9117,3.8128,3.6973,3.6606,3.6826,3.6948,3.7007,3.7007,3.7007,3.7007,3.7007,3.7007,3.7007,3.7007,3.7007,3.7299,3.7739,3.8017,3.8486,3.8841,3.8268,3.7872,3.7361,3.6216,3.5522,3.5052,3.4677,3.4612,3.4612,3.4612,3.4612,3.4612,3.4612,3.4612,3.4612,3.4612,3.4612,3.4612,3.4612,3.4612,3.4612,3.4612,3.4612,3.447,3.4132,3.4095,3.3963,3.3588,3.3188,3.3146,3.3676,3.342,3.3466,3.3999,3.4225,3.4398,3.4511,3.4536,3.4549,3.4549,3.4618,3.4836,3.5204,3.5234,3.5445,3.5795,3.5795,3.56,1.0541,1.0477,1.0834,1.2499,1.312,1.3627,1.4801,1.5404,1.5915,1.6569,1.7574,1.8467,1.877,1.9625,2.0363,2.0622,2.0803,2.0983,2.1253,2.1722,2.2156,2.2466,2.3961,2.5316,2.6234,2.7106,2.76,2.76,2.8064,2.8771,2.9838,3.0406,3.1347,3.2715,3.264,3.2828,3.3309,3.3783,3.4478,3.5422,3.6956,3.8095,3.8816,3.9293,3.9033,3.8128,3.6783,3.6402,3.6722,3.6866,3.6948,3.7007,3.7007,3.7007,3.7007,3.7007,3.7007,3.7007,3.7007,3.7184,3.7467,3.7879,3.8314,3.8571,3.8162,3.7567,3.6876,3.6111,3.5277,3.4612,3.4612,3.4612,3.4612,3.4612,3.4612,3.4612,3.4612,3.4612,3.4612,3.4612,3.4612,3.4612,3.4612,3.4612,3.4612,3.4612,3.4612,3.4612,3.4612,3.4612,3.4612,3.4612,3.4076,3.3963,3.4545,3.4214,3.4291,3.4985,3.5254,3.5457,3.5626,3.5643,3.5654,3.5654,3.5708,3.5727,3.5727,3.5778,3.5795,3.5795,3.5795,3.5795,0.9913,1.0531,1.1558,1.2868,1.3922,1.4884,1.5752,1.6427,1.7004,1.7555,1.7686,1.7913,1.8498,1.9076,1.9534,1.9786,2.0268,2.0723,2.0959,2.1636,2.2212,2.2466,2.3759,2.4866,2.557,2.6811,2.76,2.76,2.7615,2.8199,2.9532,2.9887,3.0746,3.2351,3.2035,3.2311,3.3293,3.3324,3.4036,3.5422,3.6956,3.8095,3.8783,3.8229,3.8041,3.8128,3.6647,3.6272,3.6702,3.6702,3.6826,3.7007,3.7007,3.7007,3.7007,3.7007,3.7007,3.7007,3.7007,3.7184,3.7466,3.7721,3.8135,3.8423,3.803,3.7446,3.6764,3.6088,3.5277,3.4612,3.4612,3.4612,3.4612,3.4612,3.4612,3.4612,3.4612,3.4612,3.4612,3.4612,3.4612,3.4612,3.4612,3.4612,3.4612,3.4612,3.4612,3.4612,3.4612,3.4612,3.4612,3.4612,3.4594,3.4564,3.4612,3.4822,3.5005,3.5098,3.5419,3.5629,3.5679,3.5769,3.5791,3.5791,3.5791,3.5795,3.5795,3.5795,3.5795,3.5795,3.5795,3.5795,1.0074,1.0735,1.1861,1.3565,1.4255,1.4827,1.6061,1.649,1.6679,1.6869,1.7223,1.7561,1.7774,1.8244,1.8797,1.942,1.9687,2.0093,2.0881,2.1798,2.239,2.2486,2.3894,2.5056,2.5561,2.6408,2.7121,2.757,2.76,2.8184,2.9532,2.9672,3.0558,3.2351,3.2264,3.2562,3.3293,3.3309,3.4004,3.5422,3.7447,3.8706,3.9172,3.8295,3.7953,3.7922,3.6575,3.617,3.6444,3.6623,3.6826,3.7007,3.7007,3.7007,3.7007,3.7007,3.7007,3.7007,3.7007,3.7066,3.7222,3.765,3.8,3.8202,3.7974,3.7434,3.6764,3.6088,3.5691,3.5465,3.5465,3.5465,3.5465,3.5465,3.5015,3.4612,3.4612,3.4612,3.4612,3.4612,3.4612,3.4612,3.4612,3.4612,3.4612,3.4612,3.4612,3.4612,3.4612,3.4612,3.4612,3.4612,3.4612,3.4612,3.4612,3.4753,3.4935,3.5098,3.532,3.5535,3.5684,3.5754,3.5795,3.5795,3.5795,3.5795,3.5795,3.5795,3.5795,3.5814,3.6397,3.6653,1.0674,1.1246,1.2121,1.396,1.4438,1.4761,1.6034,1.6315,1.6371,1.6479,1.666,1.6785,1.6785,1.7225,1.7823,1.8567,1.9023,1.9641,2.0706,2.1648,2.229,2.2486,2.3903,2.4952,2.5209,2.6063,2.6881,2.754,2.76,2.8184,2.9532,2.9606,3.0464,3.2351,3.1921,3.2066,3.2929,3.2929,3.3985,3.6039,3.7903,3.9007,3.9385,3.8369,3.7905,3.7821,3.6441,3.6041,3.6322,3.6502,3.6728,3.7007,3.7007,3.7007,3.7007,3.7007,3.7007,3.7007,3.7007,3.7007,3.7087,3.7632,3.7897,3.8044,3.8206,3.7782,3.7181,3.6793,3.652,3.6329,3.6329,3.6329,3.6254,3.5972,3.5465,3.4977,3.4658,3.4612,3.4612,3.4612,3.4612,3.4612,3.4612,3.4612,3.4612,3.4612,3.4612,3.4612,3.4612,3.4612,3.4612,3.4612,3.4612,3.4612,3.4612,3.4772,3.4953,3.5127,3.536,3.5546,3.5727,3.6073,3.6261,3.6261,3.6261,3.6261,3.6261,3.595,3.595,3.628,3.6848,3.7275,1.1537,1.1984,1.2434,1.4064,1.4478,1.4743,1.571,1.5952,1.6027,1.6339,1.5999,1.5655,1.5655,1.6107,1.6672,1.7272,1.8267,1.9344,2.0393,2.121,2.1931,2.2463,2.3737,2.4612,2.4694,2.5824,2.6851,2.754,2.76,2.8169,2.9487,2.9592,3.0449,3.2305,3.1094,3.1016,3.2339,3.2386,3.3969,3.7033,3.8204,3.8974,3.9332,3.8403,3.7939,3.7821,3.6309,3.5905,3.6301,3.6301,3.6588,3.7007,3.7007,3.7007,3.7007,3.7007,3.7007,3.7007,3.7007,3.7007,3.7087,3.7632,3.7809,3.793,3.868,3.8423,3.7944,3.807,3.7648,3.7167,3.7167,3.7167,3.6979,3.6197,3.5991,3.5728,3.4846,3.4669,3.4639,3.4612,3.4612,3.4612,3.4612,3.4612,3.4612,3.4612,3.4612,3.4612,3.4612,3.4612,3.4612,3.4612,3.4612,3.4612,3.4612,3.4841,3.5056,3.52,3.545,3.5654,3.5791,3.6595,3.7023,3.7023,3.7023,3.7023,3.7023,3.6241,3.628,3.71,3.7197,3.7683,1.1256,1.1908,1.2872,1.375,1.4142,1.4379,1.4724,1.5117,1.5337,1.5061,1.5052,1.5097,1.5097,1.553,1.6082,1.6647,1.7677,1.8714,1.9577,2.1038,2.2246,2.2865,2.3667,2.4669,2.5965,2.5959,2.6333,2.751,2.76,2.7974,2.8801,2.9337,3.0238,3.1613,3.1797,3.2237,3.304,3.3556,3.4481,3.5844,3.7302,3.8329,3.8963,3.8799,3.8413,3.7855,3.6891,3.6416,3.6301,3.6301,3.6588,3.7007,3.7007,3.7007,3.7007,3.7007,3.7007,3.7007,3.7007,3.7007,3.7087,3.7632,3.7809,3.793,3.868,3.8423,3.7944,3.807,3.8041,3.8,3.8,3.8,3.7943,3.7737,3.723,3.6566,3.5747,3.5578,3.5371,3.4733,3.4612,3.4612,3.4612,3.4612,3.4612,3.4612,3.4612,3.4612,3.4612,3.4612,3.4612,3.4612,3.4612,3.4612,3.4612,3.4841,3.5056,3.52,3.545,3.5654,3.5791,3.6008,3.6125,3.6125,3.6125,3.6125,3.6125,3.6556,3.6887,3.7139,3.8441,3.9159,1.1758,1.2314,1.2992,1.3433,1.3637,1.3774,1.3824,1.4057,1.419,1.3873,1.3908,1.3982,1.3835,1.4657,1.5449,1.5743,1.7149,1.8535,1.9455,2.0803,2.1983,2.2743,2.3817,2.4702,2.5247,2.6004,2.6542,2.6692,2.727,2.8019,2.8981,2.9412,3.0217,3.1622,3.1854,3.2098,3.2392,3.3056,3.3794,3.4494,3.6491,3.7742,3.8324,3.857,3.8579,3.8345,3.7601,3.703,3.6668,3.6737,3.6821,3.6886,3.6968,3.7007,3.7007,3.7007,3.7007,3.7007,3.7007,3.7007,3.7087,3.7632,3.7809,3.7931,3.8606,3.8596,3.8354,3.8419,3.8592,3.874,3.874,3.8796,3.877,3.8394,3.7962,3.7305,3.616,3.5897,3.5634,3.4771,3.4612,3.4612,3.4612,3.4612,3.4612,3.4612,3.4612,3.4612,3.4612,3.4612,3.4612,3.4612,3.4612,3.4612,3.4612,3.4841,3.5039,3.5159,3.5445,3.5643,3.5741,3.6118,3.6341,3.6377,3.6377,3.6556,3.6945,3.7042,3.7489,3.8266,3.9232,3.9893,1.2524,1.2842,1.2944,1.3132,1.313,1.3083,1.2924,1.288,1.2839,1.2644,1.2636,1.2616,1.2398,1.3634,1.472,1.489,1.6622,1.8367,1.948,2.0489,2.1459,2.2473,2.3998,2.4667,2.3947,2.6057,2.7001,2.5824,2.6896,2.8109,2.9277,2.9517,3.0343,3.2007,3.1701,3.1451,3.1365,3.1896,3.2544,3.3324,3.5604,3.6988,3.758,3.7989,3.843,3.8819,3.8176,3.7657,3.7302,3.7359,3.7205,3.6885,3.6963,3.7007,3.7007,3.7007,3.7007,3.6989,3.6884,3.6919,3.7087,3.7632,3.7809,3.7914,3.8533,3.8777,3.891,3.891,3.9073,3.9272,3.9298,3.9439,3.9377,3.8657,3.8469,3.8037,3.6404,3.5878,3.5503,3.4752,3.4612,3.4612,3.4612,3.4612,3.4612,3.4612,3.4612,3.4612,3.4612,3.4612,3.4612,3.4612,3.4612,3.4612,3.4612,3.4841,3.5032,3.5098,3.5416,3.5631,3.5704,3.6426,3.6861,3.6925,3.7042,3.7469,3.8231,3.7702,3.8227,3.9699,3.9815,4.0228,1.2359,1.2607,1.2905,1.2944,1.2825,1.2544,1.1923,1.1819,1.1685,1.1049,1.1272,1.1698,1.2086,1.2888,1.3792,1.4745,1.5969,1.7273,1.8624,1.982,2.1144,2.2784,2.375,2.4534,2.5179,2.6168,2.6686,2.6437,2.7165,2.7705,2.7929,2.9007,3.0437,3.2269,3.2221,3.2126,3.2117,3.1618,3.2045,3.3309,3.413,3.5344,3.6806,3.726,3.7693,3.8091,3.7973,3.8063,3.8291,3.7671,3.7585,3.7804,3.7216,3.7007,3.7007,3.7007,3.7007,3.6902,3.625,3.6443,3.7087,3.7632,3.7809,3.7914,3.8533,3.8777,3.891,3.891,3.9003,3.917,3.9272,3.9324,3.9357,3.9377,3.9364,3.8913,3.726,3.5796,3.4771,3.4631,3.4612,3.4612,3.4612,3.4612,3.4612,3.4612,3.4612,3.4612,3.4612,3.4612,3.4612,3.4612,3.4612,3.4612,3.4612,3.4841,3.5032,3.5098,3.5416,3.5631,3.5704,3.5844,3.5964,3.6028,3.6731,3.7178,3.7333,3.8615,3.9407,3.9718,4.0383,4.0771,1.2559,1.2559,1.2598,1.2846,1.249,1.1892,1.1156,0.0,0.0,0.973,1.0167,1.0669,1.0645,1.1819,1.2918,1.3373,1.4694,1.6262,1.7958,1.9032,2.0338,2.2118,2.3497,2.4442,2.4781,2.6221,2.6986,2.6641,2.7225,2.775,2.8109,2.9158,3.0418,3.1828,3.1649,3.1587,3.1729,3.1381,3.1365,3.1706,3.2823,3.384,3.4715,3.5671,3.6233,3.6488,3.7174,3.7604,3.7835,3.8091,3.8082,3.7933,3.7667,3.7341,3.7007,3.7007,3.7007,3.6884,3.6092,3.6038,3.6469,3.7041,3.7503,3.7807,3.7842,3.831,3.881,3.881,3.8896,3.9036,3.917,3.9245,3.9356,3.9564,3.8932,3.8087,3.7279,3.5777,3.4612,3.4612,3.4612,3.4612,3.4612,3.4612,3.4612,3.4612,3.4612,3.4612,3.4612,3.4612,3.4612,3.4612,3.4612,3.4612,3.4612,3.4841,3.5015,3.5058,3.536,3.5578,3.5644,3.5649,3.5704,3.5795,3.6653,3.7314,3.778,3.9062,3.9912,4.0325,4.0713,4.0907,1.2646,1.2559,1.2408,1.2676,1.2171,1.1402,1.0666,1.0225,0.9715,0.8818,0.9283,0.9775,0.947,1.0779,1.199,1.2226,1.3598,1.5345,1.7329,1.8403,1.9595,2.124,2.3104,2.4235,2.4113,2.6094,2.7165,2.6632,2.7225,2.7925,2.864,2.9383,3.0311,3.1431,3.1099,3.0983,3.1198,3.1065,3.0717,3.022,3.1589,3.2401,3.2692,3.3879,3.4579,3.4948,3.6084,3.6818,3.7254,3.8057,3.8202,3.7868,3.7857,3.7496,3.6989,3.6814,3.6744,3.6621,3.5634,3.5406,3.5606,3.5987,3.6768,3.7537,3.7469,3.8037,3.8707,3.8707,3.878,3.8877,3.9059,3.9183,3.9317,3.9552,3.8312,3.711,3.711,3.5777,3.4612,3.4612,3.4612,3.4612,3.4612,3.4612,3.4612,3.4612,3.4612,3.4612,3.4612,3.4612,3.4612,3.4612,3.4612,3.4604,3.4636,3.486,3.5025,3.5051,3.5503,3.5721,3.5602,3.5966,3.6154,3.6086,3.712,3.7994,3.8678,3.9548,4.0286,4.0907,4.0907,4.0907,1.2252,1.2549,1.2734,1.2359,1.1924,1.1402,1.0666,0.0,0.9342,0.8584,0.8798,0.9246,0.9666,1.0068,1.0849,1.2555,1.338,1.4555,1.6671,1.8143,1.9472,2.0712,2.248,2.3717,2.4069,2.5655,2.6686,2.6587,2.7225,2.8001,2.891,2.9266,3.016,3.1721,3.1369,3.1198,3.1198,3.0591,3.0267,3.0204,3.0354,3.0951,3.1918,3.2343,3.3129,3.4146,3.4762,3.5947,3.7422,3.6991,3.7306,3.8,3.7356,3.706,3.6919,3.618,3.5897,3.5704,3.4213,3.4178,3.4725,3.4285,3.5359,3.7011,3.8206,3.8618,3.8707,3.8707,3.8707,3.878,3.9031,3.9115,3.9197,3.9508,3.8312,3.711,3.711,3.5777,3.4612,3.4612,3.4612,3.4612,3.4612,3.4612,3.4612,3.4612,3.4612,3.4612,3.4612,3.4612,3.4612,3.4612,3.4612,3.4647,3.4782,3.4926,3.5088,3.5261,3.6161,3.6369,3.5626,3.719,3.7705,3.6984,3.8615,3.9504,3.9582,4.0383,4.083,4.0907,4.0907,4.0907,1.2157,1.233,1.2428,1.2252,1.1504,1.0675,1.0086,0.9506,0.8927,0.8398,0.8653,0.9012,0.9068,0.937,1.002,1.1269,1.1913,1.3002,1.5154,1.6501,1.7874,1.951,2.1336,2.2974,2.4226,2.5487,2.6515,2.7156,2.745,2.7821,2.8374,2.8648,2.9336,3.0557,3.0979,3.1198,3.1198,3.139,3.1042,3.0204,3.0386,3.0392,3.0202,3.098,3.1472,3.1791,3.3094,3.4341,3.5483,3.5941,3.6363,3.6687,3.6391,3.6285,3.6197,3.5425,3.5425,3.5582,3.4038,3.3811,3.4216,3.4166,3.4765,3.5779,3.7273,3.7848,3.7988,3.7988,3.7988,3.7919,3.7715,3.8137,3.8521,3.8176,3.7598,3.6979,3.6479,3.5428,3.4612,3.4612,3.4612,3.4612,3.4612,3.4612,3.4612,3.4612,3.4612,3.4612,3.4612,3.4612,3.4612,3.4612,3.4612,3.4658,3.4802,3.4907,3.5088,3.5285,3.6232,3.667,3.6386,3.7621,3.8176,3.7897,3.9082,3.9699,3.9699,4.0519,4.0907,4.0907,4.0907,4.0907,1.1701,1.1843,1.1866,1.183,1.1143,1.0322,0.9737,0.9233,0.8782,0.8297,0.8583,0.8847,0.8642,0.8933,0.9454,1.0175,1.0927,1.2102,1.3998,1.5452,1.6912,1.8451,2.034,2.2205,2.3977,2.5544,2.6802,2.753,2.76,2.775,2.8103,2.8314,2.8826,2.9786,3.0696,3.1198,3.1198,3.1943,3.169,3.0504,3.0544,3.0154,2.9461,3.0082,3.03,3.0286,3.1718,3.2874,3.3807,3.4673,3.5211,3.5478,3.5478,3.5478,3.539,3.4618,3.467,3.4932,3.3634,3.3301,3.3559,3.4117,3.4282,3.4558,3.6328,3.6991,3.7144,3.7144,3.7202,3.7183,3.6814,3.7318,3.7793,3.7223,3.6922,3.6603,3.6028,3.5221,3.4612,3.4612,3.4612,3.4612,3.4612,3.4612,3.4612,3.4612,3.4612,3.4612,3.4612,3.4612,3.4612,3.4612,3.4612,3.4658,3.4802,3.4889,3.5044,3.5277,3.6219,3.6813,3.6895,3.8063,3.8734,3.8771,3.9625,4.0053,4.0053,4.0616,4.0907,4.0907,4.0907,4.1043,1.0753,1.1006,1.1082,1.0952,1.0897,1.0674,0.9806,0.9394,0.9007,0.8329,0.8474,0.8687,0.8603,0.882,0.9169,0.9721,1.0931,1.2236,1.3521,1.5555,1.7127,1.7746,1.9584,2.1472,2.3154,2.5903,2.7585,2.76,2.76,2.7825,2.8363,2.8411,2.8826,2.9786,3.0696,3.1198,3.1198,3.1943,3.1943,3.1167,3.0512,3.0204,3.0172,2.9774,2.9826,3.0231,3.0781,3.174,3.294,3.3147,3.3821,3.4705,3.4705,3.4705,3.46,3.381,3.3529,3.3424,3.2669,3.2406,3.2614,3.389,3.3764,3.3532,3.5659,3.6303,3.6303,3.6303,3.6509,3.6705,3.6699,3.692,3.711,3.711,3.6479,3.5916,3.5897,3.5221,3.4612,3.4612,3.4612,3.4612,3.4612,3.4612,3.4612,3.4612,3.4612,3.4612,3.4612,3.4612,3.4612,3.4612,3.4612,3.4658,3.4802,3.4793,3.4945,3.5277,3.6178,3.6755,3.6889,3.868,3.9679,3.9679,4.048,4.0888,4.0888,4.0907,4.0907,4.0907,4.0907,4.1354,0.9935,1.0486,1.0823,1.0176,0.9806,0.9463,0.8906,0.8539,0.8329,0.8389,0.8453,0.8575,0.882,0.8792,0.9112,1.0293,1.1219,1.2281,1.3638,1.5599,1.7183,1.7987,2.0777,2.3032,2.4016,2.582,2.7121,2.757,2.76,2.7675,2.7825,2.8201,2.8682,2.9297,3.0085,3.0733,3.1198,3.1943,3.2181,3.1959,3.1738,3.1374,3.0884,3.0748,3.0745,3.0904,3.1197,3.1639,3.2163,3.2366,3.2721,3.3125,3.3125,3.3424,3.3793,3.302,3.3073,3.3389,3.2651,3.249,3.2674,3.3085,3.3281,3.3495,3.4182,3.4873,3.5408,3.5408,3.5204,3.4977,3.4977,3.5619,3.6122,3.5522,3.5653,3.5747,3.5146,3.4789,3.4612,3.4612,3.4612,3.4612,3.4612,3.4612,3.4612,3.4612,3.4612,3.4612,3.4612,3.4612,3.4612,3.4612,3.4612,3.4658,3.4802,3.5429,3.5919,3.6107,3.7698,3.862,3.8669,3.9864,4.0519,4.0519,4.0771,4.0907,4.0907,4.0907,4.0907,4.0907,4.0907,4.1684,0.9254,0.9683,0.9897,0.9477,0.9182,0.8896,0.8493,0.8231,0.8138,0.8354,0.841,0.8523,0.8792,0.885,0.9099,0.9861,1.09,1.2061,1.3338,1.5294,1.7182,1.8763,2.1375,2.344,2.4414,2.5771,2.6881,2.754,2.76,2.765,2.7765,2.8177,2.8565,2.8936,2.9754,3.041,3.0812,3.1523,3.2023,3.2291,3.2158,3.1951,3.1611,3.163,3.163,3.162,3.1988,3.2168,0.0,3.2418,3.2476,3.2406,3.2406,3.2669,3.302,3.2564,3.2687,3.302,3.2564,3.249,3.2606,3.2669,3.3068,3.3506,3.3591,3.4046,3.4546,3.4546,3.4373,3.4197,3.4197,3.4797,3.5277,3.4733,3.5015,3.5259,3.4714,3.4612,3.4612,3.4612,3.4612,3.4612,3.4612,3.4612,3.4612,3.4612,3.4612,3.4612,3.4612,3.4612,3.4612,3.4612,3.4883,3.5114,3.522,3.5786,3.635,3.6846,3.8078,3.9006,3.9481,4.0095,4.0558,4.0888,4.0907,4.0907,4.0907,4.0907,4.0907,4.0907,4.0907,4.184,0.0,0.8696,0.8552,0.8832,0.8916,0.8809,0.8434,0.8346,0.0,0.8241,0.8365,0.8533,0.8691,0.9019,0.9181,0.8932,1.029,1.178,1.2906,1.4949,1.7305,1.9967,2.1504,2.2894,2.4347,2.5727,2.6836,2.754,2.76,2.77,2.7955,2.8226,2.8493,2.8677,2.9611,3.0157,3.0204,3.0812,3.1492,3.2212,3.1926,3.1974,3.2336,3.2405,3.242,3.2436,3.2998,3.3138,3.2992,3.3199,3.3,3.2564,3.2564,3.2564,3.2564,3.2493,3.2476,3.2476,3.2423,3.2406,3.244,3.2654,3.3068,3.3506,3.3739,3.3807,3.3807,3.3807,3.3998,3.4197,3.4197,3.4386,3.4612,3.4612,3.4612,3.4612,3.4612,3.4612,3.4612,3.4612,3.4612,3.4612,3.4612,3.4612,3.4612,3.4612,3.4612,3.4612,3.4612,3.4612,3.462,3.4688,3.5409,3.5953,3.6066,3.6077,3.6532,3.7528,3.7725,3.8327,3.9521,3.965,4.0077,4.0888,4.0907,4.0907,4.0907,4.0907,4.0907,4.0907,4.0907,4.184,0.766,0.0,0.8358,0.8085,0.7997,0.7983,0.0,0.7866,0.7975,0.8347,0.8336,0.8627,0.9759,0.931,0.9422,1.1424,1.2042,1.2853,1.444,1.6761,1.9018,2.09,2.1918,2.2988,2.4371,2.5305,2.6318,2.751,2.76,2.7625,2.7675,2.8137,2.842,2.8468,2.9038,2.9643,3.0204,3.0378,3.078,3.146,3.1638,3.2056,3.2673,3.2699,3.3023,3.3532,3.3605,3.3679,3.3749,3.4015,3.4136,3.4144,3.4144,3.4144,3.4073,3.3459,3.3248,3.3161,3.2599,3.2406,3.2474,3.2866,3.3086,3.3268,3.3666,3.3807,3.3807,3.3807,3.3998,3.4197,3.4197,3.4386,3.4612,3.4612,3.4612,3.4612,3.4612,3.4612,3.4612,3.4612,3.4612,3.4612,3.4612,3.4612,3.4612,3.4612,3.4612,3.4612,3.4612,3.4612,3.4864,3.5522,3.5784,3.6404,3.7624,3.7875,3.8072,3.8336,3.9265,3.9954,4.0258,4.0474,4.068,4.0907,4.0907,4.0907,4.0907,4.0907,4.0907,4.0907,4.0907,4.184,0.7181,0.7799,0.8336,0.8086,0.8027,0.8027,0.8027,0.7856,0.7827,0.8266,0.0,0.8516,0.9567,0.9697,1.0133,1.1636,1.2669,1.4007,1.6098,1.8187,1.9926,2.1073,2.1978,2.2921,2.3956,2.4982,2.6033,2.7061,2.742,2.76,2.76,2.7989,2.8275,2.8411,2.874,2.9171,2.969,2.9374,2.9564,3.0235,3.0309,3.0679,3.1339,3.1682,3.2424,3.3428,3.3768,3.4186,3.4579,3.4911,3.491,3.4706,3.4706,3.4706,3.46,3.3792,3.3512,3.3389,3.2651,3.2456,3.2607,3.2977,3.3178,3.3342,3.368,3.3807,3.3807,3.3807,3.3998,3.4197,3.4197,3.4386,3.4612,3.4612,3.4612,3.4612,3.4612,3.4612,3.4612,3.4612,3.4612,3.4612,3.4612,3.4612,3.4612,3.4612,3.4612,3.4612,3.4612,3.494,3.5371,3.5841,3.6554,3.7361,3.8244,3.8783,3.9082,3.9153,3.9862,4.0332,4.0484,4.0712,4.0839,4.0907,4.0907,4.0907,4.0907,4.0907,4.0907,4.0907,4.0907,4.1626,0.7118,0.7816,0.8453,0.8326,0.8411,0.8521,0.8462,0.0,0.0,0.0,0.0,0.8635,0.9479,1.0327,1.1074,1.1581,1.3323,1.5424,1.7781,1.9239,2.0306,2.0991,2.1874,2.2708,2.3431,2.4626,2.5663,2.6393,2.6986,2.73,2.73,2.7588,2.7847,2.8064,2.8318,2.8622,2.894,2.8489,2.8553,2.9098,2.8832,2.9038,2.971,3.0273,3.1337,3.282,3.3713,3.455,3.5278,3.578,3.5618,3.5057,3.5057,3.5057,3.4934,3.402,3.3687,3.3565,3.2704,3.254,3.275,3.3006,3.3268,3.3534,3.3739,3.3807,3.3788,3.3815,3.4011,3.4209,3.4221,3.4397,3.4612,3.4612,3.4612,3.4612,3.4612,3.4612,3.4612,3.4612,3.4612,3.4612,3.4612,3.4612,3.4612,3.4612,3.4612,3.465,3.4771,3.5446,3.5991,3.6235,3.7493,3.8357,3.8488,3.9176,3.9662,3.9758,3.992,4.0165,4.0521,4.0643,4.0765,4.0907,4.0907,4.0907,4.0907,4.0907,4.0907,4.0907,4.0907,4.1432,0.7688,0.8363,0.873,0.7993,0.8495,0.9074,0.8733,0.8996,0.0,0.0,0.0,0.0,0.0,1.1652,1.1852,1.4748,1.617,1.7502,1.9246,1.969,2.021,2.1221,2.1769,2.2442,2.3407,2.3996,2.4737,2.5681,2.5854,2.5914,2.5914,2.6321,2.6573,2.6619,2.7076,2.764,2.8252,2.8704,2.9004,2.9098,2.8772,2.913,3.0108,2.9868,3.0827,3.2695,3.3667,3.4612,3.5514,3.6433,3.6761,3.6656,3.6656,3.6656,3.648,3.5039,3.4512,3.432,3.288,3.254,3.275,3.3006,3.3268,3.3534,3.3739,3.3807,3.3815,3.3934,3.4086,3.4221,3.434,3.4484,3.4612,3.4612,3.4612,3.4612,3.4612,3.4612,3.4612,3.4612,3.4612,3.4612,3.4612,3.4612,3.4612,3.4612,3.4612,3.4864,3.5615,3.5822,3.6423,3.7793,3.815,3.8601,3.9345,3.9514,3.9602,3.9638,3.9931,4.0285,4.0742,4.0765,4.0828,4.0907,4.0907,4.0907,4.0907,4.0907,4.0907,4.0907,4.0907,4.1762,0.7556,0.84,0.9014,0.8403,0.8967,0.9585,0.9221,0.9371,0.0,0.0,0.0,0.0,0.0,1.2492,1.3405,1.6479,1.7827,1.8774,1.9682,2.0359,2.0858,2.1153,2.1827,2.2441,2.2912,2.365,2.4372,2.5015,2.5397,2.5661,2.5763,2.5971,2.6221,2.6505,2.6757,2.7284,2.8079,2.841,2.8568,2.8553,2.8049,2.8132,2.8739,2.873,2.9838,3.178,3.2531,3.3869,3.5555,3.612,3.6601,3.7007,3.7007,3.7007,3.6814,3.5268,3.4425,3.3951,3.3231,3.296,3.3015,3.3573,3.3719,3.3671,3.378,3.3807,3.3842,3.4049,3.4161,3.4233,3.4381,3.4495,3.4612,3.4612,3.4612,3.4612,3.4612,3.4612,3.4612,3.4612,3.4612,3.4612,3.4612,3.4612,3.4752,3.5221,3.5296,3.5597,3.6441,3.693,3.7474,3.8225,3.8713,3.9157,3.957,3.9589,3.9638,3.9696,3.9994,4.031,4.063,4.0776,4.0864,4.0907,4.0907,4.0907,4.0907,4.0907,4.0907,4.0907,4.0907,4.1587,0.751,0.8408,0.9167,0.8943,0.0,1.0226,0.9981,1.0143,1.0465,0.0,0.0,0.0,1.2523,1.3748,1.5316,1.7606,1.8851,1.9692,2.016,2.1087,2.1626,2.1385,2.2025,2.2535,2.2626,2.3377,2.4004,2.4343,2.4829,2.5205,2.5349,2.5478,2.5702,2.6106,2.6236,2.6716,2.7604,2.7778,2.8015,2.8331,2.7652,2.7519,2.7849,2.7936,2.9059,3.0886,3.1531,3.3003,3.4998,3.5383,3.5917,3.6463,3.6463,3.6463,3.634,3.532,3.4337,3.3529,3.3723,3.3611,3.3479,3.409,3.4337,3.4357,3.4137,3.4096,3.4176,3.4402,3.437,3.4281,3.4397,3.4517,3.4612,3.4612,3.4612,3.4612,3.4612,3.4612,3.4612,3.4612,3.4612,3.4612,3.4612,3.4612,3.4902,3.5766,3.5897,3.6254,3.7249,3.7925,3.8375,3.8582,3.9195,3.9589,3.9589,3.9589,3.9631,3.9754,4.0015,4.0266,4.0484,4.0729,4.0874,4.0907,4.0907,4.0907,4.0907,4.0907,4.1005,4.1199,4.1199,4.1781,0.8088,0.8678,0.9079,0.9368,1.0273,1.1121,1.1153,1.1892,0.0,1.2856,0.0,0.0,1.4444,1.6032,1.744,1.8388,1.9332,2.0313,2.1322,2.1823,2.2151,2.2374,2.2466,2.2649,2.3016,2.3127,2.3312,2.3663,2.3714,2.3744,2.3751,2.4189,2.4435,2.4477,2.4887,2.5456,2.6151,2.683,2.781,2.9019,2.8347,2.8334,2.8866,2.8285,2.8893,3.0492,3.1417,3.2397,3.3431,3.4386,3.4811,3.4882,3.4882,3.4882,3.4934,3.5513,3.4776,3.3617,3.4355,3.4427,3.4229,3.4285,3.5133,3.5973,3.5151,3.5009,3.513,3.5267,3.4865,3.4427,3.4539,3.4583,3.4612,3.4612,3.4612,3.4612,3.4612,3.4612,3.4612,3.4612,3.4612,3.4612,3.4612,3.4612,3.4902,3.5766,3.5897,3.646,3.8019,3.8263,3.8601,3.942,3.9552,3.9589,3.9589,3.9589,3.9602,3.9614,3.9922,4.0236,4.0496,4.0706,4.0839,4.0907,4.0907,4.0907,4.0907,4.0907,4.1315,4.2116,4.2116,4.301,0.7785,0.8556,0.9171,0.9148,1.0165,0.0,0.0,1.1615,1.2041,1.2929,1.3206,1.3723,1.5139,1.6493,1.7723,1.8685,1.9638,2.061,2.171,2.2342,2.2672,2.2512,2.2717,2.2934,2.3083,2.3105,2.3238,2.3573,2.3595,2.3674,2.3839,2.4135,2.4364,2.4487,2.4826,2.5318,2.5993,2.6277,2.7115,2.8489,2.8625,2.884,2.906,2.9274,2.9831,3.0695,3.1459,3.2399,3.3421,3.381,3.3951,3.3951,3.395,3.4529,3.5372,3.5179,3.5039,3.4969,3.5285,3.5244,3.5112,3.5581,3.5989,3.6229,3.5917,3.5887,3.5927,3.5508,3.5305,3.5112,3.4711,3.4612,3.4612,3.4612,3.4612,3.4612,3.4612,3.4612,3.4612,3.4612,3.4612,3.4612,3.4612,3.4612,3.4902,3.5766,3.6329,3.7042,3.8169,3.877,3.9232,3.9552,3.9589,3.9589,3.9589,3.9589,3.9589,3.9589,3.9843,4.0072,4.031,4.0551,4.0759,4.0907,4.0907,4.0907,4.0907,4.0907,4.1063,4.1393,4.1961,4.283,0.7785,0.8651,0.9378,0.9346,0.0,0.0,1.1773,1.1847,1.2133,1.3238,1.3753,1.4359,1.5489,1.6355,1.7314,1.877,1.9745,2.074,2.1974,2.2799,2.3157,2.2875,2.3091,2.326,2.326,2.326,2.3334,2.3573,2.3595,2.3674,2.3861,2.4073,2.4302,2.4508,2.4731,2.5127,2.5677,2.5898,2.6483,2.7446,2.8363,2.8962,2.9266,2.9782,3.0326,3.0885,3.1428,3.2187,3.3072,3.3125,3.3002,3.2809,3.3055,3.3792,3.4704,3.4705,3.5021,3.553,3.6022,3.606,3.5957,3.6444,3.6805,3.7,3.6762,3.6795,3.6845,3.6318,3.5982,3.5644,3.5143,3.4808,3.4612,3.4612,3.4612,3.4612,3.4612,3.4612,3.4612,3.4612,3.4612,3.4612,3.4612,3.4612,3.4977,3.6104,3.6753,3.7486,3.8563,3.9232,3.9589,3.9589,3.9589,3.9589,3.9589,3.9589,3.9589,3.9589,3.9762,3.9964,4.0196,4.046,4.068,4.0903,4.0907,4.0907,4.0907,4.0907,4.1179,4.1743,4.2325,4.3219,0.8249,0.8984,0.9692,1.0169,0.0,0.0,1.2478,1.295,1.3416,1.4152,1.4619,1.506,1.5593,1.5713,1.6435,1.864,1.9605,2.0658,2.2281,2.3143,2.3595,2.3595,2.3595,2.3595,2.3595,2.3595,2.3595,2.3595,2.3595,2.3595,2.3595,2.3861,2.4088,2.4281,2.4487,2.4731,2.5005,2.5661,2.5993,2.6024,2.7415,2.8612,2.9595,2.9611,3.0102,3.1004,3.1218,3.1617,3.2108,3.2301,3.1914,3.1299,3.2072,3.2388,3.2581,3.4108,3.4689,3.4917,3.6445,3.6859,3.6675,3.6623,3.755,3.856,3.7749,3.7696,3.7904,3.7904,3.6957,3.5916,3.5916,3.5259,3.4612,3.4602,3.4612,3.4602,3.4602,3.4602,3.4602,3.4631,3.462,3.4631,3.4602,3.4602,3.5176,3.6847,3.711,3.7711,3.9383,3.9589,3.9589,3.9589,3.9589,3.9589,3.9589,3.9589,3.9589,3.9589,3.972,3.9931,4.0196,4.046,4.0699,4.0903,4.0907,4.0907,4.0907,4.0907,4.1781,4.3486,4.3486,4.4384,0.8094,0.834,0.8501,0.95,0.0,0.0,0.0,1.249,0.0,0.0,1.455,1.506,1.5593,1.6165,1.702,1.848,1.9223,2.0231,2.1968,2.2661,2.3116,2.355,2.3595,2.3595,2.3595,2.3595,2.3595,2.3595,2.3595,2.3595,2.3595,2.3861,2.4088,2.4281,2.4487,2.4731,2.5005,2.5191,2.564,2.6354,2.6787,2.7666,2.8909,2.937,3.0187,3.1218,3.1276,3.1691,3.2266,3.1757,3.1739,3.1949,3.1107,3.144,3.2388,3.2283,3.2915,3.3985,3.5021,3.5954,3.6783,3.727,3.8003,3.867,3.8414,3.8526,3.8623,3.8052,3.7741,3.7455,3.6892,3.6122,3.5353,3.4752,3.5071,3.5503,3.5503,3.5503,3.5672,3.6246,3.6359,3.619,3.5615,3.5503,3.5672,3.6179,3.6753,3.7711,3.9383,3.9589,3.9589,3.9589,3.9589,3.9589,3.9589,3.9589,3.9589,3.9589,3.9638,3.9788,4.0109,4.0396,4.061,4.0828,4.0888,4.0907,4.0907,4.0907,4.1179,4.1704,4.2928,4.3763,0.839,0.8645,0.8785,0.9677,1.0757,1.1843,1.2716,1.3146,1.351,1.3991,1.4349,1.4752,1.5286,1.5953,1.6828,1.8048,1.9002,2.0188,2.1843,2.2443,2.2927,2.3535,2.3595,2.3595,2.3595,2.3595,2.3595,2.3595,2.3595,2.3595,2.3595,2.3861,2.4088,2.4281,2.4487,2.4731,2.5005,2.5005,2.529,2.5918,2.6306,2.7009,2.7993,2.8628,2.9457,3.0411,3.0998,3.1515,3.1914,3.1739,3.1774,3.1791,3.058,3.0668,3.1423,3.0931,3.1545,3.2687,3.3512,3.487,3.6296,3.6729,3.7711,3.8707,3.8707,3.8896,3.9008,3.8511,3.8351,3.8188,3.7699,3.7211,3.6648,3.5796,3.5747,3.5991,3.631,3.6385,3.6517,3.7016,3.6847,3.646,3.5972,3.5615,3.5503,3.5841,3.6573,3.758,3.8913,3.9082,3.9214,3.9552,3.9589,3.9589,3.9589,3.9589,3.9589,3.9589,3.9644,3.9781,3.9973,4.0245,4.0516,4.0787,4.0864,4.0907,4.0907,4.0907,4.1082,4.1451,4.285,4.3685,0.8868,0.9474,0.9937,1.04,1.1804,1.335,1.448,1.4412,1.4091,1.4022,1.4065,1.4236,1.4739,1.5348,1.619,1.745,1.8877,2.0298,2.1781,2.2346,2.2838,2.3445,2.3565,2.3595,2.3595,2.3595,2.3595,2.3595,2.3595,2.3595,2.3595,2.3861,2.4088,2.4281,2.4487,2.4731,2.5005,2.5025,2.5045,2.5084,2.6017,2.6655,2.7015,2.7633,2.8329,2.9086,3.0489,3.1089,3.1159,3.1949,3.1861,3.1124,3.0457,3.0176,3.009,3.0036,3.0404,3.1123,3.193,3.3501,3.5195,3.5355,3.6796,3.8505,3.8579,3.8826,3.9087,3.9101,3.8749,3.8389,3.8401,3.8357,3.815,3.7486,3.6704,3.631,3.7054,3.7223,3.7223,3.7223,3.661,3.6066,3.5935,3.524,3.4977,3.5784,3.6573,3.7373,3.8094,3.8244,3.8601,3.9401,3.9552,3.9589,3.9589,3.9589,3.9589,3.9589,3.9708,3.9781,3.9804,4.0072,4.0385,4.0765,4.0849,4.0883,4.0907,4.0907,4.1315,4.2097,4.3063,4.3918,0.8316,0.888,0.9423,1.0411,1.2077,1.3502,1.3552,1.384,1.3972,1.3496,1.3765,1.4141,1.4236,1.535,1.6511,1.7246,1.8308,1.9489,2.0813,2.1535,2.2164,2.2823,2.3295,2.3595,2.3595,2.3595,2.3595,2.3595,2.3595,2.3595,2.3595,2.3861,2.4088,2.4281,2.4487,2.4731,2.5005,2.522,2.5451,2.5696,2.6138,2.6564,2.7029,2.7786,2.8505,2.9195,2.9983,3.0352,3.0387,3.1142,3.1352,3.1177,3.1019,3.0615,3.0036,2.9404,2.9263,2.954,3.0504,3.1635,3.2925,3.4338,3.5702,3.6927,3.7566,3.8324,3.8964,3.9073,3.9093,3.9133,3.9283,3.8807,3.8432,3.8951,3.8413,3.7831,3.8,3.8037,3.8037,3.8037,3.7906,3.738,3.6122,3.5747,3.5672,3.5878,3.6573,3.7167,3.7336,3.7906,3.8375,3.8563,3.9195,3.9589,3.9589,3.9589,3.9589,3.9589,3.9626,3.9691,3.9792,4.0157,4.0415,4.0568,4.0742,4.0849,4.0907,4.0907,4.1005,4.1218,4.2772,4.3602,0.8458,0.8893,0.936,1.0861,1.2224,1.3362,1.3888,1.3835,1.3664,1.3634,1.3647,1.3677,1.3677,1.4821,1.6026,1.6798,1.7876,1.9096,2.0497,2.1006,2.147,2.2149,2.2793,2.3182,2.3182,2.3182,2.3182,2.3182,2.2862,2.2682,2.2682,2.2924,2.328,2.3789,2.4047,2.4437,2.4985,2.5143,2.5375,2.5659,2.5972,2.6452,2.7105,2.7641,2.8066,2.8418,2.9192,2.9527,2.9614,3.0738,3.1194,3.1194,3.1194,3.0966,3.0527,2.9755,2.9228,2.8963,2.949,3.0413,3.152,3.2466,3.4087,3.5844,3.667,3.7577,3.8422,3.8948,3.9192,3.9356,3.9552,3.927,3.9045,3.9495,3.892,3.8413,3.8826,3.892,3.892,3.892,3.8263,3.7455,3.661,3.5803,3.5277,3.5277,3.5634,3.6058,3.646,3.723,3.7868,3.8263,3.9082,3.9589,3.9589,3.9589,3.9589,3.9589,3.9589,3.9656,3.9792,3.9991,4.023,4.0484,4.0706,4.0833,4.0907,4.0907,4.1102,4.1548,4.2889,4.3724,0.8463,0.8896,0.9506,1.1482,1.2418,1.3176,1.4337,1.3961,1.3509,1.3997,1.3609,1.3215,1.325,1.4236,1.5321,1.6219,1.7461,1.8788,2.0158,2.0554,2.0917,2.1455,2.2134,2.2523,2.2523,2.2523,2.2523,2.2523,2.2049,2.1754,2.1754,2.1974,2.2432,2.3156,2.3425,2.3966,2.4796,2.487,2.5054,2.5397,2.5809,2.6418,2.7197,2.7402,2.7511,2.7592,2.836,2.8684,2.8807,3.0211,3.0878,3.1019,3.1142,3.1194,3.1124,3.051,2.979,2.9088,2.8993,2.9659,3.062,3.0788,3.2538,3.4802,3.5954,3.694,3.7876,3.8837,3.9178,3.933,3.9533,3.9589,3.9589,3.9589,3.9063,3.8713,3.9439,3.9589,3.9552,3.9401,3.8143,3.7054,3.6922,3.5728,3.4771,3.462,3.4612,3.4864,3.5578,3.6498,3.7373,3.8019,3.9007,3.9589,3.9589,3.9589,3.9589,3.9589,3.9589,3.9644,3.9766,3.9815,4.0022,4.0412,4.0643,4.0787,4.0874,4.0883,4.1354,4.2214,4.3083,4.3976,0.7021,0.0,0.9747,1.2078,1.2911,1.3201,1.3386,1.3709,1.3997,1.4091,1.3609,1.325,1.3425,1.4163,1.4988,1.5694,1.7017,1.8201,1.8872,1.9956,2.0733,2.0823,2.1425,2.1829,2.1829,2.1829,2.1829,2.1829,2.1917,2.1955,2.1955,2.2317,2.2571,2.2683,2.2909,2.3335,2.403,2.4332,2.4802,2.5397,2.6104,2.6691,2.7197,2.7402,2.7554,2.7672,2.7824,2.7859,2.7929,2.8825,2.9614,3.0317,3.0949,3.1194,3.1193,3.1089,3.058,2.9859,2.9336,2.939,2.9836,3.0745,3.19,3.3335,3.5605,3.6883,3.7746,3.8809,3.9115,3.9197,3.9527,3.9589,3.9589,3.9589,3.9514,3.9458,3.957,3.9589,3.9383,3.8619,3.7718,3.6885,3.6179,3.5878,3.5465,3.4714,3.4612,3.4639,3.4752,3.6134,3.7148,3.726,3.8669,3.9589,3.9589,3.9589,3.9589,3.9589,3.9589,3.9602,3.9626,3.9862,4.0033,4.0146,4.0412,4.063,4.0818,4.0869,4.1354,4.2214,4.3083,4.3976,0.733,0.8746,1.0348,1.1633,1.2473,1.3099,1.3586,1.3647,1.369,1.4022,1.3973,1.3884,1.3937,1.4145,1.4735,1.6056,1.6904,1.7818,1.9081,1.9765,2.0139,2.0139,2.0737,2.1141,2.1141,2.1141,2.118,2.1295,2.1027,2.0926,2.1035,2.1232,2.1528,2.2025,2.2226,2.2718,2.3556,2.3811,2.4186,2.467,2.5681,2.6324,2.6607,2.7226,2.7569,2.7701,2.7701,2.7701,2.7754,2.8561,2.9105,2.9509,3.0282,3.0843,3.1194,3.1194,3.0984,3.0684,3.0411,2.9962,2.9651,3.0581,3.1346,3.2375,3.4821,3.6195,3.7243,3.8693,3.9137,3.9277,3.954,3.9589,3.9589,3.9589,3.9232,3.8863,3.8863,3.927,3.9214,3.7868,3.7699,3.7361,3.6122,3.5897,3.5766,3.539,3.4902,3.4612,3.4612,3.6058,3.711,3.711,3.8594,3.9589,3.9589,3.9589,3.9589,3.9589,3.9589,3.9638,3.9696,3.9818,3.9991,4.0213,4.0488,4.0662,4.0807,4.1369,4.2073,4.2947,4.3821,4.4676,0.7837,0.9094,1.0186,1.1174,1.1969,1.2744,1.3667,1.3521,1.3366,1.3972,1.429,1.4503,1.4591,1.4402,1.4671,1.6053,1.6681,1.7502,1.8976,1.9498,1.9708,1.9708,2.0139,2.0471,2.0524,2.0471,2.0546,2.0789,2.0368,2.0148,2.0339,2.0407,2.0726,2.1381,2.1536,2.2073,2.3015,2.3401,2.3769,2.4098,2.505,2.5619,2.5846,2.6775,2.7273,2.7438,2.7613,2.7701,2.7736,2.8351,2.8719,2.8965,2.9562,3.0264,3.0931,3.1124,3.1194,3.1211,3.1277,3.0643,2.9907,3.058,3.0937,3.1513,3.372,3.5239,3.6527,3.8052,3.8875,3.9356,3.9552,3.9589,3.9589,3.9589,3.892,3.83,3.83,3.8807,3.8894,3.7655,3.7887,3.7793,3.6179,3.5897,3.5822,3.5597,3.5015,3.4612,3.4612,3.5878,3.6866,3.7073,3.8406,3.9364,3.957,3.9589,3.9589,3.9589,3.9589,3.9656,3.9792,3.9829,3.9989,4.0279,4.0552,4.0706,4.0784,4.1484,4.2296,4.3199,4.4054,4.4909,0.7904,0.8171,0.8485,1.1125,1.1715,1.1936,1.2998,1.3223,1.3366,1.3972,1.441,1.4843,1.5343,1.5122,1.4901,1.506,1.616,1.718,1.7738,1.8897,1.9708,1.9708,1.9738,1.984,2.0015,1.9858,1.9896,2.0314,2.0302,2.034,2.0477,2.0678,2.0794,2.0825,2.0842,2.1307,2.226,2.3158,2.3769,2.4098,2.429,2.462,2.5092,2.5961,2.6469,2.67,2.7403,2.7701,2.7701,2.7736,2.821,2.8895,2.8947,2.9457,3.0246,3.0931,3.1194,3.1244,3.1505,3.1171,3.0693,3.0976,3.0708,3.0577,3.2216,3.3968,3.5565,3.6543,3.8013,3.9356,3.9552,3.9589,3.9589,3.9589,3.892,3.83,3.83,3.8338,3.8338,3.8244,3.8281,3.7793,3.6179,3.5897,3.5615,3.4789,3.4631,3.4612,3.4612,3.539,3.6254,3.7016,3.785,3.8694,3.9533,3.9589,3.9589,3.9589,3.9589,3.9656,3.9792,3.9929,4.0091,4.0307,4.0492,4.0636,4.07,4.0823,4.1348,4.2291,4.3161,4.4035,0.6948,0.773,0.8671,1.0042,1.0927,1.1676,1.249,1.2947,1.33,1.3645,1.4241,1.4673,1.4558,1.5158,1.5927,1.673,1.6901,1.7262,1.8214,1.8762,1.9061,1.9061,1.9453,1.978,1.9988,2.005,2.026,2.0663,2.0845,2.1007,2.1135,2.1214,2.1245,2.1245,2.1416,2.1746,2.2255,2.2597,2.2837,2.2942,2.3558,2.4015,2.4309,2.5209,2.5963,2.6616,2.6879,2.7262,2.7701,2.7701,2.7859,2.8122,2.8122,2.8614,2.9421,3.0211,3.0904,3.1526,3.2101,3.1721,3.1061,3.1723,3.1206,3.0653,3.2336,3.4117,3.5721,3.659,3.8103,3.9508,3.9577,3.9589,3.9458,3.8901,3.8131,3.7662,3.8188,3.7887,3.738,3.6855,3.7174,3.7174,3.6085,3.5897,3.5784,3.5484,3.4958,3.4789,3.5353,3.616,3.6967,3.7774,3.8619,3.927,3.957,3.9589,3.9589,3.9589,3.9589,3.9656,3.9792,3.9963,4.0157,4.0356,4.0566,4.0675,4.0694,4.1327,4.1833,4.2233,4.3666,4.4501,0.6226,0.7181,0.841,0.9418,1.0248,1.1149,1.2402,1.2797,1.304,1.3421,1.4133,1.4612,1.4339,1.529,1.6359,1.7149,1.7244,1.758,1.8557,1.8897,1.8957,1.8732,1.9286,1.9725,1.9773,2.0085,2.0499,2.0958,2.1182,2.137,2.1477,2.1508,2.1508,2.1508,2.1764,2.2003,2.2149,2.2268,2.2296,2.2296,2.2937,2.3313,2.3532,2.4427,2.5209,2.5858,2.6384,2.7016,2.7701,2.7701,2.7701,2.7701,2.7701,2.8017,2.8596,2.9404,3.0288,3.1221,3.2107,3.1957,3.1447,3.1965,3.1348,3.0575,3.1473,3.322,3.5033,3.5836,3.756,3.9232,3.9514,3.9589,3.9383,3.8507,3.7887,3.7568,3.7831,3.7474,3.7016,3.6761,3.7136,3.7249,3.6441,3.6085,3.5897,3.5897,3.5165,3.4902,3.5784,3.6366,3.7099,3.8188,3.8582,3.8988,3.9552,3.9326,3.9313,3.9649,3.9668,3.9777,3.9981,4.0129,4.0298,4.0508,4.0636,4.0706,4.073,4.1352,4.1692,4.1806,4.3549,4.4676,0.0,0.0,0.0,0.9306,0.9734,1.0302,1.2601,1.2739,1.2591,1.3322,1.4094,1.4664,1.4817,1.5488,1.5997,1.5951,1.7036,1.8061,1.8587,1.9241,1.9438,1.8777,1.9303,1.9612,1.9331,1.9941,2.0565,2.1135,2.1261,2.1353,2.1524,2.1524,2.1524,2.1524,2.1779,2.1913,2.1913,2.2163,2.2296,2.2296,2.2432,2.2582,2.2729,2.3662,2.4156,2.4392,2.5875,2.6964,2.7666,2.7683,2.7701,2.7701,2.7701,2.7701,2.7789,2.8596,2.9404,3.0238,3.1458,3.1876,3.1838,3.1654,3.1062,3.0272,2.9569,3.1147,3.3343,3.414,3.623,3.8432,3.9326,3.957,3.9383,3.8544,3.8319,3.8094,3.7336,3.7148,3.7373,3.8131,3.8263,3.8019,3.7223,3.6423,3.5897,3.5897,3.5165,3.4902,3.5784,3.5897,3.6517,3.8131,3.7568,3.7786,3.9458,3.8819,3.874,3.9736,3.9815,4.0,4.0389,4.0406,4.0488,4.0694,4.07,4.073,4.0793,4.0807,4.0839,4.0946,4.2694,4.4384,0.6378,0.0,0.0,0.0,0.0,0.0,1.1127,1.161,1.2026,1.2762,1.2828,1.2933,1.3499,1.3902,1.4241,1.4582,1.6057,1.7306,1.7714,1.8465,1.8912,1.8732,1.9424,1.9786,1.948,2.04,2.0988,2.0922,2.1119,2.1479,2.2061,2.2077,2.2077,2.2077,2.2152,2.2194,2.2194,2.2268,2.2296,2.2296,2.2432,2.2582,2.2712,2.3081,2.3619,2.4321,2.4747,2.5682,2.6964,2.7473,2.7701,2.7701,2.7701,2.7701,2.7789,2.8596,2.9158,2.9666,3.0675,3.1163,3.1365,3.1641,3.1169,3.0468,3.0455,3.1359,3.2589,3.3433,3.5068,3.6892,3.8281,3.9138,3.9533,3.9308,3.8751,3.8413,3.8819,3.8425,3.785,3.7505,3.7429,3.7373,3.7148,3.6423,3.5897,3.5897,3.5165,3.4902,3.5784,3.5897,3.6517,3.8131,3.7568,3.7786,3.9458,3.8931,3.8871,3.9747,3.9941,4.0138,4.0397,4.0496,4.0623,4.0759,4.0823,4.0854,4.0869,4.0828,4.0839,4.0946,4.2694,4.4093,0.6619,0.7031,0.7759,0.8385,0.0,0.0,1.0765,1.1161,1.1419,1.217,1.2362,1.2524,1.305,1.3579,1.4033,1.4306,1.5675,1.688,1.7454,1.8197,1.8719,1.882,1.9511,1.9907,1.9688,2.067,2.1168,2.0827,2.1056,2.1393,2.182,2.2141,2.2296,2.2296,2.2296,2.2296,2.2296,2.2366,2.2377,2.2394,2.2528,2.2646,2.279,2.285,2.3239,2.3834,2.415,2.4976,2.616,2.6929,2.742,2.7701,2.7701,2.7701,2.7754,2.8228,2.8762,2.9365,3.0022,3.0609,3.1172,3.1585,3.1403,3.108,3.126,3.1933,3.2818,3.3663,3.5108,3.661,3.7549,3.8432,3.9063,3.9063,3.8939,3.8976,3.9495,3.9195,3.8694,3.8237,3.8143,3.8143,3.8143,3.7455,3.6798,3.6441,3.5672,3.5334,3.5841,3.5897,3.6385,3.7662,3.708,3.7314,3.9051,3.8493,3.8612,3.9932,4.0148,4.0326,4.053,4.063,4.0723,4.0844,4.0874,4.0907,4.0907,4.0859,4.1053,4.1471,4.2869,4.3976,0.6843,0.704,0.7623,0.8724,0.8708,0.0,1.0972,1.101,1.0811,1.1523,1.2163,1.2655,1.2887,1.3697,1.4333,1.4294,1.5333,1.6478,1.7425,1.8145,1.8678,1.8938,1.9535,1.9916,1.9908,2.0763,2.1199,2.0869,2.1137,2.1292,2.119,2.1904,2.2296,2.2296,2.2296,2.2296,2.2296,2.2432,2.2501,2.2501,2.2646,2.279,2.2906,2.2919,2.2995,2.3142,2.3869,2.4642,2.5472,2.616,2.6964,2.7701,2.7701,2.7701,2.7698,2.773,2.8317,2.9123,2.9417,3.0174,3.1058,3.1396,3.1584,3.1715,3.188,3.2491,3.3306,3.4207,3.5683,3.6979,3.6979,3.7549,3.8169,3.8169,3.8763,3.9345,3.9439,3.9458,3.9477,3.957,3.9589,3.9589,3.9589,3.8882,3.8037,3.7223,3.6423,3.5878,3.5766,3.5766,3.6066,3.6885,3.6235,3.6483,3.8291,3.7774,3.8145,4.004,4.0315,4.0515,4.0687,4.0759,4.0833,4.0907,4.0907,4.0907,4.0907,4.0907,4.1296,4.2078,4.2947,4.3763,0.7758,0.7983,0.8433,0.8892,0.9122,0.0,1.0084,1.0144,1.0219,1.08,1.0773,1.0792,1.1256,1.1732,1.1994,1.1837,1.3357,1.5036,1.6447,1.7362,1.8119,1.8693,1.916,1.9557,1.9876,2.0855,2.1363,2.1147,2.1708,2.1837,2.1224,2.1904,2.2296,2.2296,2.2296,2.2296,2.2296,2.2432,2.2501,2.2501,2.2751,2.2863,2.2889,2.302,2.3082,2.3107,2.3265,2.412,2.5419,2.5577,2.6455,2.7701,2.7701,2.7701,2.773,2.7954,2.818,2.8461,2.8887,2.9619,3.0416,3.0761,3.0886,3.1067,3.1827,3.1747,3.17,3.3212,3.4846,3.6122,3.6122,3.6723,3.7336,3.7336,3.7467,3.7768,3.8413,3.8544,3.8751,3.9458,3.9589,3.9589,3.9589,3.8882,3.8037,3.7223,3.6423,3.5653,3.494,3.4846,3.5184,3.6047,3.5371,3.5598,3.74,3.7546,3.8023,3.9179,4.0069,4.0602,4.0694,4.0759,4.0833,4.0907,4.0907,4.0907,4.0907,4.0907,4.0985,4.116,4.2053,4.2544,0.8004,0.8073,0.8357,0.8745,0.9283,0.0,0.0,1.0226,1.0382,1.0631,1.0617,1.0623,1.0904,1.1716,1.2345,1.2346,1.3601,1.4789,1.533,1.6439,1.7491,1.8266,1.8683,1.9061,1.9499,2.0188,2.0608,2.061,2.1312,2.1583,2.1207,2.1904,2.2296,2.2296,2.2296,2.2338,2.2391,2.2525,2.2632,2.2699,2.2889,2.3008,2.3008,2.3082,2.3107,2.3107,2.3107,2.3769,2.4875,2.5243,2.6104,2.7192,2.7561,2.7774,2.7908,2.8056,2.8295,2.8583,2.8827,2.9276,2.9835,3.0421,3.0644,3.0864,3.174,3.2073,3.232,3.3164,3.4301,3.524,3.524,3.5859,3.6498,3.6498,3.681,3.7223,3.7606,3.7699,3.7943,3.8788,3.8939,3.9101,3.9533,3.9251,3.8538,3.7298,3.6772,3.6028,3.4752,3.4977,3.5409,3.5859,3.5503,3.5805,3.7184,3.71,3.7562,3.9016,3.9661,4.0237,4.0723,4.0771,4.0833,4.0907,4.0907,4.0907,4.0907,4.0907,4.0907,4.0927,4.1786,4.2194,0.8279,0.8178,0.8282,0.889,0.9527,1.0105,0.0,0.0,0.0,1.0871,1.0996,1.1121,1.1121,1.216,1.3055,1.3167,1.4135,1.4673,1.4105,1.5358,1.6638,1.747,1.7961,1.8475,1.9068,1.9398,1.9667,1.9972,2.0467,2.0886,2.1173,2.1752,2.2144,2.2296,2.2324,2.2377,2.2501,2.2659,2.2803,2.2906,2.3045,2.3107,2.3107,2.3107,2.3107,2.3107,2.3107,2.3558,2.4344,2.4927,2.5752,2.6669,2.7403,2.7836,2.8025,2.8122,2.8453,2.8868,2.8957,2.9152,2.9485,3.0126,3.0524,3.0858,3.1512,3.2379,3.3183,3.3352,3.3869,3.4395,3.4545,3.5108,3.5653,3.5653,3.6141,3.6659,3.6828,3.6866,3.7148,3.8112,3.83,3.8582,3.9458,3.9589,3.9082,3.7561,3.7336,3.6791,3.5288,3.5691,3.6122,3.6122,3.6122,3.6389,3.7014,3.6749,3.7177,3.8608,3.8984,3.9586,4.053,4.0721,4.0844,4.0907,4.0907,4.0907,4.0907,4.0907,4.0907,4.0927,4.1626,4.1961,0.9335,0.919,0.9239,1.0007,1.0321,1.0544,1.0936,0.0,1.1487,1.1487,0.0,1.1532,1.1532,0.0,0.0,1.1682,1.2983,1.3728,1.2833,1.4037,1.5275,1.5977,1.6814,1.7781,1.8831,1.8969,1.9275,1.9951,1.9486,1.9752,2.1123,2.1275,2.1617,2.2279,2.2422,2.2487,2.2501,2.2751,2.2876,2.2906,2.3045,2.3107,2.3107,2.3107,2.3107,2.3107,2.3107,2.3558,2.4321,2.4379,2.5279,2.6669,2.7403,2.7716,2.7803,2.821,2.852,2.876,2.9126,2.9433,2.9673,2.9758,3.0274,3.0893,3.0986,3.1578,3.2405,3.3193,3.3475,3.37,3.4414,3.4658,3.4752,3.4752,3.4819,3.5101,3.5859,3.6047,3.6498,3.8019,3.83,3.8582,3.9458,3.9589,3.927,3.8319,3.8169,3.7831,3.6941,3.6904,3.696,3.696,3.696,3.6784,3.6285,3.6986,3.7285,3.6922,3.7803,3.8771,3.9696,4.0485,4.0883,4.0907,4.0907,4.0907,4.0907,4.0907,4.0907,4.0907,4.1005,4.1043,0.9565,0.9756,1.0029,1.0053,1.0693,1.1337,1.1373,1.1616,1.1891,1.2033,0.0,0.0,0.0,0.0,0.0,0.0,1.2423,1.2844,1.2288,1.3271,1.4185,1.4589,1.5163,1.6009,1.7272,1.7921,1.8572,1.9316,1.9063,1.9404,2.0556,2.062,2.0964,2.1694,2.1858,2.2142,2.2605,2.2803,2.2944,2.302,2.3065,2.3107,2.3107,2.3107,2.3107,2.3107,2.3107,2.3282,2.3628,2.4115,2.4677,2.5411,2.6714,2.7515,2.7965,2.8277,2.859,2.8918,2.9191,2.9482,2.9701,2.9701,2.9927,3.0208,3.0208,3.1091,3.218,3.2536,3.3344,3.417,3.4508,3.4612,3.4612,3.4612,3.4612,3.4695,3.5071,3.5146,3.5484,3.6686,3.7286,3.7868,3.8694,3.927,3.9308,3.8432,3.83,3.8019,3.7204,3.7512,3.784,3.7954,3.7521,3.7133,3.6937,3.6511,3.6381,3.6649,3.8179,3.9242,3.958,4.0432,4.0907,4.0907,4.0907,4.0907,4.0907,4.0907,4.0907,4.0907,4.0907,4.0907,1.0136,1.0407,1.0677,1.0345,1.106,1.1814,1.1819,1.2215,1.2571,1.2618,1.2441,0.0,0.0,0.0,1.1825,0.0,0.0,1.2252,1.1808,1.2598,1.3298,1.3501,1.4024,1.4741,1.5763,1.6453,1.7232,1.8159,1.8087,1.8551,1.9831,1.9899,2.0252,2.1037,2.1398,2.1853,2.2453,2.2789,2.299,2.3107,2.3107,2.3107,2.3107,2.3107,2.3107,2.3107,2.3107,2.3107,2.3142,2.3716,2.4131,2.4549,2.5801,2.6817,2.766,2.8286,2.8731,2.9038,2.9272,2.9502,2.9701,2.9701,2.9701,2.9701,2.9701,3.0678,3.1823,3.2048,3.3156,3.432,3.4526,3.4612,3.4612,3.4612,3.4612,3.4612,3.4612,3.4612,3.4864,3.5728,3.6366,3.7099,3.8131,3.9014,3.9383,3.8751,3.8657,3.8456,3.7913,3.8146,3.8422,3.8639,3.7862,3.7297,3.7186,3.6265,3.59,3.6419,3.804,3.9063,3.9257,4.0112,4.0674,4.0907,4.0907,4.0907,4.0907,4.0907,4.0907,4.0907,4.0907,4.0907,1.1522,1.1305,1.1215,1.1404,1.1535,1.1741,1.2271,1.3222,1.3866,1.3303,1.3639,1.3846,1.3265,1.271,0.0,0.0,0.0,0.0,0.0,1.1947,1.2603,1.2807,1.3829,1.456,1.4735,1.4554,1.5011,1.6475,1.6048,1.6713,1.9018,1.9149,1.9538,2.04,2.1304,2.1805,2.184,2.2678,2.3107,2.3107,2.3107,2.3107,2.3107,2.3107,2.3107,2.3107,2.3107,2.3107,2.3107,2.3125,2.3761,2.4682,2.4748,2.5378,2.6459,2.8243,2.8938,2.9049,2.9384,2.9579,2.9701,2.9701,2.9701,2.9701,2.9701,3.0283,3.11,3.1879,3.2743,3.3625,3.4395,3.4612,3.4612,3.4612,3.4612,3.4612,3.4612,3.4612,3.4864,3.5728,3.5916,3.6441,3.8037,3.9014,3.9589,3.9552,3.9552,3.9606,3.9694,3.8995,3.8569,3.8764,3.8013,3.7177,3.6396,3.6543,3.6426,3.5855,3.6688,3.7566,3.8402,3.9276,4.0111,4.0888,4.0907,4.0907,4.0907,4.0907,4.0907,4.0907,4.0907,4.0907,1.2257,1.252,1.2589,1.1553,1.1899,1.2308,1.1743,1.2699,1.3588,1.3216,1.3753,1.4123,1.351,1.2966,0.0,0.0,0.0,0.0,0.0,1.1887,1.2052,1.2134,1.3078,1.376,1.3896,1.4066,1.4825,1.638,1.5937,1.6448,1.8394,1.8508,1.8879,1.9721,2.0179,2.0859,2.1788,2.2182,2.2628,2.3107,2.3107,2.3107,2.3089,2.2593,2.2364,2.2364,2.2364,2.2364,2.2411,2.3082,2.3548,2.3927,2.4817,2.533,2.5818,2.7545,2.8242,2.8466,2.9325,2.9655,2.9701,2.9701,2.9701,2.9701,2.9701,3.0621,3.1748,3.2011,3.31,3.4264,3.4526,3.4612,3.4612,3.4612,3.4612,3.4612,3.4612,3.4612,3.4677,3.4977,3.5503,3.6066,3.6629,3.7831,3.8939,3.9514,3.9589,3.9443,3.9003,3.8674,3.8414,3.8154,3.7351,3.678,3.6634,3.6273,3.5964,3.581,3.6615,3.7236,3.7528,3.8926,3.9834,4.0111,4.0635,4.0907,4.0907,4.0907,4.0907,4.0907,4.0907,4.0907,1.3044,1.3444,1.3606,1.2476,1.2833,1.3234,1.2358,1.3156,1.4001,1.3715,1.4087,1.4417,1.4249,1.3602,0.0,0.0,0.0,0.0,0.0,1.1722,1.1714,1.1794,1.2416,1.2904,1.3089,1.3174,1.4011,1.5963,1.5566,1.6116,1.8086,1.8225,1.8506,1.907,1.9479,2.0261,2.1424,2.1815,2.2364,2.3107,2.3107,2.2967,2.2698,2.2277,2.1889,2.1586,2.1925,2.2036,2.2072,2.2976,2.3422,2.3618,2.4517,2.512,2.5687,2.7362,2.8231,2.8714,2.9448,2.9701,2.9701,2.9701,2.9701,2.9701,2.9701,3.0809,3.2105,3.2105,3.3306,3.4612,3.4612,3.4612,3.4612,3.4612,3.4612,3.4612,3.4612,3.4376,3.4264,3.4526,3.4827,3.5202,3.5803,3.7043,3.8232,3.9007,3.9443,3.9519,3.9083,3.8824,3.8471,3.7918,3.7099,3.6514,3.6376,3.5947,3.5708,3.5791,3.6319,3.6789,3.7081,3.8479,3.9373,3.9679,4.0499,4.0907,4.0907,4.0907,4.0907,4.0907,4.0907,4.0907]}]]